[[{"header":{"parameterUnit":"m.s-1","parameterCategory":1,"la1":31.0,"la2":29.5877,"lo1":-88.7671,"lo2":-86.6584,"dy":0.0162,"dx":0.0185,"nx":115,"ny":88,"refTime":"2024-03-02T18:00:00:Z","depth":0,"parameterNumber":2,"parameterNumberName":"U-component_of_WINDS"},"data":[0.0,0.0,0.0,0.0,0.0,0.0,0.0,0.0,0.0,0.0,0.0,0.0,0.0,0.0,0.0,0.0,0.0,0.0,0.0,0.0,0.0,0.0,0.0,0.0,0.0,0.0,0.0,0.0,0.0,0.0,0.0,0.0,0.0,0.0,0.0,0.0,0.0,0.0,0.0,0.0,0.0,0.0,0.0,0.0,0.0,0.0,0.0,0.0,0.0,0.0,0.0,0.0,0.0,0.0,0.0,0.0,0.0,0.0,0.0,0.0,0.0,0.0,0.0,0.0,0.0,0.0,0.0,0.0,0.0,0.0,0.0,0.0,0.0,0.0,0.0,0.0,0.0,0.0,0.0,0.0,0.0,0.0,0.0,0.0,0.0,0.0,0.0,0.0,0.0,0.0,0.0,0.0,0.0,0.0,0.0,0.0,0.0,0.0,0.0,0.0,0.0,0.0,0.0,0.0,0.0,0.0,0.0,0.0,0.0,0.0,0.0,0.0,0.0,0.0,0.0,0.0,0.0,0.0,0.0,0.0,0.0,0.0,0.0,0.0,0.0,0.0,0.0,0.0,0.0,0.0,0.0,0.0,0.0,0.0,0.0,0.0,0.0,0.0,0.0,0.0,0.0,0.0,0.0,0.0,0.0,0.0,0.0,0.0,0.0,0.0,0.0,0.0,0.0,0.0,0.0,0.0,0.0,0.0,0.0,0.0,0.0,0.0,0.0,0.0,0.0,0.0,0.0,0.0,0.0,0.0,0.0,0.0,0.0,0.0,0.0,0.0,0.0,0.0,0.0,0.0,0.0,0.0,0.0,0.0,0.0,0.0,0.0,0.0,0.0,0.0,0.0,0.0,0.0,0.0,0.0,0.0,0.0,0.0,0.0,0.0,0.0,0.0,0.0,0.0,0.0,0.0,0.0,0.0,0.0,0.0,0.0,0.0,0.0,0.0,0.0,0.0,0.0,0.0,0.0,0.0,0.0,0.0,0.0,0.0,0.0,0.0,0.0,0.0,0.0,0.0,0.0,0.0,0.0,0.0,0.0,0.0,0.0,0.0,0.0,0.0,0.0,0.0,0.0,0.0,0.0,0.0,0.0,0.0,0.0,0.0,0.0,0.0,0.0,0.0,0.0,0.0,0.0,0.0,0.0,0.0,0.0,0.0,0.0,0.0,0.0,0.0,0.0,0.0,0.0,0.0,0.0,0.0,0.0,0.0,0.0,0.0,0.0,0.0,0.0,0.0,0.0,0.0,0.0,0.0,0.0,0.0,0.0,0.0,0.0,0.0,0.0,0.0,0.0,0.0,0.0,0.0,0.0,0.0,0.0,0.0,0.0,0.0,0.0,0.0,0.0,0.0,0.0,0.0,0.0,0.0,0.0,0.0,0.0,0.0,0.0,0.0,0.0,0.0,0.0,0.0,0.0,0.0,0.0,0.0,0.0,0.0,0.0,0.0,0.0,0.0,0.0,0.0,0.0,0.0,0.0,0.0,0.0,0.0,0.0,0.0,0.0,0.0,0.0,0.0,0.0,0.0,0.0,0.0,0.0,0.0,0.0,0.0,0.0,0.0,0.0,0.0,0.0,0.0,0.0,0.0,0.0,0.0,0.0,0.0,0.0,0.0,0.0,0.0,0.0,0.0,0.0,0.0,0.0,0.0,0.0,0.0,0.0,0.0,0.0,0.0,0.0,0.0,0.0,0.0,0.0,0.0,0.0,0.0,0.0,0.0,0.0,0.0,0.0,0.0,0.0,0.0,0.0,0.0,0.0,0.0,0.0,0.0,0.0,0.0,0.0,0.0,0.0,0.0,0.0,0.0,0.0,0.0,0.0,0.0,0.0,0.0,0.0,0.0,0.0,0.0,0.0,0.0,0.0,0.0,0.0,0.0,0.0,0.0,0.0,0.0,0.0,0.0,0.0,0.0,0.0,0.0,0.0,0.0,0.0,0.0,0.0,0.0,0.0,0.0,0.0,0.0,0.0,0.0,0.0,0.0,0.0,0.0,0.0,0.0,0.0,0.0,0.0,0.0,0.0,0.0,0.0,0.0,0.0,0.0,0.0,0.0,0.0,0.0,0.0,0.0,0.0,0.0,0.0,0.0,0.0,0.0,0.0,0.0,0.0,0.0,0.0,0.0,0.0,0.0,0.0,0.0,0.0,0.0,0.0,0.0,0.0,0.0,0.0,0.0,0.0,0.0,0.0,0.0,0.0,0.0,0.0,0.0,0.0,0.0,0.0,0.0,0.0,0.0,0.0,0.0,0.0,0.0,0.0,0.0,0.0,0.0,0.0,0.0,0.0,0.0,0.0,0.0,0.0,0.0,0.0,0.0,0.0,0.0,0.0,0.0,0.0,0.0,0.0,0.0,0.0,0.0,0.0,0.0,0.0,0.0,0.0,0.0,0.0,0.0,0.0,0.0,0.0,0.0,0.0,0.0,0.0,0.0,0.0,0.0,0.0,0.0,0.0,0.0,0.0,0.0,0.0,0.0,0.0,0.0,0.0,0.0,0.0,0.0,0.0,0.0,0.0,0.0,0.0,0.0,0.0,0.0,0.0,0.0,0.0,0.0,0.0,0.0,0.0,0.0,0.0,0.0,0.0,0.0,0.0,0.0,0.0,0.0,0.0,0.0,0.0,0.0,0.0,0.0,0.0,0.0,0.0,0.0,0.0,0.0,0.0,0.0,0.0,0.0,0.0,0.0,0.0,0.0,0.0,0.0,0.0,0.0,0.0,0.0,0.0,0.0,0.0,0.0,0.0,0.0,0.0,0.0,0.0,0.0,0.0,0.0,0.0,0.0,0.0,0.0,0.0,0.0,0.0,0.0,0.0,0.0,0.0,0.0,0.0,0.0,0.0,0.0,0.0,0.0,0.0,0.0,0.0,0.0,0.0,0.0,0.0,0.0,0.0,0.0,0.0,0.0,0.0,0.0,0.0,0.0,0.0,0.0,0.0,0.0,0.0,0.0,0.0,0.0,0.0,0.0,0.0,0.0,0.0,0.0,0.0,0.0,0.0,0.0,0.0,0.0,0.0,0.0,0.0,0.0,0.0,0.0,0.0,0.0,0.0,0.0,0.0,0.0,0.0,0.0,0.0,0.0,0.0,0.0,0.0,0.0,0.0,0.0,0.0,0.0,0.0,0.0,0.0,0.0,0.0,0.0,0.0,0.0,0.0,0.0,0.0,0.0,0.0,0.0,0.0,0.0,0.0,0.0,0.0,0.0,0.0,0.0,0.0,0.0,0.0,0.0,0.0,0.0,0.0,0.0,0.0,0.0,0.0,0.0,0.0,0.0,0.0,0.0,0.0,0.0,0.0,0.0,0.0,0.0,0.0,0.0,0.0,0.0,0.0,0.0,0.0,0.0,0.0,0.0,0.0,0.0,0.0,0.0,0.0,0.0,0.0,0.0,0.0,0.0,0.0,0.0,0.0,0.0,0.0,0.0,0.0,0.0,0.0,0.0,0.0,0.0,0.0,0.0,0.0,0.0,0.0,0.0,0.0,0.0,0.0,0.0,0.0,0.0,0.0,0.0,0.0,0.0,0.0,0.0,0.0,0.0,0.0,0.0,0.0,0.0,0.0,0.0,0.0,0.0,0.0,0.0,0.0,0.0,0.0,0.0,0.0,0.0,0.0,0.0,0.0,0.0,0.0,0.0,0.0,0.0,0.0,0.0,0.0,0.0,0.0,0.0,0.0,0.0,0.0,0.0,0.0,0.0,0.0,0.0,0.0,0.0,0.0,0.0,0.0,0.0,0.0,0.0,0.0,0.0,0.0,0.0,0.0,0.0,0.0,0.0,0.0,0.0,0.0,0.0,0.0,0.0,0.0,0.0,0.0,0.0,0.0,0.0,0.0,0.0,0.0,0.0,0.0,0.0,0.0,0.0,0.0,0.0,0.0,0.0,0.0,0.0,0.0,0.0,0.0,0.0,0.0,0.0,0.0,0.0,0.0,0.0,0.0,0.0,0.0,0.0,0.0,0.0,0.0,0.0,0.0,0.0,0.0,0.0,0.0,0.0,0.0,0.0,0.0,0.0,0.0,0.0,0.0,0.0,0.0,0.0,0.0,0.0,0.0,0.0,0.0,0.0,0.0,0.0,0.0,0.0,0.0,0.0,0.0,0.0,0.0,0.0,0.0,0.0,0.0,0.0,0.0,0.0,0.0,0.0,0.0,0.0,0.0,0.0,0.0,0.0,0.0,0.0,0.0,0.0,0.0,0.0,0.0,0.0,0.0,0.0,0.0,0.0,0.0,0.0,0.0,0.0,0.0,0.0,-0.4915,0.0,0.0,0.0,0.0,0.0,0.0,0.0,0.0,0.0,0.0,0.0,0.0,0.0,0.0,0.0,0.0,0.0,0.0,0.0,0.0,0.0,0.0,0.0,0.0,0.0,0.0,0.0,0.0,0.0,0.0,0.0,0.0,0.0,0.0,0.0,0.0,0.0,0.0,0.0,0.0,0.0,0.0,0.0,0.0,0.0,0.0,0.0,0.0,0.0,0.0,0.0,0.0,0.0,0.0,0.0,0.0,0.0,0.0,0.0,0.0,0.0,0.0,0.0,0.0,0.0,0.0,0.0,0.0,0.0,0.0,0.0,0.0,0.0,0.0,0.0,0.0,0.0,0.0,0.0,0.0,0.0,0.0,0.0,0.0,0.0,0.0,0.0,0.0,0.0,0.0,0.0,0.0,0.0,0.0,0.0,0.0,0.0,0.0,0.0,0.0,0.0,0.0,0.0,0.0,0.0,0.0,0.0,0.0,0.0,0.0,-0.468,-0.4694,-0.4784,-0.4848,-0.4848,0.0,0.0,0.0,0.0,0.0,0.0,0.0,0.0,0.0,0.0,0.0,0.0,0.0,0.0,0.0,0.0,0.0,0.0,0.0,0.0,0.0,0.0,0.0,0.0,0.0,0.0,0.0,0.0,0.0,0.0,0.0,0.0,0.0,0.0,0.0,0.0,0.0,0.0,0.0,0.0,0.0,0.0,0.0,0.0,0.0,0.0,0.0,0.0,0.0,0.0,0.0,0.0,0.0,0.0,0.0,0.0,0.0,0.0,0.0,0.0,0.0,0.0,0.0,0.0,0.0,0.0,0.0,0.0,0.0,0.0,0.0,0.0,0.0,0.0,0.0,0.0,0.0,0.0,0.0,0.0,0.0,0.0,0.0,0.0,0.0,0.0,0.0,0.0,0.0,0.0,0.0,0.0,0.0,0.0,0.0,0.0,0.0,0.0,0.0,0.0,0.0,0.0,0.0,0.0,0.0,0.0,0.0,0.0,0.0,0.0,0.0,0.0,-0.4694,-0.4772,-0.4796,0.0,0.0,0.0,0.0,0.0,0.0,0.0,0.0,0.0,0.0,0.0,0.0,0.0,0.0,0.0,0.0,0.0,0.0,0.0,0.0,0.0,0.0,0.0,0.0,0.0,0.0,0.0,0.0,0.0,0.0,0.0,0.0,0.0,0.0,0.0,0.0,0.0,0.0,0.0,0.0,0.0,0.0,0.0,0.0,0.0,0.0,0.0,0.0,0.0,0.0,0.0,0.0,0.0,0.0,0.0,0.0,0.0,0.0,0.0,0.0,0.0,0.0,0.0,0.0,0.0,0.0,0.0,0.0,0.0,0.0,0.0,0.0,0.0,0.0,0.0,0.0,0.0,0.0,0.0,0.0,0.0,0.0,0.0,0.0,0.0,0.0,0.0,0.0,0.0,0.0,0.0,0.0,0.0,0.0,0.0,0.0,0.0,0.0,0.0,0.0,0.0,0.0,0.0,0.0,0.0,0.0,0.0,0.0,0.0,0.0,-0.4515,-0.4515,-0.4592,0.0,-0.4804,0.0,0.0,0.0,0.0,0.0,0.0,0.0,0.0,0.0,0.0,0.0,0.0,0.0,0.0,0.0,0.0,0.0,0.0,0.0,0.0,0.0,0.0,0.0,0.0,0.0,0.0,0.0,0.0,0.0,0.0,0.0,0.0,0.0,0.0,0.0,0.0,0.0,0.0,0.0,0.0,0.0,0.0,0.0,0.0,0.0,0.0,0.0,0.0,0.0,0.0,0.0,0.0,0.0,0.0,0.0,0.0,0.0,0.0,0.0,0.0,0.0,0.0,0.0,0.0,0.0,0.0,0.0,0.0,0.0,0.0,0.0,0.0,0.0,0.0,0.0,0.0,0.0,0.0,0.0,0.0,0.0,0.0,0.0,0.0,0.0,0.0,0.0,0.0,0.0,0.0,0.0,0.0,0.0,0.0,0.0,0.0,0.0,0.0,0.0,0.0,0.0,0.0,0.0,0.0,0.0,0.0,0.0,0.0,0.0,0.0,-0.4436,-0.4436,-0.4551,-0.461,0.0,0.0,0.0,0.0,0.0,0.0,0.0,0.0,0.0,0.0,0.0,0.0,0.0,0.0,0.0,0.0,0.0,0.0,0.0,0.0,0.0,0.0,0.0,0.0,0.0,0.0,0.0,0.0,0.0,0.0,0.0,0.0,0.0,0.0,0.0,0.0,0.0,0.0,0.0,0.0,0.0,0.0,0.0,0.0,0.0,0.0,0.0,0.0,0.0,0.0,0.0,0.0,0.0,0.0,0.0,0.0,0.0,0.0,0.0,0.0,0.0,0.0,0.0,0.0,0.0,0.0,0.0,0.0,0.0,0.0,0.0,0.0,0.0,0.0,0.0,0.0,0.0,0.0,0.0,0.0,0.0,0.0,0.0,0.0,0.0,0.0,0.0,0.0,0.0,0.0,0.0,0.0,0.0,0.0,0.0,0.0,0.0,0.0,0.0,0.0,0.0,0.0,0.0,0.0,0.0,0.0,0.0,0.0,0.0,0.0,-0.4382,-0.4374,-0.4404,-0.4495,-0.4546,-0.4576,0.0,0.0,0.0,0.0,0.0,0.0,0.0,0.0,0.0,0.0,0.0,0.0,0.0,0.0,0.0,0.0,0.0,0.0,0.0,0.0,0.0,0.0,0.0,0.0,0.0,0.0,0.0,0.0,0.0,0.0,0.0,0.0,0.0,0.0,0.0,0.0,0.0,0.0,0.0,0.0,0.0,0.0,0.0,0.0,0.0,0.0,0.0,0.0,0.0,0.0,0.0,0.0,0.0,0.0,0.0,0.0,0.0,0.0,0.0,0.0,0.0,0.0,0.0,0.0,0.0,0.0,0.0,0.0,0.0,0.0,0.0,0.0,0.0,0.0,0.0,0.0,0.0,0.0,0.0,0.0,0.0,0.0,0.0,0.0,0.0,0.0,0.0,0.0,0.0,0.0,0.0,0.0,0.0,0.0,0.0,0.0,0.0,0.0,0.0,0.0,0.0,0.0,0.0,0.0,0.0,0.0,0.0,0.0,-0.4396,-0.4334,-0.4334,-0.4382,-0.439,-0.4436,0.0,0.0,0.0,0.0,0.0,0.0,0.0,0.0,0.0,0.0,0.0,0.0,0.0,0.0,0.0,0.0,0.0,0.0,0.0,0.0,0.0,0.0,0.0,0.0,0.0,0.0,0.0,0.0,0.0,0.0,0.0,0.0,0.0,0.0,0.0,0.0,0.0,0.0,0.0,0.0,0.0,0.0,0.0,0.0,0.0,0.0,0.0,0.0,0.0,0.0,0.0,0.0,0.0,0.0,0.0,0.0,0.0,0.0,0.0,0.0,0.0,0.0,0.0,0.0,0.0,0.0,0.0,0.0,0.0,0.0,0.0,0.0,0.0,0.0,0.0,0.0,0.0,0.0,0.0,0.0,0.0,0.0,0.0,0.0,0.0,0.0,0.0,0.0,0.0,0.0,0.0,0.0,0.0,0.0,0.0,0.0,0.0,0.0,0.0,0.0,0.0,0.0,0.0,0.0,0.0,0.0,0.0,0.0,0.0,-0.4334,-0.4237,-0.4164,-0.4156,-0.4277,-0.435,0.0,0.0,0.0,0.0,0.0,0.0,0.0,0.0,0.0,0.0,0.0,0.0,0.0,0.0,0.0,0.0,0.0,0.0,0.0,0.0,0.0,0.0,0.0,0.0,0.0,0.0,0.0,0.0,0.0,0.0,0.0,0.0,0.0,0.0,0.0,0.0,0.0,0.0,0.0,0.0,0.0,0.0,0.0,0.0,0.0,0.0,0.0,0.0,0.0,0.0,0.0,0.0,0.0,0.0,0.0,0.0,0.0,0.0,0.0,0.0,0.0,0.0,0.0,0.0,0.0,0.0,0.0,0.0,0.0,0.0,0.0,0.0,0.0,0.0,0.0,0.0,0.0,0.0,0.0,0.0,0.0,0.0,0.0,0.0,0.0,0.0,0.0,0.0,0.0,0.0,0.0,0.0,0.0,0.0,0.0,0.0,0.0,0.0,0.0,0.0,0.0,0.0,0.0,0.0,0.0,0.0,0.0,0.0,0.0,-0.4199,0.0,-0.4058,-0.4002,-0.4132,-0.4207,0.0,0.0,0.0,0.0,0.0,0.0,0.0,0.0,0.0,0.0,0.0,0.0,0.0,0.0,0.0,0.0,0.0,0.0,0.0,0.0,0.0,0.0,0.0,0.0,0.0,0.0,0.0,0.0,0.0,0.0,0.0,0.0,0.0,0.0,0.0,0.0,0.0,0.0,0.0,0.0,0.0,0.0,0.0,0.0,0.0,0.0,0.0,0.0,0.0,0.0,0.0,0.0,0.0,0.0,0.0,0.0,0.0,0.0,0.0,0.0,0.0,0.0,0.0,0.0,0.0,0.0,0.0,0.0,0.0,0.0,0.0,0.0,0.0,0.0,0.0,0.0,0.0,0.0,0.0,0.0,0.0,0.0,0.0,0.0,0.0,0.0,0.0,0.0,0.0,0.0,0.0,0.0,0.0,0.0,0.0,0.0,0.0,0.0,0.0,0.0,0.0,0.0,0.0,0.0,0.0,0.0,0.0,0.0,-0.4061,-0.4002,-0.401,-0.3977,-0.3988,-0.3993,-0.3988,0.0,0.0,0.0,0.0,0.0,0.0,0.0,0.0,0.0,0.0,0.0,0.0,0.0,0.0,0.0,0.0,0.0,0.0,0.0,0.0,0.0,0.0,0.0,0.0,0.0,0.0,0.0,0.0,0.0,0.0,0.0,0.0,0.0,0.0,0.0,0.0,0.0,0.0,0.0,0.0,0.0,0.0,0.0,0.0,0.0,0.0,0.0,0.0,0.0,0.0,0.0,0.0,0.0,0.0,0.0,0.0,0.0,0.0,0.0,0.0,0.0,0.0,0.0,0.0,0.0,0.0,0.0,0.0,0.0,0.0,0.0,0.0,0.0,0.0,0.0,0.0,0.0,0.0,0.0,0.0,0.0,0.0,0.0,0.0,0.0,0.0,0.0,0.0,0.0,0.0,0.0,0.0,0.0,0.0,0.0,0.0,0.0,0.0,0.0,0.0,0.0,0.0,0.0,0.0,0.0,0.0,0.0,0.0,0.0,-0.3783,-0.3746,-0.3704,-0.365,-0.3708,-0.3753,0.0,0.0,0.0,0.0,0.0,0.0,0.0,0.0,0.0,0.0,0.0,0.0,0.0,0.0,0.0,0.0,0.0,0.0,0.0,0.0,0.0,0.0,0.0,0.0,0.0,0.0,0.0,0.0,0.0,0.0,0.0,0.0,0.0,0.0,0.0,0.0,0.0,0.0,0.0,0.0,0.0,0.0,0.0,0.0,0.0,0.0,0.0,0.0,0.0,0.0,0.0,0.0,0.0,0.0,0.0,0.0,0.0,0.0,0.0,0.0,0.0,0.0,0.0,0.0,0.0,0.0,0.0,0.0,0.0,0.0,0.0,0.0,0.0,0.0,0.0,0.0,0.0,0.0,0.0,0.0,0.0,0.0,0.0,0.0,0.0,0.0,0.0,0.0,0.0,0.0,0.0,0.0,0.0,0.0,0.0,0.0,0.0,0.0,0.0,0.0,0.0,0.0,0.0,0.0,0.0,0.0,0.0,0.0,0.0,-0.3691,-0.3686,-0.3651,-0.3599,-0.3633,-0.3682,-0.3771,0.0,0.0,0.0,0.0,0.0,0.0,0.0,0.0,0.0,0.0,0.0,0.0,0.0,0.0,0.0,0.0,0.0,0.0,0.0,0.0,0.0,0.0,0.0,0.0,0.0,0.0,0.0,0.0,0.0,0.0,0.0,0.0,0.0,0.0,0.0,0.0,0.0,0.0,0.0,0.0,0.0,0.0,0.0,0.0,0.0,0.0,0.0,0.0,0.0,0.0,0.0,0.0,0.0,0.0,0.0,0.0,0.0,0.0,0.0,0.0,0.0,0.0,0.0,0.0,0.0,0.0,0.0,0.0,0.0,0.0,0.0,0.0,0.0,0.0,0.0,0.0,0.0,0.0,0.0,0.0,0.0,0.0,0.0,0.0,0.0,0.0,0.0,0.0,0.0,0.0,0.0,0.0,0.0,0.0,0.0,0.0,0.0,0.0,0.0,0.0,0.0,0.0,0.0,0.0,0.0,0.0,0.0,0.0,-0.3691,-0.3763,-0.378,-0.378,-0.372,-0.3747,0.0,0.0,0.0,0.0,0.0,0.0,0.0,0.0,0.0,0.0,0.0,0.0,0.0,0.0,0.0,0.0,0.0,0.0,0.0,0.0,0.0,0.0,0.0,0.0,0.0,0.0,0.0,0.0,0.0,0.0,0.0,0.0,0.0,0.0,0.0,0.0,0.0,0.0,0.0,0.0,0.0,0.0,0.0,0.0,0.0,0.0,0.0,0.0,0.0,0.0,0.0,0.0,0.0,0.0,0.0,0.0,0.0,0.0,0.0,0.0,0.0,0.0,0.0,0.0,0.0,0.0,0.0,0.0,0.0,0.0,0.0,0.0,0.0,0.0,0.0,0.0,0.0,0.0,0.0,0.0,0.0,0.0,0.0,0.0,0.0,0.0,0.0,0.0,0.0,0.0,0.0,0.0,0.0,0.0,0.0,0.0,0.0,0.0,0.0,0.0,0.0,0.0,0.0,0.0,0.0,0.0,0.0,0.0,0.0,-0.3698,-0.3726,-0.3705,-0.3652,-0.3644,-0.3639,0.0,0.0,0.0,0.0,0.0,0.0,0.0,0.0,0.0,0.0,0.0,0.0,0.0,0.0,0.0,0.0,0.0,0.0,0.0,0.0,0.0,0.0,0.0,0.0,0.0,0.0,0.0,0.0,0.0,0.0,0.0,0.0,0.0,0.0,0.0,0.0,0.0,0.0,0.0,0.0,0.0,0.0,0.0,0.0,0.0,0.0,0.0,0.0,0.0,0.0,0.0,0.0,0.0,0.0,0.0,0.0,0.0,0.0,0.0,0.0,0.0,0.0,0.0,0.0,0.0,0.0,0.0,0.0,0.0,0.0,0.0,0.0,0.0,0.0,0.0,0.0,0.0,0.0,0.0,0.0,0.0,0.0,0.0,0.0,0.0,0.0,0.0,0.0,0.0,0.0,0.0,0.0,0.0,0.0,0.0,0.0,0.0,0.0,0.0,0.0,0.0,0.0,0.0,0.0,0.0,0.0,0.0,0.0,-0.3781,-0.3697,-0.366,-0.3662,-0.3637,-0.3666,-0.3727,0.0,0.0,0.0,0.0,0.0,0.0,0.0,0.0,0.0,0.0,0.0,0.0,0.0,0.0,0.0,0.0,0.0,0.0,0.0,0.0,0.0,0.0,0.0,0.0,0.0,0.0,0.0,0.0,0.0,0.0,0.0,0.0,0.0,0.0,0.0,0.0,0.0,0.0,0.0,0.0,0.0,0.0,0.0,0.0,0.0,0.0,0.0,0.0,0.0,0.0,0.0,0.0,0.0,0.0,0.0,0.0,0.0,0.0,0.0,0.0,0.0,0.0,0.0,0.0,0.0,0.0,0.0,0.0,0.0,0.0,0.0,0.0,0.0,0.0,0.0,0.0,0.0,0.0,0.0,0.0,0.0,0.0,0.0,0.0,0.0,0.0,0.0,0.0,0.0,0.0,0.0,0.0,0.0,0.0,0.0,0.0,0.0,0.0,0.0,0.0,0.0,0.0,0.0,0.0,0.0,0.0,0.0,0.0,-0.375,-0.3689,-0.363,-0.363,-0.3697,-0.3768,-0.389,0.0,0.0,0.0,0.0,0.0,0.0,0.0,0.0,0.0,0.0,0.0,0.0,0.0,0.0,0.0,0.0,0.0,0.0,0.0,0.0,0.0,0.0,0.0,0.0,0.0,0.0,0.0,0.0,0.0,0.0,0.0,0.0,0.0,0.0,0.0,0.0,0.0,0.0,0.0,0.0,0.0,0.0,0.0,0.0,0.0,0.0,0.0,0.0,0.0,0.0,0.0,0.0,0.0,0.0,0.0,0.0,0.0,0.0,0.0,0.0,0.0,0.0,0.0,0.0,0.0,0.0,0.0,0.0,0.0,0.0,0.0,0.0,0.0,0.0,0.0,0.0,0.0,0.0,0.0,0.0,0.0,0.0,0.0,0.0,0.0,0.0,0.0,0.0,0.0,0.0,0.0,0.0,0.0,0.0,0.0,0.0,0.0,0.0,0.0,0.0,0.0,0.0,0.0,0.0,0.0,0.0,0.0,0.0,-0.369,-0.3633,-0.36,-0.363,-0.3689,-0.3822,-0.3877,0.0,0.0,0.0,0.0,0.0,0.0,0.0,0.0,0.0,0.0,0.0,0.0,0.0,0.0,0.0,0.0,0.0,0.0,0.0,0.0,0.0,0.0,0.0,0.0,0.0,0.0,0.0,0.0,0.0,0.0,0.0,0.0,0.0,0.0,0.0,0.0,0.0,0.0,0.0,0.0,0.0,0.0,0.0,0.0,0.0,0.0,0.0,0.0,-0.2071,0.0,0.0,0.0,0.0,0.0,0.0,0.0,0.0,0.0,0.0,0.0,0.0,0.0,0.0,0.0,0.0,0.0,0.0,0.0,0.0,0.0,0.0,0.0,0.0,0.0,0.0,0.0,0.0,0.0,0.0,0.0,0.0,0.0,0.0,0.0,0.0,0.0,0.0,0.0,0.0,0.0,0.0,0.0,0.0,0.0,0.0,0.0,0.0,0.0,0.0,0.0,0.0,0.0,0.0,0.0,0.0,0.0,0.0,0.0,-0.366,-0.36,-0.36,-0.363,-0.3711,-0.3836,-0.3905,0.0,0.0,0.0,0.0,0.0,0.0,0.0,0.0,0.0,0.0,0.0,0.0,0.0,0.0,0.0,0.0,0.0,0.0,0.0,0.0,0.0,0.0,0.0,0.0,0.0,0.0,0.0,0.0,0.0,0.0,0.0,0.0,0.0,0.0,0.0,0.0,0.0,0.0,0.0,0.0,0.0,0.0,0.0,0.0,0.0,0.0,0.0,0.0,0.0,0.0,0.0,0.0,0.0,0.0,0.0,0.0,0.0,0.0,0.0,0.0,0.0,0.0,0.0,0.0,0.0,0.0,0.0,0.0,0.0,0.0,0.0,0.0,0.0,0.0,0.0,0.0,0.0,0.0,0.0,0.0,0.0,0.0,0.0,0.0,0.0,0.0,0.0,0.0,0.0,0.0,0.0,0.0,0.0,0.0,0.0,0.0,0.0,0.0,0.0,0.0,0.0,0.0,0.0,0.0,0.0,0.0,0.0,-0.3666,-0.3663,-0.36,-0.36,-0.363,-0.3689,-0.3836,-0.3972,-0.4086,0.0,0.0,0.0,0.0,0.0,0.0,0.0,0.0,0.0,0.0,0.0,0.0,0.0,0.0,0.0,0.0,0.0,0.0,0.0,0.0,0.0,0.0,0.0,0.0,0.0,0.0,0.0,0.0,0.0,0.0,0.0,0.0,0.0,0.0,0.0,0.0,0.0,0.0,-0.2836,-0.2819,0.0,0.0,0.0,0.0,0.0,0.0,0.0,0.0,-0.2093,0.0,0.0,0.0,0.0,0.0,0.0,0.0,0.0,0.0,0.0,0.0,0.0,0.0,0.0,0.0,0.0,0.0,0.0,0.0,0.0,0.0,0.0,0.0,0.0,0.0,0.0,0.0,0.0,0.0,0.0,0.0,0.0,0.0,0.0,0.0,0.0,0.0,0.0,0.0,0.0,0.0,0.0,0.0,0.0,0.0,0.0,0.0,0.0,0.0,0.0,0.0,0.0,0.0,0.0,0.0,0.0,-0.3691,-0.3631,-0.36,-0.36,-0.36,-0.363,-0.37,-0.3825,-0.3961,-0.4097,0.0,0.0,0.0,0.0,0.0,0.0,0.0,0.0,0.0,0.0,0.0,0.0,0.0,0.0,0.0,0.0,0.0,0.0,0.0,0.0,0.0,0.0,0.0,0.0,0.0,0.0,0.0,0.0,0.0,0.0,0.0,0.0,0.0,0.0,0.0,0.0,0.0,0.0,0.0,-0.2732,-0.2742,0.0,0.0,0.0,0.0,0.0,0.0,0.0,0.0,-0.2041,0.0,0.0,0.0,0.0,0.0,0.0,0.0,0.0,0.0,0.0,0.0,0.0,0.0,0.0,0.0,0.0,0.0,0.0,0.0,0.0,0.0,0.0,0.0,0.0,0.0,0.0,0.0,0.0,0.0,0.0,0.0,0.0,0.0,0.0,0.0,0.0,0.0,0.0,0.0,0.0,0.0,0.0,0.0,0.0,0.0,0.0,0.0,0.0,0.0,0.0,0.0,0.0,0.0,0.0,0.0,-0.3664,-0.3626,-0.3627,-0.3709,-0.3701,-0.3766,-0.3892,-0.3964,-0.4059,0.0,0.0,0.0,0.0,0.0,0.0,0.0,0.0,0.0,0.0,0.0,0.0,0.0,0.0,0.0,0.0,0.0,0.0,0.0,0.0,0.0,0.0,0.0,0.0,0.0,0.0,0.0,0.0,0.0,0.0,0.0,0.0,0.0,0.0,0.0,0.0,0.0,0.0,0.0,0.0,-0.2832,-0.2863,-0.2762,0.0,0.0,0.0,0.0,0.0,0.0,-0.2132,-0.215,0.0,0.0,0.0,0.0,0.0,0.0,0.0,0.0,0.0,0.0,0.0,0.0,0.0,0.0,0.0,0.0,0.0,0.0,0.0,0.0,0.0,0.0,0.0,0.0,0.0,0.0,0.0,0.0,0.0,0.0,0.0,0.0,0.0,0.0,0.0,0.0,0.0,0.0,0.0,0.0,0.0,0.0,0.0,0.0,0.0,0.0,0.0,0.0,0.0,0.0,0.0,0.0,0.0,0.0,0.0,-0.3597,-0.362,-0.3699,-0.38,-0.381,-0.3934,-0.4151,-0.4122,-0.4168,0.0,0.0,0.0,0.0,0.0,0.0,0.0,0.0,0.0,0.0,0.0,0.0,0.0,0.0,0.0,0.0,0.0,0.0,0.0,0.0,0.0,0.0,0.0,0.0,0.0,0.0,0.0,0.0,0.0,0.0,0.0,0.0,0.0,0.0,0.0,0.0,0.0,0.0,0.0,0.0,0.0,-0.2996,-0.297,-0.2824,0.0,0.0,0.0,0.0,-0.2347,-0.2324,0.0,0.0,0.0,0.0,0.0,0.0,0.0,0.0,0.0,0.0,0.0,0.0,0.0,0.0,0.0,0.0,0.0,0.0,0.0,0.0,0.0,0.0,0.0,0.0,0.0,0.0,0.0,0.0,0.0,0.0,0.0,0.0,0.0,0.0,0.0,0.0,0.0,0.0,0.0,0.0,0.0,0.0,0.0,0.0,0.0,0.0,0.0,0.0,0.0,0.0,0.0,0.0,0.0,0.0,0.0,0.0,-0.3607,-0.3715,-0.3786,-0.3807,-0.3909,-0.4087,-0.4346,-0.4189,-0.4225,0.0,0.0,0.0,0.0,0.0,0.0,0.0,0.0,0.0,0.0,0.0,0.0,0.0,0.0,0.0,0.0,0.0,0.0,0.0,0.0,0.0,0.0,0.0,0.0,0.0,0.0,0.0,0.0,0.0,0.0,0.0,0.0,0.0,0.0,0.0,0.0,0.0,0.0,0.0,0.0,0.0,-0.304,-0.3149,-0.2958,-0.2787,0.0,0.0,0.0,-0.254,-0.2556,0.0,0.0,0.0,0.0,0.0,0.0,0.0,0.0,0.0,0.0,0.0,0.0,0.0,0.0,0.0,0.0,0.0,0.0,0.0,0.0,0.0,0.0,0.0,0.0,0.0,0.0,0.0,0.0,0.0,0.0,0.0,0.0,0.0,0.0,0.0,0.0,0.0,0.0,0.0,0.0,0.0,0.0,0.0,0.0,0.0,0.0,0.0,0.0,0.0,0.0,0.0,0.0,0.0,0.0,0.0,-0.3828,-0.372,-0.3769,-0.3877,-0.4018,-0.4076,-0.4209,-0.4397,-0.4386,-0.4352,0.0,0.0,0.0,0.0,0.0,0.0,0.0,0.0,0.0,0.0,0.0,0.0,0.0,0.0,0.0,0.0,0.0,0.0,0.0,0.0,0.0,0.0,0.0,0.0,0.0,0.0,0.0,0.0,0.0,0.0,0.0,0.0,0.0,0.0,0.0,0.0,0.0,0.0,0.0,0.0,0.0,0.0,-0.318,-0.3031,0.0,0.0,0.0,-0.2711,-0.2759,0.0,0.0,0.0,0.0,0.0,0.0,0.0,0.0,0.0,0.0,0.0,0.0,0.0,0.0,0.0,0.0,0.0,0.0,0.0,0.0,0.0,0.0,0.0,0.0,0.0,0.0,0.0,0.0,0.0,0.0,0.0,0.0,0.0,0.0,0.0,0.0,0.0,0.0,0.0,0.0,0.0,0.0,0.0,0.0,0.0,0.0,0.0,0.0,0.0,0.0,0.0,0.0,0.0,0.0,0.0,0.0,0.0,-0.3815,-0.3866,-0.4003,-0.4187,-0.4231,-0.4327,-0.4483,-0.4523,0.0,0.0,0.0,0.0,0.0,0.0,0.0,0.0,0.0,0.0,0.0,0.0,0.0,0.0,0.0,0.0,0.0,0.0,0.0,0.0,0.0,0.0,0.0,0.0,0.0,0.0,0.0,-0.2686,0.0,0.0,0.0,0.0,0.0,0.0,0.0,0.0,0.0,0.0,0.0,0.0,0.0,0.0,-0.3164,-0.3317,-0.3221,-0.3134,0.0,0.0,-0.3041,-0.3044,-0.306,-0.3103,0.0,0.0,0.0,0.0,0.0,0.0,0.0,0.0,0.0,0.0,0.0,0.0,0.0,0.0,0.0,0.0,0.0,0.0,0.0,0.0,0.0,0.0,0.0,0.0,0.0,0.0,0.0,0.0,0.0,0.0,0.0,0.0,0.0,0.0,0.0,0.0,0.0,0.0,0.0,0.0,0.0,0.0,0.0,0.0,0.0,0.0,0.0,0.0,0.0,0.0,0.0,0.0,0.0,0.0,0.0,-0.3814,-0.4035,-0.417,-0.4214,-0.4379,-0.4529,-0.4656,-0.4514,-0.4465,0.0,0.0,0.0,0.0,0.0,0.0,0.0,0.0,0.0,0.0,0.0,0.0,0.0,0.0,0.0,0.0,0.0,0.0,0.0,0.0,0.0,0.0,0.0,0.0,0.0,0.0,0.0,0.0,0.0,0.0,0.0,0.0,0.0,0.0,0.0,0.0,0.0,0.0,0.0,0.0,0.0,-0.3458,-0.3729,-0.3577,-0.3502,0.0,0.0,-0.3455,-0.3458,-0.3474,-0.3474,-0.3563,0.0,0.0,0.0,0.0,0.0,0.0,0.0,0.0,0.0,0.0,0.0,0.0,0.0,0.0,0.0,0.0,0.0,0.0,0.0,0.0,0.0,0.0,0.0,0.0,0.0,0.0,0.0,0.0,0.0,0.0,0.0,0.0,0.0,0.0,0.0,0.0,0.0,0.0,0.0,0.0,0.0,0.0,0.0,0.0,0.0,0.0,0.0,0.0,0.0,0.0,0.0,0.0,0.0,-0.4095,-0.4045,-0.415,-0.4251,-0.4379,-0.4446,-0.4519,-0.4587,-0.4573,-0.4512,0.0,0.0,0.0,0.0,0.0,0.0,0.0,0.0,0.0,0.0,0.0,0.0,0.0,0.0,0.0,0.0,0.0,0.0,0.0,0.0,0.0,0.0,0.0,0.0,0.0,0.0,0.0,0.0,-0.2818,-0.2972,-0.3189,0.0,0.0,0.0,0.0,0.0,0.0,0.0,0.0,0.0,0.0,-0.3809,-0.3917,-0.392,0.0,0.0,-0.3733,-0.3707,-0.375,-0.3702,-0.3724,-0.378,-0.3526,0.0,0.0,0.0,0.0,0.0,0.0,0.0,0.0,0.0,0.0,0.0,0.0,0.0,0.0,0.0,0.0,0.0,0.0,0.0,0.0,0.0,0.0,0.0,0.0,0.0,0.0,0.0,0.0,0.0,0.0,0.0,0.0,0.0,0.0,0.0,0.0,0.0,0.0,0.0,0.0,0.0,0.0,0.0,0.0,0.0,0.0,0.0,0.0,0.0,0.0,0.0,0.0,-0.4252,-0.421,-0.4264,-0.4362,-0.4487,-0.4491,-0.4491,-0.4491,-0.4587,-0.4539,0.0,0.0,0.0,0.0,0.0,0.0,0.0,0.0,0.0,0.0,0.0,0.0,0.0,0.0,0.0,0.0,0.0,0.0,0.0,0.0,0.0,0.0,0.0,0.0,0.0,0.0,0.0,0.0,-0.2872,-0.3024,-0.331,0.0,0.0,0.0,0.0,0.0,0.0,0.0,0.0,0.0,0.0,-0.4092,-0.4174,-0.4255,-0.4312,-0.428,-0.4168,-0.4091,-0.4064,-0.4008,-0.3972,-0.3913,0.0,0.0,0.0,0.0,0.0,0.0,0.0,0.0,0.0,0.0,0.0,0.0,0.0,0.0,0.0,0.0,0.0,0.0,0.0,0.0,0.0,0.0,0.0,0.0,0.0,0.0,0.0,0.0,0.0,0.0,0.0,0.0,0.0,0.0,0.0,0.0,0.0,0.0,0.0,0.0,0.0,0.0,0.0,0.0,0.0,0.0,0.0,0.0,0.0,0.0,0.0,0.0,0.0,0.0,-0.4227,-0.4395,-0.4484,-0.4491,-0.4491,-0.4491,-0.4491,-0.4491,-0.4487,-0.4481,0.0,0.0,0.0,0.0,0.0,0.0,0.0,0.0,0.0,0.0,0.0,0.0,0.0,0.0,0.0,0.0,0.0,0.0,0.0,0.0,0.0,0.0,0.0,0.0,0.0,0.0,-0.2722,-0.2891,-0.3053,0.0,0.0,0.0,0.0,0.0,0.0,0.0,0.0,0.0,0.0,-0.4019,-0.4304,-0.4551,-0.4582,-0.4712,-0.5032,-0.4896,-0.4695,-0.4455,-0.4387,-0.428,0.0,0.0,0.0,0.0,0.0,0.0,0.0,0.0,0.0,0.0,0.0,0.0,0.0,0.0,0.0,0.0,0.0,0.0,0.0,0.0,0.0,0.0,0.0,0.0,0.0,0.0,0.0,0.0,-0.5193,0.0,0.0,0.0,0.0,0.0,0.0,0.0,0.0,0.0,0.0,0.0,-0.6243,-0.5985,0.0,0.0,0.0,0.0,0.0,0.0,0.0,0.0,0.0,0.0,0.0,0.0,-0.4542,-0.4416,-0.4464,-0.4491,-0.4491,-0.4491,-0.4491,-0.4491,-0.4491,-0.4491,-0.4487,0.0,0.0,0.0,0.0,0.0,0.0,0.0,0.0,0.0,0.0,0.0,0.0,0.0,0.0,0.0,0.0,0.0,0.0,0.0,0.0,0.0,0.0,0.0,0.0,0.0,-0.2863,0.0,0.0,0.0,0.0,0.0,0.0,0.0,0.0,0.0,0.0,0.0,-0.4172,-0.4308,-0.4682,-0.5006,-0.5235,-0.5256,-0.533,0.0,0.0,0.0,0.0,0.0,0.0,0.0,0.0,0.0,0.0,0.0,0.0,0.0,0.0,-0.34,-0.301,-0.2867,-0.2814,-0.2859,0.0,0.0,0.0,0.0,0.0,0.0,0.0,0.0,0.0,0.0,0.0,0.0,0.0,0.0,0.0,0.0,-0.553,0.0,0.0,0.0,0.0,0.0,0.0,0.0,0.0,-0.6284,-0.637,-0.6502,-0.6227,-0.6102,0.0,-0.5979,-0.5644,0.0,0.0,0.0,0.0,0.0,0.0,0.0,0.0,-0.4677,-0.4636,-0.4583,-0.4583,-0.4648,-0.4637,-0.4634,-0.4634,-0.4583,-0.45,-0.4411,-0.4267,-0.4111,0.0,0.0,0.0,0.0,0.0,0.0,0.0,0.0,0.0,0.0,0.0,0.0,0.0,0.0,0.0,0.0,0.0,0.0,0.0,0.0,0.0,0.0,0.0,-0.2871,0.0,0.0,0.0,0.0,0.0,0.0,0.0,0.0,0.0,-0.3855,-0.4227,-0.457,-0.4848,-0.5182,-0.5513,-0.5772,0.0,0.0,0.0,0.0,0.0,0.0,0.0,-0.5114,-0.52,-0.487,-0.4574,-0.4465,-0.4304,-0.4191,-0.4158,0.0,0.0,-0.3501,-0.3351,-0.3326,-0.3331,-0.3272,-0.3254,-0.3366,-0.3339,-0.3438,0.0,0.0,0.0,0.0,0.0,0.0,0.0,0.0,-0.5305,-0.5335,0.0,-0.5442,0.0,0.0,0.0,0.0,0.0,0.0,0.0,0.0,-0.6321,-0.6317,-0.6302,-0.6185,-0.6127,-0.6093,-0.5984,-0.592,-0.5883,-0.5514,0.0,0.0,0.0,0.0,0.0,0.0,-0.4924,-0.4912,-0.4788,-0.4769,-0.4904,-0.4899,-0.4899,-0.4892,-0.4772,-0.4558,-0.4237,-0.4227,-0.4078,-0.3818,-0.3664,0.0,0.0,0.0,0.0,0.0,0.0,0.0,0.0,0.0,0.0,0.0,0.0,0.0,0.0,0.0,0.0,0.0,0.0,0.0,0.0,-0.2814,0.0,0.0,0.0,0.0,0.0,0.0,0.0,0.0,0.0,0.0,-0.4366,-0.4538,-0.48,-0.5329,0.0,0.0,0.0,0.0,-0.6289,-0.6415,-0.6303,-0.6215,-0.6222,-0.5894,-0.5622,-0.5627,0.0,0.0,-0.4576,-0.4479,-0.4421,-0.4263,-0.4322,-0.4273,-0.4079,-0.3949,-0.3903,-0.3961,-0.3951,-0.4014,-0.407,-0.4042,-0.4181,-0.6424,0.0,0.0,0.0,0.0,-0.5852,-0.588,-0.5905,-0.5963,-0.6022,-0.6051,-0.6032,0.0,0.0,0.0,0.0,0.0,0.0,-0.6522,-0.6524,-0.6676,-0.6678,-0.6571,-0.6543,-0.6457,-0.631,-0.6266,-0.6217,-0.6118,-0.6,-0.5814,-0.5594,0.0,0.0,0.0,0.0,-0.5256,-0.5232,-0.512,-0.5066,-0.5127,-0.4979,-0.4918,-0.4918,-0.4862,-0.4708,-0.4443,-0.4411,-0.423,-0.3816,-0.3674,0.0,0.0,0.0,0.0,0.0,0.0,0.0,0.0,0.0,0.0,0.0,0.0,0.0,0.0,0.0,0.0,0.0,0.0,0.0,-0.2871,-0.2999,-0.3079,0.0,0.0,0.0,0.0,0.0,0.0,0.0,0.0,0.0,-0.4682,-0.4864,-0.5139,0.0,0.0,-0.6297,-0.6854,-0.6806,-0.6816,-0.7147,0.0,0.0,0.0,-0.6372,-0.6099,-0.6086,-0.5851,-0.5537,-0.5277,-0.5267,-0.5247,-0.4949,-0.4908,-0.488,-0.4736,-0.4345,-0.4077,-0.4056,-0.4043,-0.405,-0.4147,-0.4253,-0.4408,-0.7135,-0.6715,-0.6576,-0.6437,-0.6355,-0.6353,-0.634,-0.634,-0.6348,-0.6376,-0.6419,-0.6423,-0.645,-0.6537,-0.6532,0.0,0.0,0.0,-0.678,-0.6772,-0.6877,-0.6888,-0.6827,-0.681,-0.6758,-0.6652,-0.6631,-0.6587,-0.6514,-0.6445,-0.6347,-0.6213,0.0,0.0,-0.577,-0.5615,-0.5546,-0.5582,-0.5478,-0.5399,-0.5351,-0.5185,-0.5064,-0.4975,-0.4928,-0.4748,-0.4483,-0.4349,-0.4154,-0.3804,-0.3674,-0.3546,0.0,0.0,0.0,0.0,0.0,0.0,0.0,0.0,0.0,0.0,0.0,-0.2864,0.0,0.0,0.0,0.0,-0.2835,-0.2803,-0.2863,-0.2975,0.0,0.0,0.0,0.0,0.0,0.0,0.0,-0.3848,-0.4023,-0.4367,-0.4913,-0.5084,-0.5348,-0.5968,-0.6143,-0.6432,-0.7021,0.0,-0.7029,-0.7342,-0.7172,-0.7071,-0.719,-0.6908,-0.6626,-0.6479,-0.6321,-0.6092,-0.5796,-0.58,-0.5759,-0.5552,-0.5531,-0.5505,-0.5382,-0.5096,-0.4806,-0.4627,-0.4612,-0.4642,-0.4668,-0.4753,-0.4868,-0.7821,-0.7511,-0.7208,-0.7059,-0.6971,-0.6804,-0.6704,-0.6722,-0.6534,-0.6523,-0.663,-0.663,-0.6738,-0.6921,-0.6903,0.0,0.0,-0.6928,-0.6997,-0.6992,-0.7022,-0.7004,-0.6992,-0.7004,-0.7004,-0.6984,-0.6984,-0.6984,-0.6993,-0.6824,-0.6717,-0.6704,-0.6237,-0.5972,-0.5933,-0.5817,-0.5805,-0.5947,-0.5804,-0.57,-0.5613,-0.5491,-0.5311,-0.512,-0.5015,-0.4769,-0.4439,-0.4186,-0.3969,-0.3809,-0.3681,-0.3558,-0.3452,0.0,0.0,0.0,0.0,0.0,0.0,0.0,0.0,0.0,0.0,0.0,0.0,0.0,0.0,0.0,-0.2884,0.0,-0.2829,-0.2835,0.0,0.0,0.0,-0.3173,-0.3238,-0.3541,-0.3809,-0.4077,0.0,0.0,0.0,0.0,-0.5501,-0.6287,-0.624,-0.6356,-0.6928,-0.6992,-0.7038,-0.7291,-0.7287,-0.7373,-0.7622,-0.7429,-0.7116,-0.6832,-0.6771,-0.6632,-0.6282,-0.62,-0.612,-0.5944,-0.6029,-0.6072,-0.593,-0.5971,-0.5958,-0.5505,-0.5509,-0.5586,-0.5461,-0.5484,-0.5538,-0.7943,-0.7862,-0.7797,-0.7467,-0.6988,-0.6961,-0.6944,-0.6922,-0.6878,-0.6875,-0.6892,-0.6892,-0.6931,-0.6988,-0.6972,-0.6958,-0.6926,-0.6985,-0.6984,-0.7018,-0.7098,-0.7108,-0.7014,-0.7116,-0.7108,-0.701,-0.6984,-0.6984,-0.6984,-0.6947,-0.6926,-0.6936,-0.6783,-0.6579,-0.6294,-0.6156,-0.6157,-0.6286,-0.6155,-0.5922,-0.5596,-0.5567,-0.547,-0.5341,-0.5291,-0.5042,-0.458,-0.4499,-0.4279,-0.3898,-0.385,-0.3821,-0.3767,-0.3779,0.0,0.0,0.0,0.0,0.0,0.0,0.0,0.0,0.0,-0.3116,-0.2992,0.0,-0.2891,0.0,-0.3018,-0.3056,-0.3093,-0.3195,0.0,0.0,-0.3391,-0.348,-0.3641,-0.3734,-0.3894,-0.4224,-0.4417,-0.4718,-0.5199,-0.5226,-0.5479,-0.6206,-0.6425,-0.6624,-0.6948,-0.7308,-0.7606,-0.7806,-0.7816,-0.7834,-0.7894,-0.7732,-0.7499,-0.727,-0.7318,-0.7225,-0.6811,-0.6794,-0.6727,-0.6324,-0.6229,-0.6199,-0.6099,-0.6199,-0.6368,-0.6344,-0.6164,-0.5974,-0.5961,-0.6168,-0.6371,-0.8232,-0.8138,-0.8138,-0.7858,-0.7446,-0.7442,-0.742,-0.737,-0.737,-0.7302,-0.7206,-0.7229,-0.7229,-0.7224,-0.7229,-0.7206,-0.7229,-0.7224,-0.721,-0.7233,-0.7312,-0.7285,-0.7229,-0.7308,-0.7285,-0.7229,-0.7224,-0.7224,-0.7202,-0.7129,-0.7074,-0.7092,-0.7029,-0.689,-0.666,-0.6498,-0.6457,-0.6521,-0.6303,-0.6079,-0.5877,-0.5696,-0.5567,-0.5491,-0.5359,-0.5074,-0.4717,-0.4579,-0.4355,-0.402,-0.3932,-0.3903,-0.3903,-0.3903,-0.3873,0.0,0.0,0.0,0.0,0.0,0.0,0.0,0.0,0.0,0.0,0.0,-0.3006,0.0,-0.3199,0.0,-0.3281,-0.3349,-0.3452,-0.3614,-0.366,-0.3778,-0.3997,-0.4129,-0.4274,-0.4449,-0.4647,-0.4901,-0.5248,-0.5279,-0.5498,-0.6045,-0.6465,-0.6822,-0.7056,-0.7474,-0.7805,-0.8017,-0.8116,-0.8199,-0.8255,-0.8249,-0.8115,-0.7843,-0.7805,-0.7736,-0.7397,-0.7395,-0.7357,-0.7088,-0.7027,-0.6979,-0.6937,-0.6984,-0.7108,-0.7176,-0.7069,-0.6845,-0.6641,-0.6763,-0.688,-0.8497,-0.835,-0.8325,-0.8231,-0.806,-0.8085,-0.7996,-0.7833,-0.7809,-0.7739,-0.7568,-0.7549,-0.7549,-0.7568,-0.7549,-0.7572,-0.7572,-0.7572,-0.7553,-0.7568,-0.7549,-0.7572,-0.7568,-0.7572,-0.7541,-0.7521,-0.7536,-0.7528,-0.7514,-0.7334,-0.7238,-0.723,-0.7116,-0.7057,-0.7049,-0.6864,-0.6741,-0.6692,-0.6396,-0.6234,-0.6198,-0.5864,-0.5646,-0.56,-0.5319,-0.5057,-0.4844,-0.459,-0.4368,-0.4169,-0.4024,-0.3951,-0.3951,-0.398,-0.397,0.0,-0.3882,0.0,0.0,0.0,0.0,0.0,0.0,0.0,0.0,-0.3142,-0.3151,-0.3346,-0.3381,-0.342,-0.345,-0.347,-0.3576,-0.3846,-0.3917,-0.4062,-0.4336,-0.4565,-0.472,-0.4757,-0.4937,-0.5132,-0.5354,-0.5417,-0.5576,-0.5989,-0.6562,-0.7006,-0.725,-0.7609,-0.7926,-0.8032,-0.8284,-0.8526,-0.8683,-0.8814,-0.8781,-0.8386,-0.8291,-0.8223,-0.7955,-0.7915,-0.7915,-0.7871,-0.7823,-0.7845,-0.79,-0.7867,-0.7871,-0.7874,-0.787,-0.7725,-0.7388,-0.7332,-0.7276,-0.8566,-0.8559,-0.8533,-0.8517,-0.8484,-0.8484,-0.8272,-0.7943,-0.7963,-0.7943,-0.7914,-0.789,-0.791,-0.7914,-0.791,-0.791,-0.791,-0.791,-0.7914,-0.789,-0.7914,-0.791,-0.7894,-0.791,-0.7841,-0.7755,-0.7747,-0.765,-0.7503,-0.7447,-0.7435,-0.7435,-0.7418,-0.7401,-0.7393,0.0,0.0,0.0,-0.6621,-0.6482,-0.6218,-0.6128,-0.5947,-0.56,-0.553,0.0,-0.5054,-0.4836,-0.4642,-0.4507,-0.4325,0.0,0.0,0.0,0.0,0.0,0.0,0.0,0.0,0.0,0.0,0.0,-0.3409,-0.3272,-0.3416,-0.3427,-0.3365,-0.3256,-0.3401,-0.3576,-0.3774,-0.382,-0.3932,-0.4234,-0.4286,-0.4375,-0.4593,-0.4669,-0.4818,-0.5165,-0.5223,-0.5398,-0.5699,-0.5721,-0.5828,-0.6324,-0.6828,-0.7218,-0.7507,-0.792,-0.8199,-0.8265,-0.8576,-0.8888,-0.9131,-0.9213,-0.913,-0.8863,-0.8758,-0.86,-0.8248,-0.8157,-0.8072,-0.7966,-0.79,-0.7922,-0.7922,-0.79,-0.7988,-0.8113,-0.8157,-0.8064,-0.782,-0.7901,-0.7941,-0.8616,0.0,-0.8616,-0.8616,0.0,-0.8616,-0.848,-0.8301,-0.8191,-0.8076,-0.7991,-0.7991,-0.7991,-0.7991,-0.7991,-0.7991,-0.7991,-0.7991,-0.7991,-0.7991,-0.7991,-0.7991,-0.7991,-0.7991,-0.7967,-0.7906,-0.7906,-0.7817,-0.7646,-0.7657,-0.7616,-0.7499,-0.7499,-0.7499,-0.7499,-0.7399,-0.7175,-0.6849,-0.6853,-0.6756,-0.6594,-0.6404,-0.6176,-0.5906,0.0,0.0,0.0,0.0,0.0,0.0,0.0,0.0,0.0,0.0,0.0,-0.4612,-0.4562,-0.4506,-0.4414,-0.4202,-0.4044,-0.3874,-0.3663,-0.3545,-0.3519,-0.3592,-0.359,-0.3515,-0.3668,-0.3859,-0.3978,-0.4079,-0.425,-0.4496,-0.4618,-0.4774,-0.4951,-0.5071,-0.521,-0.5401,-0.5462,-0.5573,-0.5841,-0.5931,-0.6179,-0.6728,-0.7144,-0.7526,-0.7859,-0.8206,-0.8513,-0.8772,-0.9031,-0.9297,-0.941,-0.9454,-0.9367,-0.9148,-0.9108,-0.8955,-0.8622,-0.8556,-0.849,-0.8296,-0.8256,-0.8234,-0.8234,-0.8256,-0.83,-0.8384,-0.8468,-0.8512,-0.8406,-0.8468,-0.8514,-0.8616,-0.8616,-0.8616,-0.8616,-0.8616,-0.8616,-0.8616,-0.8578,0.0,0.0,0.0,-0.8109,-0.8109,-0.8089,-0.8089,-0.8113,-0.8113,-0.8113,-0.8093,-0.8113,-0.8109,-0.8109,-0.8113,-0.8093,-0.8072,-0.804,-0.8065,-0.7975,-0.7829,-0.7821,-0.7747,-0.759,-0.7549,-0.7532,-0.7503,-0.7499,-0.7361,-0.7098,-0.7053,-0.702,-0.6988,-0.6684,-0.6404,-0.6238,-0.5909,-0.5581,-0.5245,-0.5181,-0.5168,-0.5175,-0.4923,-0.4871,-0.4976,-0.4857,-0.4756,-0.472,-0.4593,-0.4512,-0.4494,-0.4313,-0.4149,-0.4006,-0.3951,-0.3802,-0.3585,-0.3704,-0.3821,-0.3841,-0.4014,-0.4156,-0.4199,-0.4386,-0.456,-0.4781,-0.4949,-0.5124,-0.5323,-0.5501,-0.5579,-0.5657,-0.5657,-0.5763,-0.6041,-0.6199,-0.6505,-0.7082,-0.7456,-0.7813,-0.8201,-0.8482,-0.8789,-0.9157,-0.9401,-0.9602,-0.9668,-0.9668,-0.9585,-0.9393,-0.9345,-0.9262,-0.9043,-0.8955,-0.8889,-0.8758,-0.8722,-0.8722,-0.8718,-0.8718,-0.8718,-0.8718,-0.8867,-0.8955,-0.8955,-0.8995,-0.9017,-0.8616,-0.8616,-0.8616,-0.8616,-0.8616,-0.8616,-0.8616,-0.8608,-0.8584,-0.8537,-0.8509,-0.8513,-0.8513,-0.8513,-0.8513,-0.8509,-0.8513,-0.8513,-0.8509,0.0,-0.8513,-0.8513,-0.8531,-0.8513,-0.8427,-0.826,-0.8251,-0.8158,-0.7996,-0.7955,-0.7963,-0.7923,-0.7833,-0.7682,-0.7535,-0.7499,-0.7475,-0.7426,-0.7261,-0.711,-0.6992,-0.6945,-0.6756,-0.6378,-0.6317,-0.6093,-0.5721,-0.5546,-0.5453,-0.5436,-0.5308,-0.5159,-0.5023,-0.5028,-0.4971,-0.4833,-0.4868,-0.4906,-0.4906,-0.473,-0.4523,-0.4341,-0.4336,-0.4168,-0.3802,-0.3763,-0.3862,-0.4042,-0.421,-0.4363,-0.4584,-0.4753,-0.493,-0.519,-0.5246,-0.5343,-0.5555,-0.5613,-0.573,-0.5889,-0.5844,-0.61,-0.657,-0.6698,-0.6906,-0.7428,-0.7794,-0.809,-0.8472,-0.8718,-0.8955,-0.9235,-0.9471,-0.9689,-0.9864,-0.9951,-0.982,-0.9607,-0.9559,-0.9498,-0.9284,-0.924,-0.9213,-0.9196,-0.9152,-0.9174,-0.9174,-0.9196,-0.9174,-0.9152,-0.9196,-0.924,-0.9235,-0.9362,-0.9432,-0.8718,-0.8612,-0.8616,-0.8616,-0.8616,-0.8616,-0.8616,-0.8616,-0.8616,-0.8616,-0.8616,-0.8616,-0.8656,-0.8758,-0.8762,-0.8845,-0.8981,-0.8981,-0.8981,-0.8977,-0.8981,-0.8981,-0.8981,-0.8981,-0.8843,-0.8633,-0.8633,-0.8473,-0.8199,-0.8166,-0.8113,-0.8012,-0.7931,-0.7874,-0.7768,-0.7699,-0.765,-0.7646,-0.7456,-0.734,-0.7282,-0.7151,-0.6916,-0.6514,-0.6447,-0.6233,-0.5818,-0.5713,-0.5681,-0.576,-0.5613,-0.5501,-0.5485,-0.5294,-0.5155,-0.5062,-0.5024,-0.4998,-0.4998,-0.482,-0.4707,-0.4686,-0.4572,-0.4456,-0.429,-0.4266,-0.4274,-0.4378,-0.4586,-0.4833,-0.5049,-0.5237,-0.5431,-0.5699,-0.5828,-0.5989,-0.6156,-0.6334,-0.6495,-0.6679,-0.6699,-0.6808,-0.7086,-0.7186,-0.7357,-0.7765,-0.8111,-0.8431,-0.8727,-0.8955,-0.9148,-0.9301,-0.958,-0.982,-0.9994,-1.0016,-0.9924,-0.982,-0.9816,-0.9711,-0.9515,-0.9476,-0.9432,-0.9327,-0.9305,-0.9305,-0.9305,-0.9305,-0.9305,-0.9305,-0.9388,-0.9454,-0.9493,-0.9646,-0.9755,-0.8823,-0.8652,-0.8608,-0.8616,-0.8616,-0.8616,-0.8616,-0.8616,-0.8616,-0.863,-0.8678,-0.8652,-0.8784,-0.8977,-0.8999,-0.9087,-0.9279,-0.9305,-0.9305,-0.9305,-0.9305,-0.9305,-0.9305,-0.9305,-0.9196,-0.8999,-0.8933,-0.8726,-0.8451,-0.8396,-0.8256,-0.8072,-0.8056,-0.8036,-0.7991,-0.7902,-0.7837,-0.7825,-0.7658,-0.7544,-0.7499,-0.7354,-0.7098,-0.669,-0.6574,-0.6324,-0.5959,-0.5905,-0.5959,-0.6052,-0.5931,-0.5844,-0.5873,-0.5612,-0.5418,-0.5359,-0.5168,-0.5048,-0.5034,-0.492,-0.4913,-0.5001,-0.4864,-0.48,-0.4848,-0.4837,-0.481,-0.4798,-0.5048,-0.5291,-0.5538,-0.571,-0.5949,-0.621,-0.6367,-0.6557,-0.6819,-0.705,-0.7219,-0.7368,-0.7388,-0.7413,-0.7518,-0.7612,-0.7827,-0.8176,-0.8483,-0.8736,-0.8959,-0.9218,-0.9349,-0.9432,-0.9738,-0.9973,-1.0016,-1.0016,-0.999,-1.0016,-0.9994,-0.9886,-0.9733,-0.9689,-0.9646,-0.9519,-0.9498,-0.9498,-0.9476,-0.948,-0.9502,-0.9519,-0.9607,-0.9694,-0.9711,-0.9842,-0.9994,-0.8893,-0.885,-0.8678,-0.8616,-0.8616,-0.8616,-0.8616,-0.8612,-0.8616,-0.8696,-0.8867,-0.8872,-0.9021,-0.9235,-0.9257,-0.9284,-0.9327,-0.9305,-0.9327,-0.9327,-0.9305,-0.9305,-0.9327,-0.9305,-0.9279,-0.924,-0.9021,-0.8899,-0.8803,-0.8663,-0.8464,-0.8305,-0.8264,-0.8182,-0.8016,-0.8004,-0.7988,-0.7988,-0.7841,-0.7694,-0.7511,-0.7487,-0.7264,-0.69,-0.6862,-0.667,-0.6257,-0.6259,-0.6262,-0.6256,-0.6234,-0.6144,-0.5941,-0.5847,-0.577,-0.5585,-0.5388,-0.5252,-0.5205,-0.5276,-0.5333,-0.5352,-0.5311,-0.5319,-0.5343,-0.54,-0.5403,-0.5404,-0.5488,-0.568,-0.5999,-0.615,-0.6369,-0.6631,-0.6711,-0.6843,-0.7262,-0.7347,-0.7388,-0.7388,-0.7488,-0.7528,-0.7887,-0.8006,-0.8219,-0.8691,-0.8816,-0.8977,-0.9218,-0.941,-0.9559,-0.9602,-0.982,-0.9994,-1.0016,-1.0016,-1.0016,-1.0016,-1.0016,-0.9973,-0.9929,-0.9929,-0.9924,-0.9842,-0.9886,-0.9864,-0.9886,-0.9951,-0.9907,-0.9842,-0.9886,-0.9951,-0.9951,-0.9973,-1.0016,-0.9224,-0.9037,-0.8741,-0.8616,-0.8616,-0.8616,-0.8616,-0.8608,-0.8718,-0.8915,-0.9152,-0.9257,-0.9384,-0.9471,-0.9471,-0.9563,-0.9716,-0.9716,-0.9716,-0.9711,-0.9711,-0.9711,-0.9716,-0.9711,-0.9629,-0.9498,-0.9362,-0.9152,-0.8911,-0.87,-0.8549,-0.8484,-0.8476,-0.8435,-0.8358,-0.8252,-0.8105,-0.8008,-0.7866,-0.7763,-0.7682,-0.7556,-0.7307,-0.6961,-0.6903,-0.6714,-0.6354,-0.628,-0.628,-0.628,-0.628,-0.6279,-0.6258,-0.6146,-0.6069,-0.6059,-0.589,-0.5772,-0.5744,-0.5655,-0.5611,-0.5681,-0.5559,-0.5544,-0.5791,-0.5845,-0.5938,-0.6164,-0.6038,-0.6069,-0.6458,-0.6651,-0.6897,-0.7127,-0.7311,-0.7544,-0.7844,-0.7866,-0.793,-0.8066,-0.8135,-0.8193,-0.8477,-0.8667,-0.8848,-0.9095,-0.9126,-0.9218,-0.9454,-0.9537,-0.9646,-0.982,-0.9951,-0.9994,-1.0016,-1.0016,-1.0016,-1.0016,-1.0016,-1.0016,-1.0016,-1.0016,-0.999,-1.0016,-1.0016,-1.0016,-0.9994,-1.0016,-1.0016,-1.0016,-1.0016,-1.0016,-1.0016,-1.0016,-1.0016,-0.9595,-0.9305,-0.892,-0.8704,-0.8659,-0.8726,-0.8741,-0.8718,-0.8911,-0.9152,-0.9393,-0.9537,-0.9646,-0.9711,-0.9711,-0.982,-0.9994,-1.0016,-1.0016,-1.0016,-1.0016,-1.0016,-1.0016,-1.0016,-0.9886,-0.9711,-0.9624,-0.9367,-0.8933,-0.8762,-0.8652,-0.8612,-0.8616,-0.8616,-0.8578,-0.8452,-0.83,-0.8166,-0.8016,-0.7927,-0.7902,-0.7743,-0.7446,-0.7068,-0.6945,-0.6733,-0.6412,-0.6319,-0.628,-0.628,-0.6334,-0.6405,-0.6484,-0.6394,-0.6362,-0.6374,-0.6319,-0.6218,-0.6155,-0.5978,-0.5931,-0.6016,-0.5854,-0.5872,-0.6104,-0.6194,-0.6371,-0.6675,-0.6526,-0.6564,-0.6928,-0.7124,-0.7345,-0.7635,-0.7874,-0.8069,-0.835,-0.8376,-0.85,-0.874,-0.8768,-0.885,-0.8999,-0.9144,-0.9275,-0.9367,-0.9388,-0.9454,-0.9646,-0.9711,-0.9777,-0.9977,-1.0016,-1.0016,-1.0016,-1.0016,-1.0016,-1.0016,-1.0016,-1.0016,-1.0016,-1.0016,-1.0016,-1.0016,-1.0016,-1.0016,-1.0016,-1.0016,-1.0016,-1.0016,-1.0016,-1.0016,-1.0016,-1.0016,-1.0016,-1.0028,-0.9699,-0.9285,-0.8981,-0.8812,-0.9056,-0.9076,-0.8953,-0.917,-0.9424,-0.959,-0.963,-0.9764,-0.9979,-0.9993,-0.9982,-1.0021,-1.0045,-1.0054,-1.0032,-1.0023,-1.0004,-1.0016,-1.0016,-0.9987,-0.9981,-0.977,-0.9402,-0.8955,-0.8889,-0.878,-0.8608,-0.8616,-0.8616,-0.8612,-0.8592,-0.8588,-0.851,-0.8334,-0.8251,-0.8248,-0.8073,-0.7765,-0.741,-0.7071,-0.6833,-0.6616,-0.6403,-0.6306,-0.6303,-0.6456,-0.6531,-0.6532,-0.662,-0.6605,-0.6472,-0.6517,-0.6505,-0.6353,-0.6349,-0.6354,-0.6366,-0.6316,-0.6353,-0.6381,-0.6387,-0.652,-0.6792,-0.6966,-0.7146,-0.7415,-0.7503,-0.7698,-0.8069,-0.8179,-0.8402,-0.8802,-0.8845,-0.8999,-0.9174,-0.9218,-0.924,-0.9257,-0.9305,-0.9432,-0.9563,-0.9602,-0.9668,-0.9864,-0.9951,-0.9973,-0.9994,-1.0016,-1.0016,-1.0016,-1.0016,-1.0016,-1.0016,-1.0016,-1.0016,-1.0016,-1.0016,-1.0016,-1.0016,-1.0016,-1.0016,-1.0016,-1.0016,-1.0016,-1.0016,-1.0016,-1.0016,-1.0016,-1.0016,-1.0016,-1.0186,-0.986,-0.9679,-0.9562,-0.9529,-0.9617,-0.9623,-0.9544,-0.9763,-0.9922,-1.0008,-1.0171,-1.0303,-1.0366,-1.0393,-1.0304,-1.02,-1.0331,-1.0398,-1.037,-1.0393,-1.0398,-1.0398,-1.0393,-1.037,-1.0352,-1.0148,-0.9752,-0.92,-0.8977,-0.878,-0.8634,-0.8616,-0.8616,-0.8616,-0.8616,-0.8537,-0.8419,-0.8342,-0.8292,-0.828,-0.8105,-0.797,-0.7977,-0.7613,-0.7322,-0.7108,-0.7031,-0.7011,-0.7007,-0.7062,-0.7114,-0.7198,-0.72,-0.7185,-0.7098,-0.6991,-0.6886,-0.6806,-0.6716,-0.6656,-0.6634,-0.6476,-0.6498,-0.6612,-0.6678,-0.6814,-0.7149,-0.7304,-0.7521,-0.7848,-0.7962,-0.8091,-0.8398,-0.8578,-0.8775,-0.9038,-0.9152,-0.9196,-0.9301,-0.9388,-0.9498,-0.9541,-0.9646,-0.9755,-0.9825,-0.9868,-0.9907,-0.9973,-1.0016,-1.0016,-1.0016,-1.0016,-1.0016,-1.0016,-1.0016,-1.0016,-1.0016,-1.0016,-1.0016,-1.0016,-1.0016,-1.0016,-1.0016,-1.0016,-1.0016,-1.0016,-1.0016,-1.0016,-1.0016,-1.0016,-1.0016,-1.0016,-1.0016,-1.0016,-1.0456,-1.0196,-1.0116,-1.0029,-0.9976,-1.0051,-1.0058,-1.0027,-1.0227,-1.0343,-1.0362,-1.0524,-1.0593,-1.0607,-1.0692,-1.0631,-1.0508,-1.0569,-1.0593,-1.0593,-1.0593,-1.0593,-1.0593,-1.0593,-1.0593,-1.0574,-1.046,-1.0061,-0.9456,-0.9195,-0.8948,-0.8638,-0.8616,-0.8616,-0.8616,-0.8616,-0.8543,-0.8419,-0.8403,-0.8403,-0.8387,-0.8277,-0.8247,-0.8341,-0.8132,-0.7845,-0.752,-0.743,-0.7388,-0.7392,-0.7433,-0.7538,-0.7677,-0.7661,-0.7635,-0.7591,-0.7452,-0.7341,-0.7341,-0.7234,-0.7168,-0.7146,-0.701,-0.6966,-0.7149,-0.7168,-0.7323,-0.7569,-0.7702,-0.7896,-0.8219,-0.8398,-0.8508,-0.8706,-0.8907,-0.913,-0.9345,-0.9388,-0.9432,-0.9541,-0.9646,-0.9711,-0.9733,-0.9886,-0.9973,-1.0016,-1.0016,-1.0016,-1.0016,-1.0016,-1.0016,-1.0016,-1.0016,-1.0016,-1.0016,-1.0016,-1.0016,-1.0016,-1.0016,-1.0016,-1.0016,-1.0016,-1.0016,-1.0016,-1.0016,-1.0016,-1.0016,-1.0016,-1.0016,-1.0016,-1.0016,-1.0016,-1.0016,-1.0016,-1.0016,-1.0792,-1.0745,-1.0507,-1.0321,-1.0247,-1.0414,-1.0405,-1.0315,-1.0524,-1.0622,-1.0636,-1.0636,-1.0669,-1.0669,-1.0844,-1.0891,-1.0844,-1.0735,-1.0664,-1.0659,-1.065,-1.065,-1.0655,-1.0669,-1.0645,-1.0631,-1.0607,-1.0255,-0.966,-0.9539,-0.9237,-0.8737,-0.8598,-0.8616,-0.8616,-0.8612,-0.8612,-0.8592,-0.8562,-0.857,-0.8612,-0.8554,-0.8563,-0.8592,-0.8554,-0.827,-0.7758,-0.758,-0.7499,-0.7503,-0.7591,-0.7702,-0.7895,-0.7918,-0.7878,-0.79,-0.7878,-0.7878,-0.7856,-0.783,-0.7768,-0.7768,-0.783,-0.7735,-0.7713,-0.7738,-0.78,-0.7836,-0.8015,-0.8271,-0.8499,-0.8717,-0.8873,-0.8933,-0.9148,-0.9367,-0.9563,-0.9607,-0.9716,-0.9886,-0.9951,-0.9994,-0.9994,-0.9994,-1.0016,-1.0016,-1.0016,-1.0016,-1.0016,-1.0016,-1.0016,-1.0016,-1.0016,-1.0016,-1.0016,-1.0016,-1.0016,-1.0016,-1.0016,-1.0016,-1.0016,-1.0016,-1.0016,-1.0016,-1.0016,-1.0016,-1.0016,-1.0016,-1.0016,-1.0016,-1.0016,-1.0016,-1.0016,-1.0016,-1.0016,-1.1076,-1.1076,-1.0973,-1.0916,-1.088,-1.0953,-1.096,-1.0908,-1.0976,-1.1029,-1.1,-1.1029,-1.1029,-1.1033,-1.1075,-1.1123,-1.1094,-1.1028,-1.1,-1.1014,-1.099,-1.0986,-1.1014,-1.0995,-1.0953,-1.0816,-1.0797,-1.0543,-1.0071,-0.9745,-0.9387,-0.9044,-0.8732,-0.8616,-0.8612,-0.8616,-0.8616,-0.8616,-0.8616,-0.8616,-0.8616,-0.8616,-0.8616,-0.8616,-0.8612,-0.8503,-0.8341,-0.8251,-0.8229,-0.8217,-0.8273,-0.8311,-0.8332,-0.8204,-0.8116,-0.8094,-0.7984,-0.79,-0.79,-0.7922,-0.7944,-0.7922,-0.7922,-0.7833,-0.7721,-0.7735,-0.7776,-0.7808,-0.7955,-0.8161,-0.8396,-0.8753,-0.9056,-0.9335,-0.9454,-0.9598,-0.982,-0.9864,-0.9907,-0.9973,-1.0016,-1.0016,-1.0016,-1.0016,-1.0016,-1.0016,-1.0016,-1.0016,-1.0016,-1.0038,-1.0016,-1.0016,-1.0016,-1.0081,-1.0125,-1.0147,-1.0098,-1.006,-1.0038,-1.0016,-1.0016,-1.0016,-1.0016,-1.0016,-1.0016,-1.0016,-1.0016,-1.0016,-1.0016,-1.0016,-1.0016,-1.0016,-1.0016,-1.0016,-1.0016,-1.1419,-1.1512,-1.1512,-1.1487,-1.1492,-1.1487,-1.1487,-1.1487,-1.1512,-1.1487,-1.1512,-1.1512,-1.1512,-1.1487,-1.1492,-1.1512,-1.1487,-1.1389,-1.1345,-1.1321,-1.1218,-1.1194,-1.1194,-1.1194,-1.1142,-1.1033,-1.1009,-1.0753,-1.0323,-1.0051,-0.9734,-0.9362,-0.9001,-0.878,-0.8704,-0.8634,-0.8616,-0.8616,-0.8616,-0.8616,-0.8616,-0.8616,-0.8616,-0.8616,-0.8616,-0.8616,-0.8616,-0.8616,-0.8616,-0.8616,-0.8616,-0.8616,-0.859,-0.8428,-0.838,-0.8424,-0.8358,-0.8314,-0.838,-0.849,-0.8424,-0.8424,-0.8424,-0.8384,-0.8259,-0.8213,-0.826,-0.8307,-0.8338,-0.8446,-0.8766,-0.8939,-0.9282,-0.9682,-0.9614,-0.9758,-1.0026,-1.0212,-1.0255,-1.0277,-1.0185,-1.0142,-1.0098,-1.0038,-1.0016,-1.0016,-1.0016,-1.006,-1.0081,-1.0125,-1.0147,-1.0212,-1.0321,-1.0342,-1.0299,-1.0277,-1.0229,-1.0147,-1.006,-1.0038,-1.0016,-1.0016,-1.0016,-1.0016,-1.0016,-1.0016,-1.0016,-1.0016,-1.0016,-1.0016,-1.006,-1.0016,-1.0016,-1.0016,-1.0016,-1.1761,-1.198,-1.198,-1.1956,-1.1956,-1.1956,-1.1932,-1.198,-1.1956,-1.1951,-1.1951,-1.1907,-1.1956,-1.1956,-1.1907,-1.1907,-1.1932,-1.1736,-1.159,-1.1512,-1.1365,-1.1243,-1.1194,-1.1194,-1.1179,-1.117,-1.117,-1.0959,-1.058,-1.0445,-1.0229,-0.9712,-0.9375,-0.9142,-0.8975,-0.8756,-0.8678,-0.8656,-0.8634,-0.8634,-0.8612,-0.8616,-0.8616,-0.8616,-0.8616,-0.8616,-0.8616,-0.8616,-0.8616,-0.8616,-0.8616,-0.8612,-0.8608,-0.8612,-0.8692,-0.8867,-0.8911,-0.8995,-0.9196,-0.9152,-0.917,-0.9152,-0.9148,-0.9292,-0.9087,-0.9009,-0.9031,-0.9069,-0.8976,-0.907,-0.9398,-0.9461,-0.9584,-0.986,-0.9837,-0.9918,-1.026,-1.0533,-1.0603,-1.0619,-1.0467,-1.0316,-1.0316,-1.019,-1.0125,-1.0098,-1.012,-1.0207,-1.0272,-1.0364,-1.0456,-1.0546,-1.0618,-1.0715,-1.0698,-1.0738,-1.0689,-1.0585,-1.0394,-1.0166,-1.0052,-1.0016,-1.006,-1.0055,-1.0081,-1.006,-1.0103,-1.0168,-1.0185,-1.0207,-1.0164,-1.006,-1.0077,-1.012,-1.0098,-1.1927,-1.2005,-1.2005,-1.2005,-1.2005,-1.2005,-1.2005,-1.2005,-1.2005,-1.2029,-1.2005,-1.2005,-1.2029,-1.2005,-1.2005,-1.2005,-1.2005,-1.1927,-1.1756,-1.1609,-1.1536,-1.137,-1.1243,-1.1194,-1.1194,-1.1194,-1.1194,-1.1141,-1.0982,-1.0683,-1.0431,-1.0251,-0.9756,-0.948,-0.9392,-0.92,-0.9007,-0.8845,-0.8823,-0.874,-0.8608,-0.8612,-0.8616,-0.8616,-0.8616,-0.8616,-0.8616,-0.8616,-0.8616,-0.8616,-0.8616,-0.8678,-0.8784,-0.8802,-0.8911,-0.913,-0.9196,-0.9218,-0.9284,-0.9323,-0.9327,-0.9305,-0.9367,-0.9244,-0.9094,-0.9085,-0.9103,-0.9164,-0.9199,-0.9385,-0.9639,-0.9799,-1.0027,-1.0356,-1.0324,-1.0316,-1.0551,-1.0641,-1.0711,-1.0711,-1.0666,-1.0633,-1.0621,-1.0573,-1.0529,-1.0507,-1.0512,-1.0534,-1.0644,-1.0683,-1.0789,-1.0841,-1.0934,-1.1042,-1.1136,-1.1182,-1.1179,-1.1101,-1.0805,-1.0386,-1.019,-1.0016,-1.0098,-1.0185,-1.025,-1.0272,-1.0424,-1.0554,-1.0511,-1.0402,-1.0446,-1.0402,-1.0402,-1.0424,-1.0294,-1.2224,-1.2346,-1.2346,-1.2346,-1.2346,-1.2322,-1.2346,-1.2322,-1.2316,-1.2346,-1.2316,-1.2322,-1.2322,-1.2346,-1.2346,-1.2351,-1.2346,-1.2219,-1.2073,-1.1932,-1.1712,-1.1438,-1.1243,-1.1194,-1.1194,-1.1194,-1.1194,-1.1194,-1.115,-1.0925,-1.0774,-1.0601,-1.0207,-0.9898,-0.9687,-0.9531,-0.931,-0.9099,-0.9065,-0.8959,-0.874,-0.8718,-0.8674,-0.8634,-0.8616,-0.8616,-0.8616,-0.8616,-0.8616,-0.8616,-0.8612,-0.8696,-0.8867,-0.8911,-0.9065,-0.9362,-0.9432,-0.9454,-0.9563,-0.9607,-0.9607,-0.9607,-0.9607,-0.9591,-0.9568,-0.9531,-0.959,-0.9812,-0.9791,-0.9927,-1.0205,-1.0434,-1.0757,-1.1169,-1.1148,-1.1083,-1.1115,-1.1256,-1.1285,-1.1279,-1.1213,-1.1124,-1.1124,-1.1047,-1.1003,-1.1001,-1.0987,-1.1049,-1.1138,-1.1124,-1.1162,-1.1285,-1.1398,-1.1538,-1.1636,-1.1678,-1.1546,-1.1482,-1.1281,-1.0815,-1.0386,-1.0156,-1.0195,-1.0325,-1.0407,-1.0533,-1.0668,-1.0754,-1.0663,-1.0619,-1.0711,-1.0706,-1.0663,-1.0624,-1.0516,-1.2594,-1.2813,-1.2837,-1.2837,-1.2861,-1.288,-1.2886,-1.2861,-1.2856,-1.2861,-1.2856,-1.288,-1.2861,-1.2861,-1.2856,-1.2832,-1.2813,-1.2589,-1.2443,-1.2224,-1.1932,-1.1565,-1.1389,-1.1243,-1.1218,-1.1194,-1.1194,-1.1194,-1.1189,-1.116,-1.1099,-1.0895,-1.0634,-1.037,-1.0108,-0.9849,-0.9602,-0.9433,-0.9389,-0.9231,-0.9012,-0.8955,-0.8845,-0.8674,-0.8612,-0.8612,-0.8616,-0.8612,-0.8608,-0.863,-0.863,-0.8762,-0.8933,-0.8977,-0.9235,-0.9602,-0.9728,-0.9798,-1.0016,-1.0081,-1.0081,-1.0081,-1.0081,-1.0142,-1.0226,-1.0233,-1.0331,-1.0544,-1.0517,-1.0701,-1.1077,-1.1331,-1.1668,-1.2053,-1.2182,-1.2106,-1.2002,-1.2058,-1.2163,-1.214,-1.1895,-1.1808,-1.1699,-1.1612,-1.1477,-1.1471,-1.1474,-1.1509,-1.1577,-1.1594,-1.1726,-1.1916,-1.2005,-1.2085,-1.214,-1.2172,-1.1971,-1.1804,-1.1646,-1.1281,-1.0701,-1.0465,-1.0411,-1.0471,-1.0634,-1.0759,-1.0846,-1.0846,-1.084,-1.0841,-1.0933,-1.0862,-1.0792,-1.0776,-1.0694,-1.2837,-1.305,-1.3031,-1.3152,-1.3346,-1.3346,-1.3346,-1.3322,-1.3322,-1.3298,-1.3346,-1.3346,-1.3322,-1.3316,-1.3298,-1.3219,-1.305,-1.2929,-1.2783,-1.237,-1.2078,-1.1907,-1.1736,-1.1468,-1.1218,-1.1243,-1.1218,-1.1218,-1.1218,-1.1267,-1.1204,-1.1142,-1.1,-1.0787,-1.0679,-1.0496,-1.0177,-0.984,-0.9781,-0.9593,-0.9292,-0.9231,-0.9121,-0.8879,-0.8721,-0.8624,-0.8616,-0.8616,-0.8678,-0.8806,-0.8884,-0.902,-0.9178,-0.9345,-0.9646,-0.9968,-1.0142,-1.025,-1.0467,-1.0516,-1.0559,-1.0516,-1.0494,-1.0554,-1.0598,-1.0613,-1.0716,-1.092,-1.1074,-1.1419,-1.1928,-1.2299,-1.2566,-1.2841,-1.3052,-1.3112,-1.3075,-1.2816,-1.2602,-1.2425,-1.2333,-1.2191,-1.2064,-1.2033,-1.1976,-1.1944,-1.195,-1.1962,-1.2012,-1.2044,-1.2176,-1.2346,-1.2357,-1.2373,-1.2433,-1.2443,-1.2335,-1.2167,-1.2034,-1.1828,-1.1253,-1.0935,-1.0982,-1.0923,-1.09,-1.1034,-1.1204,-1.1212,-1.1227,-1.1191,-1.1175,-1.12,-1.1166,-1.1059,-1.1026,-1.3171,-1.3273,-1.3292,-1.337,-1.3497,-1.3497,-1.3497,-1.3497,-1.3497,-1.3497,-1.3497,-1.3497,-1.3497,-1.3497,-1.3497,-1.3418,-1.3298,-1.3152,-1.2929,-1.2589,-1.2322,-1.22,-1.2102,-1.181,-1.159,-1.159,-1.1585,-1.1561,-1.1561,-1.1561,-1.1609,-1.159,-1.1468,-1.1394,-1.1287,-1.1159,-1.0872,-1.052,-1.0409,-1.0194,-0.9795,-0.971,-0.962,-0.9372,-0.9151,-0.9019,-0.905,-0.9046,-0.9087,-0.9218,-0.9368,-0.9455,-0.9481,-0.965,-0.9951,-1.0229,-1.0446,-1.0533,-1.0663,-1.0711,-1.0689,-1.0711,-1.0711,-1.0776,-1.086,-1.0928,-1.1137,-1.1316,-1.1591,-1.1957,-1.2524,-1.2926,-1.3222,-1.3481,-1.3622,-1.3727,-1.3752,-1.343,-1.3087,-1.2946,-1.2957,-1.281,-1.2688,-1.2552,-1.2455,-1.2443,-1.2412,-1.2431,-1.2428,-1.2455,-1.249,-1.2584,-1.2594,-1.2632,-1.2702,-1.2713,-1.2641,-1.256,-1.2456,-1.2268,-1.1929,-1.1718,-1.1608,-1.1476,-1.1347,-1.156,-1.1696,-1.1677,-1.1617,-1.167,-1.1669,-1.1671,-1.1638,-1.1569,-1.1596,-1.3515,-1.3563,-1.3563,-1.3593,-1.3606,-1.3636,-1.366,-1.3636,-1.3636,-1.3684,-1.363,-1.3612,-1.3684,-1.3636,-1.366,-1.3636,-1.3491,-1.3298,-1.3055,-1.2837,-1.2638,-1.2511,-1.2419,-1.2248,-1.2127,-1.2127,-1.198,-1.1956,-1.1932,-1.198,-1.1883,-1.198,-1.1975,-1.1812,-1.1743,-1.1697,-1.1473,-1.112,-1.1044,-1.0834,-1.0394,-1.0297,-1.0177,-0.9877,-0.9646,-0.9507,-0.9503,-0.9534,-0.9579,-0.9605,-1.0,-1.0022,-0.9981,-0.9997,-1.0214,-1.0433,-1.0705,-1.0827,-1.0846,-1.0841,-1.0819,-1.0776,-1.0871,-1.0946,-1.1134,-1.1352,-1.1574,-1.1783,-1.2036,-1.239,-1.2872,-1.3284,-1.362,-1.3865,-1.3943,-1.4094,-1.4208,-1.3919,-1.365,-1.3506,-1.3414,-1.3313,-1.3185,-1.3049,-1.2982,-1.291,-1.2861,-1.2813,-1.2813,-1.2778,-1.2729,-1.2713,-1.2708,-1.2702,-1.2767,-1.2783,-1.2737,-1.2732,-1.2721,-1.26,-1.2437,-1.2325,-1.2116,-1.1886,-1.1848,-1.2,-1.2029,-1.1931,-1.1947,-1.2083,-1.2051,-1.1915,-1.1953,-1.2078,-1.205,-1.3636,-1.3835,-1.3835,-1.3973,-1.4154,-1.4154,-1.413,-1.4178,-1.413,-1.4184,-1.416,-1.4154,-1.4112,-1.4136,-1.416,-1.4046,-1.3781,-1.3545,-1.3298,-1.3098,-1.2977,-1.2905,-1.2759,-1.2686,-1.2662,-1.254,-1.2322,-1.2127,-1.2054,-1.2005,-1.2102,-1.2029,-1.2054,-1.2008,-1.1993,-1.1934,-1.1871,-1.1632,-1.1573,-1.1338,-1.1,-1.0827,-1.0641,-1.0268,-1.0001,-0.9894,-0.9872,-0.9855,-0.9907,-1.0093,-1.0158,-1.0403,-1.065,-1.0791,-1.0885,-1.092,-1.1129,-1.1249,-1.1238,-1.1213,-1.1213,-1.1261,-1.1351,-1.1469,-1.16,-1.1772,-1.1875,-1.2107,-1.2427,-1.2844,-1.3322,-1.3579,-1.392,-1.4154,-1.4256,-1.4328,-1.4472,-1.4376,-1.4118,-1.3973,-1.3883,-1.3738,-1.3569,-1.3394,-1.3298,-1.3147,-1.3026,-1.2929,-1.2861,-1.2832,-1.2772,-1.2767,-1.2772,-1.2772,-1.2783,-1.2783,-1.2778,-1.2778,-1.2772,-1.2772,-1.2662,-1.2719,-1.2581,-1.2292,-1.2131,-1.2163,-1.2164,-1.217,-1.2186,-1.2262,-1.2191,-1.2116,-1.2202,-1.2289,-1.2218,-1.3992,-1.4118,-1.4118,-1.4184,-1.4298,-1.4322,-1.4322,-1.4322,-1.4322,-1.4322,-1.4322,-1.4322,-1.4322,-1.4322,-1.4322,-1.416,-1.3925,-1.3786,-1.3563,-1.3364,-1.3298,-1.3273,-1.3152,-1.3128,-1.3152,-1.3104,-1.288,-1.2589,-1.2443,-1.2419,-1.2419,-1.2419,-1.2419,-1.2395,-1.2395,-1.2408,-1.2264,-1.2117,-1.2025,-1.1888,-1.152,-1.1386,-1.1077,-1.0772,-1.051,-1.0371,-1.0371,-1.0351,-1.0399,-1.0547,-1.0777,-1.1034,-1.1291,-1.1541,-1.1622,-1.1466,-1.161,-1.1754,-1.1731,-1.1726,-1.1677,-1.1536,-1.1655,-1.1623,-1.1612,-1.1704,-1.2025,-1.2294,-1.255,-1.2939,-1.3222,-1.3661,-1.3945,-1.4099,-1.4333,-1.4562,-1.4664,-1.4688,-1.458,-1.4406,-1.4202,-1.401,-1.3786,-1.3636,-1.3539,-1.3389,-1.3219,-1.3074,-1.2983,-1.288,-1.2832,-1.2772,-1.2767,-1.2735,-1.2713,-1.2686,-1.267,-1.2681,-1.2697,-1.2697,-1.2719,-1.271,-1.2705,-1.2578,-1.2483,-1.2343,-1.2472,-1.2508,-1.2465,-1.2422,-1.2438,-1.2449,-1.2478,-1.2472,-1.2413,-1.4322,-1.4322,-1.4322,-1.4322,-1.4322,-1.4322,-1.4322,-1.4322,-1.4322,-1.4322,-1.4322,-1.4322,-1.4322,-1.4322,-1.4274,-1.4184,-1.4003,-1.3973,-1.3829,-1.3617,-1.3569,-1.3569,-1.3491,-1.3497,-1.3443,-1.3394,-1.3394,-1.3298,-1.3007,-1.2934,-1.2934,-1.2934,-1.2934,-1.2934,-1.2934,-1.2832,-1.274,-1.2613,-1.2492,-1.2351,-1.2078,-1.1756,-1.1512,-1.1296,-1.1022,-1.0852,-1.0854,-1.0824,-1.0824,-1.0976,-1.1258,-1.1595,-1.1751,-1.2151,-1.2246,-1.2002,-1.2087,-1.2131,-1.2078,-1.2062,-1.1931,-1.1807,-1.1828,-1.1725,-1.1741,-1.1998,-1.2225,-1.2514,-1.2876,-1.3147,-1.3421,-1.3713,-1.3943,-1.4098,-1.441,-1.4729,-1.4806,-1.4846,-1.4866,-1.47,-1.4499,-1.4327,-1.4154,-1.3949,-1.3871,-1.3684,-1.3491,-1.3364,-1.3225,-1.3001,-1.2899,-1.2786,-1.2735,-1.2686,-1.2627,-1.2535,-1.2521,-1.2478,-1.2489,-1.2489,-1.2543,-1.2562,-1.2575,-1.2554,-1.2584,-1.2497,-1.2681,-1.2783,-1.2675,-1.2643,-1.274,-1.2745,-1.2654,-1.2643,-1.2627,-1.4322,-1.4322,-1.4322,-1.4322,-1.4322,-1.4322,-1.4322,-1.4322,-1.4322,-1.4322,-1.4322,-1.4322,-1.4322,-1.4322,-1.4322,-1.4274,-1.425,-1.4202,-1.4094,-1.3877,-1.3835,-1.3738,-1.3563,-1.3497,-1.3588,-1.3612,-1.3563,-1.3497,-1.3418,-1.3394,-1.337,-1.3352,-1.3322,-1.3394,-1.3298,-1.3147,-1.305,-1.2977,-1.2807,-1.2594,-1.2327,-1.1883,-1.1658,-1.1487,-1.1345,-1.1169,-1.1174,-1.1145,-1.1145,-1.1169,-1.1414,-1.1707,-1.1951,-1.2219,-1.2506,-1.2534,-1.249,-1.2309,-1.2186,-1.2175,-1.2148,-1.2087,-1.2179,-1.2251,-1.2245,-1.2478,-1.2765,-1.2993,-1.3391,-1.3619,-1.3685,-1.4005,-1.4184,-1.4315,-1.447,-1.4777,-1.4944,-1.5024,-1.5059,-1.5023,-1.4837,-1.4717,-1.459,-1.4364,-1.4184,-1.3973,-1.3781,-1.3601,-1.3387,-1.3109,-1.2896,-1.2798,-1.2725,-1.2652,-1.2625,-1.2543,-1.2487,-1.2387,-1.2407,-1.239,-1.2476,-1.2536,-1.2359,-1.2364,-1.2465,-1.2597,-1.2729,-1.2783,-1.2783,-1.2783,-1.2783,-1.2783,-1.2772,-1.2783,-1.2783,-1.4322,-1.4322,-1.4322,-1.4322,-1.4322,-1.4322,-1.4322,-1.4322,-1.4322,-1.4322,-1.4322,-1.4322,-1.4322,-1.4322,-1.4322,-1.4298,-1.4322,-1.4322,-1.4256,-1.4136,-1.4088,-1.407,-1.3992,-1.3943,-1.3943,-1.3913,-1.3962,-1.3992,-1.3895,-1.366,-1.3497,-1.3515,-1.3497,-1.3467,-1.3539,-1.3394,-1.3219,-1.3074,-1.2886,-1.2662,-1.2419,-1.2175,-1.198,-1.1829,-1.1712,-1.1561,-1.1438,-1.1438,-1.134,-1.1316,-1.1468,-1.1712,-1.198,-1.2248,-1.2516,-1.2754,-1.2697,-1.2589,-1.2526,-1.2489,-1.2389,-1.2309,-1.2368,-1.2364,-1.2438,-1.2622,-1.2934,-1.3146,-1.3345,-1.3567,-1.372,-1.3908,-1.4027,-1.4176,-1.4506,-1.4795,-1.504,-1.519,-1.5237,-1.5193,-1.5168,-1.501,-1.4805,-1.4453,-1.4231,-1.408,-1.3767,-1.3432,-1.324,-1.2985,-1.2839,-1.2757,-1.2695,-1.265,-1.2628,-1.2589,-1.2611,-1.2577,-1.2627,-1.2615,-1.2578,-1.2543,-1.238,-1.2431,-1.2616,-1.2735,-1.2778,-1.2783,-1.2783,-1.2783,-1.2783,-1.2783,-1.2783,-1.2783,-1.2783,-1.4322,-1.4322,-1.4322,-1.4322,-1.4322,-1.4322,-1.4322,-1.4322,-1.4322,-1.4322,-1.4322,-1.4322,-1.4322,-1.4322,-1.4322,-1.4322,-1.4322,-1.4322,-1.4322,-1.4322,-1.4322,-1.4298,-1.425,-1.4274,-1.4274,-1.4322,-1.4226,-1.4232,-1.4136,-1.3968,-1.3751,-1.3708,-1.3781,-1.3732,-1.3702,-1.3612,-1.3467,-1.3098,-1.2983,-1.2764,-1.2546,-1.2443,-1.2273,-1.2127,-1.2,-1.1883,-1.1639,-1.1585,-1.1463,-1.1292,-1.1468,-1.1688,-1.1883,-1.22,-1.2443,-1.2638,-1.2678,-1.2751,-1.2724,-1.2708,-1.2681,-1.2594,-1.2566,-1.2634,-1.2656,-1.2662,-1.2887,-1.3409,-1.3554,-1.3635,-1.3692,-1.3948,-1.4039,-1.426,-1.4523,-1.4818,-1.5088,-1.5229,-1.533,-1.5289,-1.5239,-1.5203,-1.4936,-1.4467,-1.4236,-1.4145,-1.3808,-1.3369,-1.3162,-1.3025,-1.298,-1.2968,-1.2916,-1.2864,-1.2853,-1.2802,-1.2785,-1.2757,-1.2811,-1.2803,-1.2745,-1.2633,-1.2494,-1.2621,-1.2756,-1.2675,-1.2592,-1.2702,-1.2783,-1.2783,-1.2783,-1.2783,-1.2783,-1.2783,-1.2783,-1.4322,-1.4322,-1.4322,-1.4322,-1.4322,-1.4322,-1.4322,-1.4322,-1.4322,-1.4322,-1.4322,-1.4322,-1.4322,-1.4322,-1.4322,-1.4322,-1.4322,-1.4322,-1.4322,-1.4322,-1.4322,-1.4322,-1.4322,-1.4322,-1.4322,-1.4322,-1.4322,-1.4322,-1.4298,-1.4232,-1.4178,-1.425,-1.4112,-1.4202,-1.4106,-1.3853,-1.3539,-1.3219,-1.3055,-1.2934,-1.274,-1.2565,-1.2419,-1.2346,-1.2127,-1.1883,-1.1634,-1.1639,-1.1487,-1.1243,-1.1414,-1.1585,-1.1731,-1.2097,-1.237,-1.2497,-1.2691,-1.2764,-1.2783,-1.2783,-1.2802,-1.2834,-1.288,-1.2986,-1.307,-1.3508,-1.3765,-1.3784,-1.3927,-1.4094,-1.4183,-1.4268,-1.4274,-1.4411,-1.4663,-1.4946,-1.5177,-1.531,-1.5385,-1.5351,-1.5368,-1.5358,-1.5322,-1.4914,-1.4559,-1.4469,-1.4199,-1.3764,-1.354,-1.3386,-1.3327,-1.3292,-1.324,-1.3205,-1.3182,-1.3147,-1.3128,-1.3048,-1.3049,-1.2957,-1.2877,-1.2749,-1.2774,-1.2645,-1.274,-1.2561,-1.2495,-1.267,-1.2778,-1.2783,-1.2783,-1.2783,-1.2783,-1.2783,-1.2783,-1.4322,-1.4322,-1.4322,-1.4322,-1.4322,-1.4322,-1.4322,-1.4322,-1.4322,-1.4322,-1.4322,-1.4322,-1.4322,-1.4322,-1.4322,-1.4322,-1.4322,-1.4322,-1.4322,-1.4322,-1.4322,-1.4322,-1.4322,-1.4322,-1.4322,-1.4322,-1.4322,-1.4322,-1.4322,-1.4322,-1.4322,-1.4298,-1.4322,-1.4298,-1.4184,-1.3919,-1.3558,-1.3346,-1.3074,-1.2886,-1.2813,-1.2735,-1.2662,-1.2613,-1.2594,-1.2248,-1.1927,-1.1858,-1.159,-1.134,-1.134,-1.1438,-1.1585,-1.1975,-1.2224,-1.24,-1.2643,-1.2764,-1.2783,-1.2807,-1.2856,-1.3001,-1.3074,-1.3225,-1.3467,-1.3811,-1.3997,-1.41,-1.4244,-1.434,-1.4316,-1.4437,-1.4564,-1.4661,-1.4859,-1.5168,-1.5362,-1.5505,-1.5584,-1.5635,-1.5608,-1.5598,-1.5534,-1.5435,-1.5091,-1.4806,-1.4493,-1.4211,-1.3929,-1.3805,-1.3783,-1.3798,-1.3793,-1.3827,-1.3815,-1.3653,-1.3492,-1.3444,-1.3378,-1.3344,-1.3333,-1.3231,-1.3194,-1.2972,-1.2809,-1.2791,-1.2766,-1.2783,-1.2797,-1.2807,-1.2783,-1.2783,-1.2783,-1.2783,-1.2783,-1.4322,-1.4322,-1.4322,-1.4322,-1.4322,-1.4322,-1.4322,-1.4322,-1.4322,-1.4322,-1.4322,-1.4322,-1.4322,-1.4322,-1.4322,-1.4322,-1.4322,-1.4322,-1.4322,-1.4322,-1.4322,-1.4322,-1.4322,-1.4322,-1.4322,-1.4322,-1.4322,-1.4322,-1.4322,-1.4322,-1.4322,-1.4322,-1.4322,-1.4322,-1.4208,-1.3877,-1.3563,-1.3418,-1.3152,-1.2861,-1.2807,-1.2783,-1.2783,-1.2735,-1.2662,-1.24,-1.2054,-1.1858,-1.1609,-1.134,-1.1243,-1.1316,-1.1512,-1.178,-1.2054,-1.2327,-1.257,-1.2789,-1.2783,-1.2807,-1.288,-1.305,-1.3219,-1.3467,-1.3762,-1.3985,-1.416,-1.4376,-1.4443,-1.4443,-1.4515,-1.4795,-1.4961,-1.5084,-1.5418,-1.5714,-1.5763,-1.5875,-1.5892,-1.5935,-1.5861,-1.5735,-1.5715,-1.5608,-1.5345,-1.5068,-1.4838,-1.4532,-1.4239,-1.4186,-1.4293,-1.4352,-1.4425,-1.4469,-1.4523,-1.4366,-1.4243,-1.4257,-1.4195,-1.4043,-1.3969,-1.3824,-1.3636,-1.343,-1.3274,-1.313,-1.3074,-1.3044,-1.2929,-1.2813,-1.2837,-1.2861,-1.2783,-1.2783,-1.2783,-1.4322,-1.4322,-1.4322,-1.4322,-1.4322,-1.4322,-1.4322,-1.4322,-1.4322,-1.4322,-1.4322,-1.4322,-1.4322,-1.4322,-1.4322,-1.4322,-1.4322,-1.4322,-1.4322,-1.4322,-1.4322,-1.4322,-1.4322,-1.4322,-1.4322,-1.4322,-1.4322,-1.4322,-1.4322,-1.4322,-1.4322,-1.4322,-1.4322,-1.4298,-1.4298,-1.4022,-1.3732,-1.3491,-1.3225,-1.2953,-1.2832,-1.2783,-1.2783,-1.2759,-1.2589,-1.2322,-1.2054,-1.1785,-1.1536,-1.1267,-1.1194,-1.1243,-1.1292,-1.1756,-1.2005,-1.2078,-1.2546,-1.2764,-1.2783,-1.2783,-1.2929,-1.3147,-1.337,-1.3659,-1.3925,-1.4141,-1.4418,-1.466,-1.4702,-1.4811,-1.5025,-1.5273,-1.5374,-1.5607,-1.5934,-1.6127,-1.6171,-1.619,-1.6226,-1.6146,-1.5941,-1.5808,-1.5801,-1.5731,-1.5534,-1.5322,-1.5153,-1.4907,-1.4621,-1.4666,-1.4844,-1.4895,-1.4996,-1.5028,-1.5061,-1.5031,-1.4983,-1.5038,-1.4894,-1.4636,-1.4463,-1.4316,-1.4112,-1.3901,-1.3636,-1.3418,-1.3346,-1.3322,-1.3177,-1.3055,-1.2958,-1.291,-1.2837,-1.2807,-1.2832,-1.4322,-1.4322,-1.4322,-1.4322,-1.4322,-1.4322,-1.4322,-1.4322,-1.4322,-1.4322,-1.4322,-1.4322,-1.4322,-1.4322,-1.4322,-1.4322,-1.4322,-1.4322,-1.4322,-1.4322,-1.4322,-1.4322,-1.4322,-1.4322,-1.4322,-1.4322,-1.4322,-1.4322,-1.4322,-1.4322,-1.4322,-1.4322,-1.4322,-1.4322,-1.4184,-1.3895,-1.3563,-1.3443,-1.3152,-1.2856,-1.2783,-1.2783,-1.2783,-1.2783,-1.254,-1.2268,-1.2,-1.1736,-1.1443,-1.1243,-1.1194,-1.1194,-1.1292,-1.1712,-1.198,-1.2102,-1.2492,-1.2789,-1.2832,-1.2905,-1.3098,-1.3357,-1.3622,-1.3958,-1.4374,-1.4478,-1.4702,-1.4902,-1.4993,-1.5122,-1.5342,-1.5615,-1.5781,-1.6049,-1.6314,-1.6473,-1.6526,-1.6534,-1.6495,-1.6319,-1.6126,-1.5975,-1.5928,-1.5908,-1.5754,-1.5644,-1.5517,-1.5497,-1.5292,-1.5354,-1.5483,-1.549,-1.5513,-1.5542,-1.5547,-1.5404,-1.5333,-1.532,-1.5201,-1.498,-1.4849,-1.4736,-1.4496,-1.4208,-1.3925,-1.369,-1.3612,-1.3539,-1.3443,-1.3322,-1.3331,-1.3175,-1.3031,-1.2977,-1.2929,-1.4322,-1.4322,-1.4322,-1.4322,-1.4322,-1.4322,-1.4322,-1.4322,-1.4322,-1.4322,-1.4322,-1.4322,-1.4322,-1.4322,-1.4322,-1.4322,-1.4322,-1.4322,-1.4322,-1.4322,-1.4322,-1.4322,-1.4322,-1.4322,-1.4322,-1.4322,-1.4322,-1.4322,-1.4322,-1.4322,-1.4322,-1.4322,-1.4322,-1.4322,-1.416,-1.3847,-1.3491,-1.337,-1.3104,-1.2807,-1.2783,-1.2783,-1.2783,-1.2691,-1.2473,-1.217,-1.1956,-1.1688,-1.1394,-1.1243,-1.1198,-1.1198,-1.137,-1.1644,-1.1961,-1.2151,-1.2467,-1.2821,-1.3054,-1.3283,-1.3524,-1.3787,-1.3954,-1.4294,-1.4712,-1.4822,-1.4973,-1.5149,-1.5279,-1.5499,-1.5715,-1.6009,-1.6342,-1.6586,-1.6727,-1.6862,-1.6912,-1.6902,-1.676,-1.6578,-1.6357,-1.6206,-1.6068,-1.6059,-1.5988,-1.5921,-1.5868,-1.5841,-1.5801,-1.5801,-1.5801,-1.5778,-1.5771,-1.573,-1.5689,-1.5635,-1.5594,-1.5594,-1.5458,-1.5291,-1.522,-1.5112,-1.4807,-1.4544,-1.4328,-1.4118,-1.3877,-1.3757,-1.3737,-1.3826,-1.3927,-1.3698,-1.3314,-1.321,-1.3195,-1.4322,-1.4322,-1.4322,-1.4322,-1.4322,-1.4322,-1.4322,-1.4322,-1.4322,-1.4322,-1.4322,-1.4322,-1.4322,-1.4322,-1.4322,-1.4322,-1.4322,-1.4322,-1.4322,-1.4322,-1.4322,-1.4322,-1.4322,-1.4322,-1.4322,-1.4322,-1.4322,-1.4322,-1.4322,-1.4322,-1.4322,-1.4322,-1.4322,-1.4322,-1.413,-1.3823,-1.3539,-1.337,-1.308,-1.2837,-1.2783,-1.2783,-1.2783,-1.2667,-1.2395,-1.2146,-1.1907,-1.1614,-1.1345,-1.1228,-1.1237,-1.1242,-1.1389,-1.1732,-1.1908,-1.2217,-1.2663,-1.3057,-1.3447,-1.3704,-1.404,-1.4282,-1.4402,-1.4687,-1.4921,-1.5131,-1.5264,-1.5492,-1.568,-1.5959,-1.6214,-1.657,-1.6925,-1.7075,-1.7179,-1.7257,-1.7295,-1.7234,-1.7053,-1.6846,-1.658,-1.6395,-1.6268,-1.6215,-1.6052,-1.5961,-1.5881,-1.5835,-1.5801,-1.5801,-1.5801,-1.5801,-1.5801,-1.5801,-1.5778,-1.5754,-1.573,-1.5689,-1.5713,-1.5594,-1.5547,-1.5434,-1.5159,-1.4921,-1.476,-1.4569,-1.4358,-1.4225,-1.411,-1.423,-1.4421,-1.4166,-1.3782,-1.3611,-1.3518,-1.4322,-1.4322,-1.4322,-1.4322,-1.4322,-1.4322,-1.4322,-1.4322,-1.4322,-1.4322,-1.4322,-1.4322,-1.4322,-1.4322,-1.4322,-1.4322,-1.4322,-1.4322,-1.4322,-1.4322,-1.4322,-1.4322,-1.4322,-1.4322,-1.4322,-1.4322,-1.4322,-1.431,-1.434,-1.434,-1.4358,-1.4322,-1.4377,-1.4358,-1.4166,-1.3781,-1.3623,-1.34,-1.3061,-1.2861,-1.2783,-1.2783,-1.2783,-1.2662,-1.2469,-1.2226,-1.1981,-1.1732,-1.1462,-1.1276,-1.1384,-1.1466,-1.1755,-1.2153,-1.2532,-1.3048,-1.3292,-1.3453,-1.3764,-1.4041,-1.4384,-1.4797,-1.5005,-1.5177,-1.5341,-1.5415,-1.5505,-1.5711,-1.6006,-1.6245,-1.6418,-1.6728,-1.7029,-1.7152,-1.7203,-1.7162,-1.7187,-1.7068,-1.6926,-1.6759,-1.6506,-1.6395,-1.6302,-1.6148,-1.5999,-1.5928,-1.5881,-1.5828,-1.5801,-1.5801,-1.5801,-1.5801,-1.5801,-1.5801,-1.5801,-1.5778,-1.5801,-1.5801,-1.5784,-1.5804,-1.5766,-1.5647,-1.5465,-1.5295,-1.5133,-1.5008,-1.4875,-1.4735,-1.4563,-1.473,-1.4855,-1.4568,-1.4294,-1.4113,-1.3947,-1.4322,-1.4322,-1.4322,-1.4322,-1.4322,-1.4322,-1.4322,-1.4322,-1.4322,-1.4322,-1.4322,-1.4322,-1.4322,-1.4322,-1.4322,-1.4322,-1.4322,-1.4322,-1.4322,-1.4322,-1.4322,-1.4322,-1.4322,-1.4322,-1.4322,-1.4322,-1.4322,-1.4364,-1.4431,-1.4582,-1.4636,-1.4648,-1.4618,-1.4539,-1.4387,-1.409,-1.3825,-1.3507,-1.3177,-1.2886,-1.2818,-1.2818,-1.2789,-1.2802,-1.262,-1.2446,-1.227,-1.2009,-1.18,-1.1614,-1.1732,-1.176,-1.2075,-1.2526,-1.3024,-1.3457,-1.348,-1.3774,-1.4103,-1.4338,-1.4758,-1.5147,-1.5486,-1.5597,-1.5644,-1.5694,-1.5741,-1.5878,-1.6215,-1.6506,-1.663,-1.6788,-1.695,-1.7089,-1.7021,-1.6921,-1.6854,-1.6794,-1.666,-1.6513,-1.6393,-1.6288,-1.6168,-1.6066,-1.5999,-1.6032,-1.5965,-1.5821,-1.5801,-1.5801,-1.5801,-1.5801,-1.5801,-1.5801,-1.5801,-1.5801,-1.5801,-1.5801,-1.5801,-1.5835,-1.5871,-1.5947,-1.5873,-1.5709,-1.5532,-1.5436,-1.532,-1.5171,-1.5052,-1.519,-1.5259,-1.5077,-1.4837,-1.462,-1.4434,-1.4262,-1.4262,-1.4286,-1.4322,-1.4322,-1.4322,-1.4322,-1.4322,-1.4322,-1.4322,-1.4322,-1.4322,-1.4322,-1.4322,-1.4322,-1.4322,-1.4322,-1.4322,-1.4322,-1.4322,-1.4322,-1.4322,-1.4322,-1.4322,-1.4322,-1.4322,-1.4334,-1.4407,-1.4702,-1.4853,-1.4968,-1.5107,-1.5052,-1.4926,-1.4713,-1.4423,-1.4179,-1.3976,-1.3502,-1.3136,-1.3011,-1.2929,-1.288,-1.2937,-1.2888,-1.2786,-1.2682,-1.2516,-1.2364,-1.223,-1.2177,-1.2147,-1.2552,-1.2967,-1.3451,-1.364,-1.3706,-1.4045,-1.442,-1.4667,-1.5003,-1.5385,-1.5764,-1.5823,-1.5813,-1.5833,-1.5882,-1.5953,-1.6225,-1.6403,-1.6559,-1.6782,-1.6982,-1.7023,-1.6947,-1.6887,-1.684,-1.6799,-1.6737,-1.6648,-1.6684,-1.6603,-1.6755,-1.6685,-1.6575,-1.6399,-1.6259,-1.6111,-1.5992,-1.5992,-1.5881,-1.5875,-1.5815,-1.5815,-1.5801,-1.5801,-1.5801,-1.5801,-1.5828,-1.5919,-1.6041,-1.6167,-1.6295,-1.6148,-1.597,-1.587,-1.5752,-1.5638,-1.5529,-1.5492,-1.5536,-1.5557,-1.5393,-1.5144,-1.4952,-1.3996,-1.402,-1.4208,-1.4322,-1.4322,-1.4322,-1.4322,-1.4322,-1.4322,-1.4322,-1.4322,-1.4322,-1.4322,-1.4322,-1.4322,-1.4322,-1.4322,-1.4322,-1.4322,-1.4322,-1.4322,-1.4322,-1.4322,-1.4322,-1.4322,-1.4322,-1.434,-1.4503,-1.4799,-1.501,-1.5131,-1.5131,-1.5161,-1.5119,-1.4997,-1.4758,-1.4567,-1.4419,-1.4138,-1.3801,-1.3697,-1.3642,-1.364,-1.3618,-1.356,-1.3353,-1.3186,-1.2956,-1.2766,-1.2632,-1.2715,-1.2966,-1.3357,-1.3709,-1.3933,-1.4046,-1.4035,-1.4329,-1.4677,-1.4908,-1.5192,-1.5577,-1.5865,-1.5891,-1.5912,-1.5885,-1.5945,-1.6025,-1.6154,-1.6313,-1.65,-1.6788,-1.7015,-1.6953,-1.6914,-1.6881,-1.6847,-1.6824,-1.6789,-1.6864,-1.6964,-1.7107,-1.7243,-1.724,-1.7156,-1.7022,-1.6916,-1.6767,-1.654,-1.642,-1.6128,-1.6061,-1.5875,-1.5841,-1.5868,-1.5928,-1.6001,-1.5955,-1.5955,-1.6081,-1.6259,-1.6589,-1.6873,-1.6593,-1.6391,-1.6388,-1.6362,-1.6202,-1.6104,-1.5945,-1.5908,-1.5976,-1.5893,-1.565,-1.5527,-1.378,-1.393,-1.4183,-1.4322,-1.4322,-1.4322,-1.4322,-1.4322,-1.4322,-1.4322,-1.4322,-1.4322,-1.4322,-1.4322,-1.4322,-1.4322,-1.4322,-1.4322,-1.4322,-1.4322,-1.4322,-1.4322,-1.4322,-1.4322,-1.4322,-1.4346,-1.46,-1.4823,-1.5028,-1.5312,-1.5481,-1.5433,-1.5433,-1.5384,-1.5286,-1.5116,-1.4985,-1.4866,-1.4718,-1.4632,-1.4457,-1.4325,-1.4108,-1.4061,-1.4014,-1.3857,-1.3732,-1.3503,-1.3293,-1.3172,-1.3237,-1.3357,-1.3637,-1.3927,-1.4116,-1.418,-1.4223,-1.4434,-1.4826,-1.5089,-1.5277,-1.5678,-1.5885,-1.5885,-1.5885,-1.5885,-1.5885,-1.5998,-1.6191,-1.6343,-1.6515,-1.6741,-1.699,-1.7068,-1.7031,-1.6999,-1.6936,-1.6891,-1.6914,-1.6996,-1.7145,-1.7363,-1.7449,-1.7474,-1.7396,-1.7321,-1.7281,-1.7161,-1.6979,-1.6878,-1.6585,-1.6355,-1.6266,-1.6219,-1.6313,-1.6333,-1.6302,-1.6235,-1.6128,-1.6506,-1.6866,-1.723,-1.7413,-1.7288,-1.7177,-1.7131,-1.7048,-1.6834,-1.6586,-1.6406,-1.6383,-1.6393,-1.6264,-1.6131,-1.5988,-1.364,-1.3924,-1.4189,-1.4322,-1.4322,-1.4322,-1.4322,-1.4322,-1.4322,-1.4346,-1.4394,-1.437,-1.4346,-1.4322,-1.4322,-1.4322,-1.4322,-1.4322,-1.4322,-1.4322,-1.4322,-1.4322,-1.4322,-1.4322,-1.434,-1.4527,-1.4817,-1.5125,-1.5403,-1.5638,-1.5783,-1.5873,-1.5843,-1.5777,-1.5614,-1.5529,-1.5449,-1.5309,-1.5245,-1.5333,-1.5136,-1.4863,-1.4624,-1.449,-1.4475,-1.4447,-1.4293,-1.4083,-1.3835,-1.3781,-1.375,-1.3776,-1.3846,-1.4056,-1.4137,-1.4196,-1.4196,-1.4488,-1.4853,-1.5035,-1.5384,-1.5705,-1.5832,-1.5885,-1.5885,-1.5885,-1.5885,-1.5971,-1.6164,-1.6318,-1.6465,-1.6691,-1.6949,-1.7187,-1.7165,-1.7153,-1.7101,-1.7074,-1.7182,-1.7257,-1.7509,-1.7753,-1.7846,-1.7839,-1.7782,-1.7692,-1.7567,-1.7381,-1.7266,-1.725,-1.7108,-1.6951,-1.6847,-1.6814,-1.6707,-1.6665,-1.6611,-1.6583,-1.656,-1.7032,-1.7436,-1.7688,-1.7949,-1.8124,-1.8024,-1.7789,-1.7644,-1.7429,-1.7186,-1.6915,-1.6789,-1.6743,-1.6551,-1.6418,-1.6371,-1.3483,-1.393,-1.4189,-1.4322,-1.4322,-1.4322,-1.4322,-1.4322,-1.4322,-1.4394,-1.4592,-1.4616,-1.4544,-1.4322,-1.4322,-1.4346,-1.4424,-1.437,-1.4322,-1.4322,-1.4322,-1.4322,-1.437,-1.4454,-1.4467,-1.4709,-1.5037,-1.5253,-1.5704,-1.5883,-1.5912,-1.5965,-1.5945,-1.5914,-1.587,-1.583,-1.584,-1.5743,-1.5755,-1.581,-1.5688,-1.5501,-1.5346,-1.5285,-1.5296,-1.5106,-1.4862,-1.4605,-1.4466,-1.4363,-1.424,-1.4137,-1.411,-1.4164,-1.4191,-1.4272,-1.4245,-1.4568,-1.4886,-1.5068,-1.5416,-1.5811,-1.5885,-1.5885,-1.5885,-1.5885,-1.5885,-1.5885,-1.6051,-1.6137,-1.6311,-1.6597,-1.6856,-1.718,-1.7311,-1.7402,-1.7433,-1.7613,-1.7821,-1.8034,-1.8318,-1.8543,-1.8774,-1.8741,-1.8657,-1.8573,-1.8437,-1.8213,-1.7778,-1.7684,-1.7582,-1.7458,-1.7353,-1.7061,-1.6807,-1.6871,-1.6862,-1.6854,-1.7006,-1.7514,-1.7871,-1.8053,-1.8286,-1.8531,-1.8485,-1.8259,-1.8093,-1.7964,-1.7747,-1.7477,-1.7219,-1.7067,-1.6869,-1.671,-1.6663]},{"header":{"parameterUnit":"m.s-1","parameterCategory":1,"la1":31.0,"la2":29.5877,"lo1":-88.7671,"lo2":-86.6584,"dy":0.0162,"dx":0.0185,"nx":115,"ny":88,"refTime":"2024-03-02T18:00:00:Z","depth":0,"parameterNumber":3,"parameterNumberName":"V-component_of_WINDS"},"data":[0.0,0.0,0.0,0.0,0.0,0.0,0.0,0.0,0.0,0.0,0.0,0.0,0.0,0.0,0.0,0.0,0.0,0.0,0.0,0.0,0.0,0.0,0.0,0.0,0.0,0.0,0.0,0.0,0.0,0.0,0.0,0.0,0.0,0.0,0.0,0.0,0.0,0.0,0.0,0.0,0.0,0.0,0.0,0.0,0.0,0.0,0.0,0.0,0.0,0.0,0.0,0.0,0.0,0.0,0.0,0.0,0.0,0.0,0.0,0.0,0.0,0.0,0.0,0.0,0.0,0.0,0.0,0.0,0.0,0.0,0.0,0.0,0.0,0.0,0.0,0.0,0.0,0.0,0.0,0.0,0.0,0.0,0.0,0.0,0.0,0.0,0.0,0.0,0.0,0.0,0.0,0.0,0.0,0.0,0.0,0.0,0.0,0.0,0.0,0.0,0.0,0.0,0.0,0.0,0.0,0.0,0.0,0.0,0.0,0.0,0.0,0.0,0.0,0.0,0.0,0.0,0.0,0.0,0.0,0.0,0.0,0.0,0.0,0.0,0.0,0.0,0.0,0.0,0.0,0.0,0.0,0.0,0.0,0.0,0.0,0.0,0.0,0.0,0.0,0.0,0.0,0.0,0.0,0.0,0.0,0.0,0.0,0.0,0.0,0.0,0.0,0.0,0.0,0.0,0.0,0.0,0.0,0.0,0.0,0.0,0.0,0.0,0.0,0.0,0.0,0.0,0.0,0.0,0.0,0.0,0.0,0.0,0.0,0.0,0.0,0.0,0.0,0.0,0.0,0.0,0.0,0.0,0.0,0.0,0.0,0.0,0.0,0.0,0.0,0.0,0.0,0.0,0.0,0.0,0.0,0.0,0.0,0.0,0.0,0.0,0.0,0.0,0.0,0.0,0.0,0.0,0.0,0.0,0.0,0.0,0.0,0.0,0.0,0.0,0.0,0.0,0.0,0.0,0.0,0.0,0.0,0.0,0.0,0.0,0.0,0.0,0.0,0.0,0.0,0.0,0.0,0.0,0.0,0.0,0.0,0.0,0.0,0.0,0.0,0.0,0.0,0.0,0.0,0.0,0.0,0.0,0.0,0.0,0.0,0.0,0.0,0.0,0.0,0.0,0.0,0.0,0.0,0.0,0.0,0.0,0.0,0.0,0.0,0.0,0.0,0.0,0.0,0.0,0.0,0.0,0.0,0.0,0.0,0.0,0.0,0.0,0.0,0.0,0.0,0.0,0.0,0.0,0.0,0.0,0.0,0.0,0.0,0.0,0.0,0.0,0.0,0.0,0.0,0.0,0.0,0.0,0.0,0.0,0.0,0.0,0.0,0.0,0.0,0.0,0.0,0.0,0.0,0.0,0.0,0.0,0.0,0.0,0.0,0.0,0.0,0.0,0.0,0.0,0.0,0.0,0.0,0.0,0.0,0.0,0.0,0.0,0.0,0.0,0.0,0.0,0.0,0.0,0.0,0.0,0.0,0.0,0.0,0.0,0.0,0.0,0.0,0.0,0.0,0.0,0.0,0.0,0.0,0.0,0.0,0.0,0.0,0.0,0.0,0.0,0.0,0.0,0.0,0.0,0.0,0.0,0.0,0.0,0.0,0.0,0.0,0.0,0.0,0.0,0.0,0.0,0.0,0.0,0.0,0.0,0.0,0.0,0.0,0.0,0.0,0.0,0.0,0.0,0.0,0.0,0.0,0.0,0.0,0.0,0.0,0.0,0.0,0.0,0.0,0.0,0.0,0.0,0.0,0.0,0.0,0.0,0.0,0.0,0.0,0.0,0.0,0.0,0.0,0.0,0.0,0.0,0.0,0.0,0.0,0.0,0.0,0.0,0.0,0.0,0.0,0.0,0.0,0.0,0.0,0.0,0.0,0.0,0.0,0.0,0.0,0.0,0.0,0.0,0.0,0.0,0.0,0.0,0.0,0.0,0.0,0.0,0.0,0.0,0.0,0.0,0.0,0.0,0.0,0.0,0.0,0.0,0.0,0.0,0.0,0.0,0.0,0.0,0.0,0.0,0.0,0.0,0.0,0.0,0.0,0.0,0.0,0.0,0.0,0.0,0.0,0.0,0.0,0.0,0.0,0.0,0.0,0.0,0.0,0.0,0.0,0.0,0.0,0.0,0.0,0.0,0.0,0.0,0.0,0.0,0.0,0.0,0.0,0.0,0.0,0.0,0.0,0.0,0.0,0.0,0.0,0.0,0.0,0.0,0.0,0.0,0.0,0.0,0.0,0.0,0.0,0.0,0.0,0.0,0.0,0.0,0.0,0.0,0.0,0.0,0.0,0.0,0.0,0.0,0.0,0.0,0.0,0.0,0.0,0.0,0.0,0.0,0.0,0.0,0.0,0.0,0.0,0.0,0.0,0.0,0.0,0.0,0.0,0.0,0.0,0.0,0.0,0.0,0.0,0.0,0.0,0.0,0.0,0.0,0.0,0.0,0.0,0.0,0.0,0.0,0.0,0.0,0.0,0.0,0.0,0.0,0.0,0.0,0.0,0.0,0.0,0.0,0.0,0.0,0.0,0.0,0.0,0.0,0.0,0.0,0.0,0.0,0.0,0.0,0.0,0.0,0.0,0.0,0.0,0.0,0.0,0.0,0.0,0.0,0.0,0.0,0.0,0.0,0.0,0.0,0.0,0.0,0.0,0.0,0.0,0.0,0.0,0.0,0.0,0.0,0.0,0.0,0.0,0.0,0.0,0.0,0.0,0.0,0.0,0.0,0.0,0.0,0.0,0.0,0.0,0.0,0.0,0.0,0.0,0.0,0.0,0.0,0.0,0.0,0.0,0.0,0.0,0.0,0.0,0.0,0.0,0.0,0.0,0.0,0.0,0.0,0.0,0.0,0.0,0.0,0.0,0.0,0.0,0.0,0.0,0.0,0.0,0.0,0.0,0.0,0.0,0.0,0.0,0.0,0.0,0.0,0.0,0.0,0.0,0.0,0.0,0.0,0.0,0.0,0.0,0.0,0.0,0.0,0.0,0.0,0.0,0.0,0.0,0.0,0.0,0.0,0.0,0.0,0.0,0.0,0.0,0.0,0.0,0.0,0.0,0.0,0.0,0.0,0.0,0.0,0.0,0.0,0.0,0.0,0.0,0.0,0.0,0.0,0.0,0.0,0.0,0.0,0.0,0.0,0.0,0.0,0.0,0.0,0.0,0.0,0.0,0.0,0.0,0.0,0.0,0.0,0.0,0.0,0.0,0.0,0.0,0.0,0.0,0.0,0.0,0.0,0.0,0.0,0.0,0.0,0.0,0.0,0.0,0.0,0.0,0.0,0.0,0.0,0.0,0.0,0.0,0.0,0.0,0.0,0.0,0.0,0.0,0.0,0.0,0.0,0.0,0.0,0.0,0.0,0.0,0.0,0.0,0.0,0.0,0.0,0.0,0.0,0.0,0.0,0.0,0.0,0.0,0.0,0.0,0.0,0.0,0.0,0.0,0.0,0.0,0.0,0.0,0.0,0.0,0.0,0.0,0.0,0.0,0.0,0.0,0.0,0.0,0.0,0.0,0.0,0.0,0.0,0.0,0.0,0.0,0.0,0.0,0.0,0.0,0.0,0.0,0.0,0.0,0.0,0.0,0.0,0.0,0.0,0.0,0.0,0.0,0.0,0.0,0.0,0.0,0.0,0.0,0.0,0.0,0.0,0.0,0.0,0.0,0.0,0.0,0.0,0.0,0.0,0.0,0.0,0.0,0.0,0.0,0.0,0.0,0.0,0.0,0.0,0.0,0.0,0.0,0.0,0.0,0.0,0.0,0.0,0.0,0.0,0.0,0.0,0.0,0.0,0.0,0.0,0.0,0.0,0.0,0.0,0.0,0.0,0.0,0.0,0.0,0.0,0.0,0.0,0.0,0.0,0.0,0.0,0.0,0.0,0.0,0.0,0.0,0.0,0.0,0.0,0.0,0.0,0.0,0.0,0.0,0.0,0.0,0.0,0.0,0.0,0.0,0.0,0.0,0.0,0.0,0.0,0.0,0.0,0.0,0.0,0.0,0.0,0.0,0.0,0.0,0.0,0.0,0.0,0.0,0.0,0.0,0.0,0.0,0.0,0.0,0.0,0.0,0.0,0.0,0.0,0.0,0.0,0.0,0.0,0.0,0.0,0.0,0.0,0.0,0.0,0.0,0.0,0.0,0.0,0.0,0.0,0.0,0.0,0.0,0.0,0.0,0.0,0.0,0.0,0.0,0.0,0.0,0.0,0.0,0.0,0.0,0.0,0.0,0.0,0.0,0.0,0.0,0.0,0.0,0.0,1.4585,0.0,0.0,0.0,0.0,0.0,0.0,0.0,0.0,0.0,0.0,0.0,0.0,0.0,0.0,0.0,0.0,0.0,0.0,0.0,0.0,0.0,0.0,0.0,0.0,0.0,0.0,0.0,0.0,0.0,0.0,0.0,0.0,0.0,0.0,0.0,0.0,0.0,0.0,0.0,0.0,0.0,0.0,0.0,0.0,0.0,0.0,0.0,0.0,0.0,0.0,0.0,0.0,0.0,0.0,0.0,0.0,0.0,0.0,0.0,0.0,0.0,0.0,0.0,0.0,0.0,0.0,0.0,0.0,0.0,0.0,0.0,0.0,0.0,0.0,0.0,0.0,0.0,0.0,0.0,0.0,0.0,0.0,0.0,0.0,0.0,0.0,0.0,0.0,0.0,0.0,0.0,0.0,0.0,0.0,0.0,0.0,0.0,0.0,0.0,0.0,0.0,0.0,0.0,0.0,0.0,0.0,0.0,0.0,0.0,0.0,1.4703,1.4719,1.4669,1.4648,1.4648,0.0,0.0,0.0,0.0,0.0,0.0,0.0,0.0,0.0,0.0,0.0,0.0,0.0,0.0,0.0,0.0,0.0,0.0,0.0,0.0,0.0,0.0,0.0,0.0,0.0,0.0,0.0,0.0,0.0,0.0,0.0,0.0,0.0,0.0,0.0,0.0,0.0,0.0,0.0,0.0,0.0,0.0,0.0,0.0,0.0,0.0,0.0,0.0,0.0,0.0,0.0,0.0,0.0,0.0,0.0,0.0,0.0,0.0,0.0,0.0,0.0,0.0,0.0,0.0,0.0,0.0,0.0,0.0,0.0,0.0,0.0,0.0,0.0,0.0,0.0,0.0,0.0,0.0,0.0,0.0,0.0,0.0,0.0,0.0,0.0,0.0,0.0,0.0,0.0,0.0,0.0,0.0,0.0,0.0,0.0,0.0,0.0,0.0,0.0,0.0,0.0,0.0,0.0,0.0,0.0,0.0,0.0,0.0,0.0,0.0,0.0,0.0,1.4719,1.4714,1.4706,0.0,0.0,0.0,0.0,0.0,0.0,0.0,0.0,0.0,0.0,0.0,0.0,0.0,0.0,0.0,0.0,0.0,0.0,0.0,0.0,0.0,0.0,0.0,0.0,0.0,0.0,0.0,0.0,0.0,0.0,0.0,0.0,0.0,0.0,0.0,0.0,0.0,0.0,0.0,0.0,0.0,0.0,0.0,0.0,0.0,0.0,0.0,0.0,0.0,0.0,0.0,0.0,0.0,0.0,0.0,0.0,0.0,0.0,0.0,0.0,0.0,0.0,0.0,0.0,0.0,0.0,0.0,0.0,0.0,0.0,0.0,0.0,0.0,0.0,0.0,0.0,0.0,0.0,0.0,0.0,0.0,0.0,0.0,0.0,0.0,0.0,0.0,0.0,0.0,0.0,0.0,0.0,0.0,0.0,0.0,0.0,0.0,0.0,0.0,0.0,0.0,0.0,0.0,0.0,0.0,0.0,0.0,0.0,0.0,0.0,1.4795,1.4795,1.4731,0.0,1.4704,0.0,0.0,0.0,0.0,0.0,0.0,0.0,0.0,0.0,0.0,0.0,0.0,0.0,0.0,0.0,0.0,0.0,0.0,0.0,0.0,0.0,0.0,0.0,0.0,0.0,0.0,0.0,0.0,0.0,0.0,0.0,0.0,0.0,0.0,0.0,0.0,0.0,0.0,0.0,0.0,0.0,0.0,0.0,0.0,0.0,0.0,0.0,0.0,0.0,0.0,0.0,0.0,0.0,0.0,0.0,0.0,0.0,0.0,0.0,0.0,0.0,0.0,0.0,0.0,0.0,0.0,0.0,0.0,0.0,0.0,0.0,0.0,0.0,0.0,0.0,0.0,0.0,0.0,0.0,0.0,0.0,0.0,0.0,0.0,0.0,0.0,0.0,0.0,0.0,0.0,0.0,0.0,0.0,0.0,0.0,0.0,0.0,0.0,0.0,0.0,0.0,0.0,0.0,0.0,0.0,0.0,0.0,0.0,0.0,0.0,1.4799,1.4799,1.4743,1.4704,0.0,0.0,0.0,0.0,0.0,0.0,0.0,0.0,0.0,0.0,0.0,0.0,0.0,0.0,0.0,0.0,0.0,0.0,0.0,0.0,0.0,0.0,0.0,0.0,0.0,0.0,0.0,0.0,0.0,0.0,0.0,0.0,0.0,0.0,0.0,0.0,0.0,0.0,0.0,0.0,0.0,0.0,0.0,0.0,0.0,0.0,0.0,0.0,0.0,0.0,0.0,0.0,0.0,0.0,0.0,0.0,0.0,0.0,0.0,0.0,0.0,0.0,0.0,0.0,0.0,0.0,0.0,0.0,0.0,0.0,0.0,0.0,0.0,0.0,0.0,0.0,0.0,0.0,0.0,0.0,0.0,0.0,0.0,0.0,0.0,0.0,0.0,0.0,0.0,0.0,0.0,0.0,0.0,0.0,0.0,0.0,0.0,0.0,0.0,0.0,0.0,0.0,0.0,0.0,0.0,0.0,0.0,0.0,0.0,0.0,1.4794,1.4797,1.4808,1.476,1.4724,1.4736,0.0,0.0,0.0,0.0,0.0,0.0,0.0,0.0,0.0,0.0,0.0,0.0,0.0,0.0,0.0,0.0,0.0,0.0,0.0,0.0,0.0,0.0,0.0,0.0,0.0,0.0,0.0,0.0,0.0,0.0,0.0,0.0,0.0,0.0,0.0,0.0,0.0,0.0,0.0,0.0,0.0,0.0,0.0,0.0,0.0,0.0,0.0,0.0,0.0,0.0,0.0,0.0,0.0,0.0,0.0,0.0,0.0,0.0,0.0,0.0,0.0,0.0,0.0,0.0,0.0,0.0,0.0,0.0,0.0,0.0,0.0,0.0,0.0,0.0,0.0,0.0,0.0,0.0,0.0,0.0,0.0,0.0,0.0,0.0,0.0,0.0,0.0,0.0,0.0,0.0,0.0,0.0,0.0,0.0,0.0,0.0,0.0,0.0,0.0,0.0,0.0,0.0,0.0,0.0,0.0,0.0,0.0,0.0,1.4811,1.4809,1.4809,1.4794,1.4792,1.4799,0.0,0.0,0.0,0.0,0.0,0.0,0.0,0.0,0.0,0.0,0.0,0.0,0.0,0.0,0.0,0.0,0.0,0.0,0.0,0.0,0.0,0.0,0.0,0.0,0.0,0.0,0.0,0.0,0.0,0.0,0.0,0.0,0.0,0.0,0.0,0.0,0.0,0.0,0.0,0.0,0.0,0.0,0.0,0.0,0.0,0.0,0.0,0.0,0.0,0.0,0.0,0.0,0.0,0.0,0.0,0.0,0.0,0.0,0.0,0.0,0.0,0.0,0.0,0.0,0.0,0.0,0.0,0.0,0.0,0.0,0.0,0.0,0.0,0.0,0.0,0.0,0.0,0.0,0.0,0.0,0.0,0.0,0.0,0.0,0.0,0.0,0.0,0.0,0.0,0.0,0.0,0.0,0.0,0.0,0.0,0.0,0.0,0.0,0.0,0.0,0.0,0.0,0.0,0.0,0.0,0.0,0.0,0.0,0.0,1.4809,1.4837,1.4857,1.4859,1.4825,1.4804,0.0,0.0,0.0,0.0,0.0,0.0,0.0,0.0,0.0,0.0,0.0,0.0,0.0,0.0,0.0,0.0,0.0,0.0,0.0,0.0,0.0,0.0,0.0,0.0,0.0,0.0,0.0,0.0,0.0,0.0,0.0,0.0,0.0,0.0,0.0,0.0,0.0,0.0,0.0,0.0,0.0,0.0,0.0,0.0,0.0,0.0,0.0,0.0,0.0,0.0,0.0,0.0,0.0,0.0,0.0,0.0,0.0,0.0,0.0,0.0,0.0,0.0,0.0,0.0,0.0,0.0,0.0,0.0,0.0,0.0,0.0,0.0,0.0,0.0,0.0,0.0,0.0,0.0,0.0,0.0,0.0,0.0,0.0,0.0,0.0,0.0,0.0,0.0,0.0,0.0,0.0,0.0,0.0,0.0,0.0,0.0,0.0,0.0,0.0,0.0,0.0,0.0,0.0,0.0,0.0,0.0,0.0,0.0,0.0,1.4827,0.0,1.4886,1.4902,1.4866,1.4825,0.0,0.0,0.0,0.0,0.0,0.0,0.0,0.0,0.0,0.0,0.0,0.0,0.0,0.0,0.0,0.0,0.0,0.0,0.0,0.0,0.0,0.0,0.0,0.0,0.0,0.0,0.0,0.0,0.0,0.0,0.0,0.0,0.0,0.0,0.0,0.0,0.0,0.0,0.0,0.0,0.0,0.0,0.0,0.0,0.0,0.0,0.0,0.0,0.0,0.0,0.0,0.0,0.0,0.0,0.0,0.0,0.0,0.0,0.0,0.0,0.0,0.0,0.0,0.0,0.0,0.0,0.0,0.0,0.0,0.0,0.0,0.0,0.0,0.0,0.0,0.0,0.0,0.0,0.0,0.0,0.0,0.0,0.0,0.0,0.0,0.0,0.0,0.0,0.0,0.0,0.0,0.0,0.0,0.0,0.0,0.0,0.0,0.0,0.0,0.0,0.0,0.0,0.0,0.0,0.0,0.0,0.0,0.0,1.4926,1.4902,1.49,1.4908,1.4885,1.4904,1.4885,0.0,0.0,0.0,0.0,0.0,0.0,0.0,0.0,0.0,0.0,0.0,0.0,0.0,0.0,0.0,0.0,0.0,0.0,0.0,0.0,0.0,0.0,0.0,0.0,0.0,0.0,0.0,0.0,0.0,0.0,0.0,0.0,0.0,0.0,0.0,0.0,0.0,0.0,0.0,0.0,0.0,0.0,0.0,0.0,0.0,0.0,0.0,0.0,0.0,0.0,0.0,0.0,0.0,0.0,0.0,0.0,0.0,0.0,0.0,0.0,0.0,0.0,0.0,0.0,0.0,0.0,0.0,0.0,0.0,0.0,0.0,0.0,0.0,0.0,0.0,0.0,0.0,0.0,0.0,0.0,0.0,0.0,0.0,0.0,0.0,0.0,0.0,0.0,0.0,0.0,0.0,0.0,0.0,0.0,0.0,0.0,0.0,0.0,0.0,0.0,0.0,0.0,0.0,0.0,0.0,0.0,0.0,0.0,0.0,1.4999,1.4988,1.4958,1.4952,1.4977,1.4946,0.0,0.0,0.0,0.0,0.0,0.0,0.0,0.0,0.0,0.0,0.0,0.0,0.0,0.0,0.0,0.0,0.0,0.0,0.0,0.0,0.0,0.0,0.0,0.0,0.0,0.0,0.0,0.0,0.0,0.0,0.0,0.0,0.0,0.0,0.0,0.0,0.0,0.0,0.0,0.0,0.0,0.0,0.0,0.0,0.0,0.0,0.0,0.0,0.0,0.0,0.0,0.0,0.0,0.0,0.0,0.0,0.0,0.0,0.0,0.0,0.0,0.0,0.0,0.0,0.0,0.0,0.0,0.0,0.0,0.0,0.0,0.0,0.0,0.0,0.0,0.0,0.0,0.0,0.0,0.0,0.0,0.0,0.0,0.0,0.0,0.0,0.0,0.0,0.0,0.0,0.0,0.0,0.0,0.0,0.0,0.0,0.0,0.0,0.0,0.0,0.0,0.0,0.0,0.0,0.0,0.0,0.0,0.0,0.0,1.5986,1.5967,1.5975,1.5987,1.5658,1.5486,1.5485,0.0,0.0,0.0,0.0,0.0,0.0,0.0,0.0,0.0,0.0,0.0,0.0,0.0,0.0,0.0,0.0,0.0,0.0,0.0,0.0,0.0,0.0,0.0,0.0,0.0,0.0,0.0,0.0,0.0,0.0,0.0,0.0,0.0,0.0,0.0,0.0,0.0,0.0,0.0,0.0,0.0,0.0,0.0,0.0,0.0,0.0,0.0,0.0,0.0,0.0,0.0,0.0,0.0,0.0,0.0,0.0,0.0,0.0,0.0,0.0,0.0,0.0,0.0,0.0,0.0,0.0,0.0,0.0,0.0,0.0,0.0,0.0,0.0,0.0,0.0,0.0,0.0,0.0,0.0,0.0,0.0,0.0,0.0,0.0,0.0,0.0,0.0,0.0,0.0,0.0,0.0,0.0,0.0,0.0,0.0,0.0,0.0,0.0,0.0,0.0,0.0,0.0,0.0,0.0,0.0,0.0,0.0,0.0,1.7745,1.775,1.7687,1.7547,1.678,1.6353,0.0,0.0,0.0,0.0,0.0,0.0,0.0,0.0,0.0,0.0,0.0,0.0,0.0,0.0,0.0,0.0,0.0,0.0,0.0,0.0,0.0,0.0,0.0,0.0,0.0,0.0,0.0,0.0,0.0,0.0,0.0,0.0,0.0,0.0,0.0,0.0,0.0,0.0,0.0,0.0,0.0,0.0,0.0,0.0,0.0,0.0,0.0,0.0,0.0,0.0,0.0,0.0,0.0,0.0,0.0,0.0,0.0,0.0,0.0,0.0,0.0,0.0,0.0,0.0,0.0,0.0,0.0,0.0,0.0,0.0,0.0,0.0,0.0,0.0,0.0,0.0,0.0,0.0,0.0,0.0,0.0,0.0,0.0,0.0,0.0,0.0,0.0,0.0,0.0,0.0,0.0,0.0,0.0,0.0,0.0,0.0,0.0,0.0,0.0,0.0,0.0,0.0,0.0,0.0,0.0,0.0,0.0,0.0,0.0,1.9476,1.9511,1.8898,1.7654,1.7376,1.6938,0.0,0.0,0.0,0.0,0.0,0.0,0.0,0.0,0.0,0.0,0.0,0.0,0.0,0.0,0.0,0.0,0.0,0.0,0.0,0.0,0.0,0.0,0.0,0.0,0.0,0.0,0.0,0.0,0.0,0.0,0.0,0.0,0.0,0.0,0.0,0.0,0.0,0.0,0.0,0.0,0.0,0.0,0.0,0.0,0.0,0.0,0.0,0.0,0.0,0.0,0.0,0.0,0.0,0.0,0.0,0.0,0.0,0.0,0.0,0.0,0.0,0.0,0.0,0.0,0.0,0.0,0.0,0.0,0.0,0.0,0.0,0.0,0.0,0.0,0.0,0.0,0.0,0.0,0.0,0.0,0.0,0.0,0.0,0.0,0.0,0.0,0.0,0.0,0.0,0.0,0.0,0.0,0.0,0.0,0.0,0.0,0.0,0.0,0.0,0.0,0.0,0.0,0.0,0.0,0.0,0.0,0.0,0.0,1.9341,2.0192,2.0238,1.9761,1.8712,1.8328,1.7917,0.0,0.0,0.0,0.0,0.0,0.0,0.0,0.0,0.0,0.0,0.0,0.0,0.0,0.0,0.0,0.0,0.0,0.0,0.0,0.0,0.0,0.0,0.0,0.0,0.0,0.0,0.0,0.0,0.0,0.0,0.0,0.0,0.0,0.0,0.0,0.0,0.0,0.0,0.0,0.0,0.0,0.0,0.0,0.0,0.0,0.0,0.0,0.0,0.0,0.0,0.0,0.0,0.0,0.0,0.0,0.0,0.0,0.0,0.0,0.0,0.0,0.0,0.0,0.0,0.0,0.0,0.0,0.0,0.0,0.0,0.0,0.0,0.0,0.0,0.0,0.0,0.0,0.0,0.0,0.0,0.0,0.0,0.0,0.0,0.0,0.0,0.0,0.0,0.0,0.0,0.0,0.0,0.0,0.0,0.0,0.0,0.0,0.0,0.0,0.0,0.0,0.0,0.0,0.0,0.0,0.0,0.0,0.0,1.9407,2.0213,2.0263,2.0263,2.0192,1.9443,1.8961,0.0,0.0,0.0,0.0,0.0,0.0,0.0,0.0,0.0,0.0,0.0,0.0,0.0,0.0,0.0,0.0,0.0,0.0,0.0,0.0,0.0,0.0,0.0,0.0,0.0,0.0,0.0,0.0,0.0,0.0,0.0,0.0,0.0,0.0,0.0,0.0,0.0,0.0,0.0,0.0,0.0,0.0,0.0,0.0,0.0,0.0,0.0,0.0,0.0,0.0,0.0,0.0,0.0,0.0,0.0,0.0,0.0,0.0,0.0,0.0,0.0,0.0,0.0,0.0,0.0,0.0,0.0,0.0,0.0,0.0,0.0,0.0,0.0,0.0,0.0,0.0,0.0,0.0,0.0,0.0,0.0,0.0,0.0,0.0,0.0,0.0,0.0,0.0,0.0,0.0,0.0,0.0,0.0,0.0,0.0,0.0,0.0,0.0,0.0,0.0,0.0,0.0,0.0,0.0,0.0,0.0,0.0,0.0,2.0034,2.0283,2.0288,2.0263,2.0213,2.0009,1.9601,0.0,0.0,0.0,0.0,0.0,0.0,0.0,0.0,0.0,0.0,0.0,0.0,0.0,0.0,0.0,0.0,0.0,0.0,0.0,0.0,0.0,0.0,0.0,0.0,0.0,0.0,0.0,0.0,0.0,0.0,0.0,0.0,0.0,0.0,0.0,0.0,0.0,0.0,0.0,0.0,0.0,0.0,0.0,0.0,0.0,0.0,0.0,0.0,1.5408,0.0,0.0,0.0,0.0,0.0,0.0,0.0,0.0,0.0,0.0,0.0,0.0,0.0,0.0,0.0,0.0,0.0,0.0,0.0,0.0,0.0,0.0,0.0,0.0,0.0,0.0,0.0,0.0,0.0,0.0,0.0,0.0,0.0,0.0,0.0,0.0,0.0,0.0,0.0,0.0,0.0,0.0,0.0,0.0,0.0,0.0,0.0,0.0,0.0,0.0,0.0,0.0,0.0,0.0,0.0,0.0,0.0,0.0,0.0,2.0238,2.0288,2.0288,2.0263,2.0209,2.0205,1.9973,0.0,0.0,0.0,0.0,0.0,0.0,0.0,0.0,0.0,0.0,0.0,0.0,0.0,0.0,0.0,0.0,0.0,0.0,0.0,0.0,0.0,0.0,0.0,0.0,0.0,0.0,0.0,0.0,0.0,0.0,0.0,0.0,0.0,0.0,0.0,0.0,0.0,0.0,0.0,0.0,0.0,0.0,0.0,0.0,0.0,0.0,0.0,0.0,0.0,0.0,0.0,0.0,0.0,0.0,0.0,0.0,0.0,0.0,0.0,0.0,0.0,0.0,0.0,0.0,0.0,0.0,0.0,0.0,0.0,0.0,0.0,0.0,0.0,0.0,0.0,0.0,0.0,0.0,0.0,0.0,0.0,0.0,0.0,0.0,0.0,0.0,0.0,0.0,0.0,0.0,0.0,0.0,0.0,0.0,0.0,0.0,0.0,0.0,0.0,0.0,0.0,0.0,0.0,0.0,0.0,0.0,0.0,1.984,2.0257,2.0288,2.0288,2.0263,2.0213,2.0205,2.0199,2.0196,0.0,0.0,0.0,0.0,0.0,0.0,0.0,0.0,0.0,0.0,0.0,0.0,0.0,0.0,0.0,0.0,0.0,0.0,0.0,0.0,0.0,0.0,0.0,0.0,0.0,0.0,0.0,0.0,0.0,0.0,0.0,0.0,0.0,0.0,0.0,0.0,0.0,0.0,1.6397,1.737,0.0,0.0,0.0,0.0,0.0,0.0,0.0,0.0,1.8023,0.0,0.0,0.0,0.0,0.0,0.0,0.0,0.0,0.0,0.0,0.0,0.0,0.0,0.0,0.0,0.0,0.0,0.0,0.0,0.0,0.0,0.0,0.0,0.0,0.0,0.0,0.0,0.0,0.0,0.0,0.0,0.0,0.0,0.0,0.0,0.0,0.0,0.0,0.0,0.0,0.0,0.0,0.0,0.0,0.0,0.0,0.0,0.0,0.0,0.0,0.0,0.0,0.0,0.0,0.0,0.0,1.9974,2.0204,2.0288,2.0288,2.0288,2.0263,2.0211,2.0208,2.0201,2.0194,0.0,0.0,0.0,0.0,0.0,0.0,0.0,0.0,0.0,0.0,0.0,0.0,0.0,0.0,0.0,0.0,0.0,0.0,0.0,0.0,0.0,0.0,0.0,0.0,0.0,0.0,0.0,0.0,0.0,0.0,0.0,0.0,0.0,0.0,0.0,0.0,0.0,0.0,0.0,1.7878,1.8627,0.0,0.0,0.0,0.0,0.0,0.0,0.0,0.0,1.8639,0.0,0.0,0.0,0.0,0.0,0.0,0.0,0.0,0.0,0.0,0.0,0.0,0.0,0.0,0.0,0.0,0.0,0.0,0.0,0.0,0.0,0.0,0.0,0.0,0.0,0.0,0.0,0.0,0.0,0.0,0.0,0.0,0.0,0.0,0.0,0.0,0.0,0.0,0.0,0.0,0.0,0.0,0.0,0.0,0.0,0.0,0.0,0.0,0.0,0.0,0.0,0.0,0.0,0.0,0.0,2.0198,2.0304,2.0502,2.0904,2.0925,2.0894,2.0871,2.0877,2.064,0.0,0.0,0.0,0.0,0.0,0.0,0.0,0.0,0.0,0.0,0.0,0.0,0.0,0.0,0.0,0.0,0.0,0.0,0.0,0.0,0.0,0.0,0.0,0.0,0.0,0.0,0.0,0.0,0.0,0.0,0.0,0.0,0.0,0.0,0.0,0.0,0.0,0.0,0.0,0.0,1.895,1.9597,1.9197,0.0,0.0,0.0,0.0,0.0,0.0,1.9866,1.9727,0.0,0.0,0.0,0.0,0.0,0.0,0.0,0.0,0.0,0.0,0.0,0.0,0.0,0.0,0.0,0.0,0.0,0.0,0.0,0.0,0.0,0.0,0.0,0.0,0.0,0.0,0.0,0.0,0.0,0.0,0.0,0.0,0.0,0.0,0.0,0.0,0.0,0.0,0.0,0.0,0.0,0.0,0.0,0.0,0.0,0.0,0.0,0.0,0.0,0.0,0.0,0.0,0.0,0.0,0.0,2.0269,2.0464,2.0846,2.1483,2.1679,2.1756,2.1736,2.1583,2.1136,0.0,0.0,0.0,0.0,0.0,0.0,0.0,0.0,0.0,0.0,0.0,0.0,0.0,0.0,0.0,0.0,0.0,0.0,0.0,0.0,0.0,0.0,0.0,0.0,0.0,0.0,0.0,0.0,0.0,0.0,0.0,0.0,0.0,0.0,0.0,0.0,0.0,0.0,0.0,0.0,0.0,2.0663,2.0884,2.0923,0.0,0.0,0.0,0.0,2.1867,2.1437,0.0,0.0,0.0,0.0,0.0,0.0,0.0,0.0,0.0,0.0,0.0,0.0,0.0,0.0,0.0,0.0,0.0,0.0,0.0,0.0,0.0,0.0,0.0,0.0,0.0,0.0,0.0,0.0,0.0,0.0,0.0,0.0,0.0,0.0,0.0,0.0,0.0,0.0,0.0,0.0,0.0,0.0,0.0,0.0,0.0,0.0,0.0,0.0,0.0,0.0,0.0,0.0,0.0,0.0,0.0,0.0,2.0327,2.1002,2.1406,2.1521,2.2237,2.2602,2.2554,2.1868,2.1423,0.0,0.0,0.0,0.0,0.0,0.0,0.0,0.0,0.0,0.0,0.0,0.0,0.0,0.0,0.0,0.0,0.0,0.0,0.0,0.0,0.0,0.0,0.0,0.0,0.0,0.0,0.0,0.0,0.0,0.0,0.0,0.0,0.0,0.0,0.0,0.0,0.0,0.0,0.0,0.0,0.0,2.1801,2.2495,2.2659,2.2701,0.0,0.0,0.0,2.2847,2.2767,0.0,0.0,0.0,0.0,0.0,0.0,0.0,0.0,0.0,0.0,0.0,0.0,0.0,0.0,0.0,0.0,0.0,0.0,0.0,0.0,0.0,0.0,0.0,0.0,0.0,0.0,0.0,0.0,0.0,0.0,0.0,0.0,0.0,0.0,0.0,0.0,0.0,0.0,0.0,0.0,0.0,0.0,0.0,0.0,0.0,0.0,0.0,0.0,0.0,0.0,0.0,0.0,0.0,0.0,0.0,2.0465,2.0962,2.131,2.1985,2.2932,2.3338,2.3493,2.3439,2.3103,2.2453,0.0,0.0,0.0,0.0,0.0,0.0,0.0,0.0,0.0,0.0,0.0,0.0,0.0,0.0,0.0,0.0,0.0,0.0,0.0,0.0,0.0,0.0,0.0,0.0,0.0,0.0,0.0,0.0,0.0,0.0,0.0,0.0,0.0,0.0,0.0,0.0,0.0,0.0,0.0,0.0,0.0,0.0,2.2807,2.2925,0.0,0.0,0.0,2.3339,2.4336,0.0,0.0,0.0,0.0,0.0,0.0,0.0,0.0,0.0,0.0,0.0,0.0,0.0,0.0,0.0,0.0,0.0,0.0,0.0,0.0,0.0,0.0,0.0,0.0,0.0,0.0,0.0,0.0,0.0,0.0,0.0,0.0,0.0,0.0,0.0,0.0,0.0,0.0,0.0,0.0,0.0,0.0,0.0,0.0,0.0,0.0,0.0,0.0,0.0,0.0,0.0,0.0,0.0,0.0,0.0,0.0,0.0,2.15,2.1927,2.2776,2.4052,2.4302,2.4385,2.4337,2.4111,0.0,0.0,0.0,0.0,0.0,0.0,0.0,0.0,0.0,0.0,0.0,0.0,0.0,0.0,0.0,0.0,0.0,0.0,0.0,0.0,0.0,0.0,0.0,0.0,0.0,0.0,0.0,1.5531,0.0,0.0,0.0,0.0,0.0,0.0,0.0,0.0,0.0,0.0,0.0,0.0,0.0,0.0,2.2691,2.3695,2.3866,2.4212,0.0,0.0,2.4657,2.5719,2.4812,2.4078,0.0,0.0,0.0,0.0,0.0,0.0,0.0,0.0,0.0,0.0,0.0,0.0,0.0,0.0,0.0,0.0,0.0,0.0,0.0,0.0,0.0,0.0,0.0,0.0,0.0,0.0,0.0,0.0,0.0,0.0,0.0,0.0,0.0,0.0,0.0,0.0,0.0,0.0,0.0,0.0,0.0,0.0,0.0,0.0,0.0,0.0,0.0,0.0,0.0,0.0,0.0,0.0,0.0,0.0,0.0,2.156,2.3107,2.3956,2.4127,2.4832,2.5202,2.5198,2.443,2.3943,0.0,0.0,0.0,0.0,0.0,0.0,0.0,0.0,0.0,0.0,0.0,0.0,0.0,0.0,0.0,0.0,0.0,0.0,0.0,0.0,0.0,0.0,0.0,0.0,0.0,0.0,0.0,0.0,0.0,0.0,0.0,0.0,0.0,0.0,0.0,0.0,0.0,0.0,0.0,0.0,0.0,2.4602,2.6221,2.6498,2.6823,0.0,0.0,2.7518,2.6829,2.661,2.6275,2.5554,0.0,0.0,0.0,0.0,0.0,0.0,0.0,0.0,0.0,0.0,0.0,0.0,0.0,0.0,0.0,0.0,0.0,0.0,0.0,0.0,0.0,0.0,0.0,0.0,0.0,0.0,0.0,0.0,0.0,0.0,0.0,0.0,0.0,0.0,0.0,0.0,0.0,0.0,0.0,0.0,0.0,0.0,0.0,0.0,0.0,0.0,0.0,0.0,0.0,0.0,0.0,0.0,0.0,2.2025,2.3086,2.3761,2.4339,2.4832,2.5137,2.5303,2.529,2.4975,2.457,0.0,0.0,0.0,0.0,0.0,0.0,0.0,0.0,0.0,0.0,0.0,0.0,0.0,0.0,0.0,0.0,0.0,0.0,0.0,0.0,0.0,0.0,0.0,0.0,0.0,0.0,0.0,0.0,1.7608,1.7998,1.8497,0.0,0.0,0.0,0.0,0.0,0.0,0.0,0.0,0.0,0.0,2.5972,2.6608,2.6726,0.0,0.0,2.6772,2.6697,2.744,2.7092,2.6813,2.7002,2.6781,0.0,0.0,0.0,0.0,0.0,0.0,0.0,0.0,0.0,0.0,0.0,0.0,0.0,0.0,0.0,0.0,0.0,0.0,0.0,0.0,0.0,0.0,0.0,0.0,0.0,0.0,0.0,0.0,0.0,0.0,0.0,0.0,0.0,0.0,0.0,0.0,0.0,0.0,0.0,0.0,0.0,0.0,0.0,0.0,0.0,0.0,0.0,0.0,0.0,0.0,0.0,0.0,2.287,2.4108,2.4336,2.4736,2.5288,2.5308,2.5308,2.5308,2.529,2.5021,0.0,0.0,0.0,0.0,0.0,0.0,0.0,0.0,0.0,0.0,0.0,0.0,0.0,0.0,0.0,0.0,0.0,0.0,0.0,0.0,0.0,0.0,0.0,0.0,0.0,0.0,0.0,0.0,1.839,1.8762,1.9328,0.0,0.0,0.0,0.0,0.0,0.0,0.0,0.0,0.0,0.0,2.7174,2.7418,2.7446,2.7615,2.8114,2.7479,2.7273,2.8244,2.7858,2.7606,2.795,0.0,0.0,0.0,0.0,0.0,0.0,0.0,0.0,0.0,0.0,0.0,0.0,0.0,0.0,0.0,0.0,0.0,0.0,0.0,0.0,0.0,0.0,0.0,0.0,0.0,0.0,0.0,0.0,0.0,0.0,0.0,0.0,0.0,0.0,0.0,0.0,0.0,0.0,0.0,0.0,0.0,0.0,0.0,0.0,0.0,0.0,0.0,0.0,0.0,0.0,0.0,0.0,0.0,0.0,2.4125,2.4849,2.5269,2.5308,2.5308,2.5308,2.5308,2.5308,2.5288,2.525,0.0,0.0,0.0,0.0,0.0,0.0,0.0,0.0,0.0,0.0,0.0,0.0,0.0,0.0,0.0,0.0,0.0,0.0,0.0,0.0,0.0,0.0,0.0,0.0,0.0,0.0,1.9143,1.979,2.0279,0.0,0.0,0.0,0.0,0.0,0.0,0.0,0.0,0.0,0.0,2.6889,2.8268,2.904,2.9134,2.9647,3.1218,3.0805,3.0065,2.9371,2.9243,2.8963,0.0,0.0,0.0,0.0,0.0,0.0,0.0,0.0,0.0,0.0,0.0,0.0,0.0,0.0,0.0,0.0,0.0,0.0,0.0,0.0,0.0,0.0,0.0,0.0,0.0,0.0,0.0,0.0,2.0827,0.0,0.0,0.0,0.0,0.0,0.0,0.0,0.0,0.0,0.0,0.0,2.5818,2.5859,0.0,0.0,0.0,0.0,0.0,0.0,0.0,0.0,0.0,0.0,0.0,0.0,2.4286,2.4885,2.5154,2.5308,2.5308,2.5308,2.5308,2.5308,2.5308,2.5308,2.5288,0.0,0.0,0.0,0.0,0.0,0.0,0.0,0.0,0.0,0.0,0.0,0.0,0.0,0.0,0.0,0.0,0.0,0.0,0.0,0.0,0.0,0.0,0.0,0.0,0.0,2.1036,0.0,0.0,0.0,0.0,0.0,0.0,0.0,0.0,0.0,0.0,0.0,2.8229,2.8722,2.9771,3.053,3.0769,3.029,2.9939,0.0,0.0,0.0,0.0,0.0,0.0,0.0,0.0,0.0,0.0,0.0,0.0,0.0,0.0,2.9,2.7904,2.6997,2.6492,2.6781,0.0,0.0,0.0,0.0,0.0,0.0,0.0,0.0,0.0,0.0,0.0,0.0,0.0,0.0,0.0,0.0,2.2494,0.0,0.0,0.0,0.0,0.0,0.0,0.0,0.0,2.6491,2.7053,2.7544,2.7587,2.7595,0.0,2.7682,2.6555,0.0,0.0,0.0,0.0,0.0,0.0,0.0,0.0,2.4857,2.5718,2.5748,2.5906,2.6192,2.6214,2.6195,2.6195,2.5906,2.5604,2.5341,2.4831,2.4402,0.0,0.0,0.0,0.0,0.0,0.0,0.0,0.0,0.0,0.0,0.0,0.0,0.0,0.0,0.0,0.0,0.0,0.0,0.0,0.0,0.0,0.0,0.0,2.2375,0.0,0.0,0.0,0.0,0.0,0.0,0.0,0.0,0.0,2.6794,2.8497,2.9907,3.0397,3.1174,3.1672,3.1626,0.0,0.0,0.0,0.0,0.0,0.0,0.0,3.1403,3.2833,3.3081,3.3202,3.3493,3.3829,3.3981,3.3709,0.0,0.0,3.0581,2.9557,2.9048,2.9382,2.8996,2.8703,2.8985,2.8614,2.8386,0.0,0.0,0.0,0.0,0.0,0.0,0.0,0.0,2.315,2.2822,0.0,2.2777,0.0,0.0,0.0,0.0,0.0,0.0,0.0,0.0,2.7726,2.7707,2.771,2.7757,2.7709,2.7697,2.7781,2.7775,2.7603,2.6084,0.0,0.0,0.0,0.0,0.0,0.0,2.5704,2.6581,2.6643,2.7044,2.7813,2.7873,2.7873,2.7835,2.7063,2.6268,2.549,2.5432,2.5041,2.4193,2.4157,0.0,0.0,0.0,0.0,0.0,0.0,0.0,0.0,0.0,0.0,0.0,0.0,0.0,0.0,0.0,0.0,0.0,0.0,0.0,0.0,2.313,0.0,0.0,0.0,0.0,0.0,0.0,0.0,0.0,0.0,0.0,2.9325,3.003,3.0523,3.0515,0.0,0.0,0.0,0.0,3.0571,3.1442,3.0807,3.0546,3.1461,3.1703,3.2089,3.2961,0.0,0.0,3.4325,3.5204,3.5527,3.472,3.4575,3.403,3.2341,3.1314,3.0946,3.1687,3.1747,3.2113,3.2854,3.2484,3.2584,3.0063,0.0,0.0,0.0,0.0,2.667,2.6524,2.6498,2.6285,2.6151,2.6145,2.6129,0.0,0.0,0.0,0.0,0.0,0.0,2.8461,2.8541,2.9728,2.9968,2.9412,3.0058,3.0056,2.9449,2.9478,2.9169,2.8551,2.8077,2.7278,2.6246,0.0,0.0,0.0,0.0,2.6575,2.7395,2.7456,2.7585,2.7832,2.7879,2.789,2.789,2.7662,2.7134,2.6287,2.6273,2.5887,2.5063,2.4492,0.0,0.0,0.0,0.0,0.0,0.0,0.0,0.0,0.0,0.0,0.0,0.0,0.0,0.0,0.0,0.0,0.0,0.0,0.0,2.4717,2.594,2.6639,0.0,0.0,0.0,0.0,0.0,0.0,0.0,0.0,0.0,3.1806,3.16,3.1557,0.0,0.0,3.268,3.3226,3.2019,3.1557,3.3004,0.0,0.0,0.0,3.3362,3.373,3.4625,3.5319,3.5844,3.612,3.6891,3.719,3.6364,3.6212,3.5861,3.4796,3.343,3.2617,3.2738,3.2346,3.1971,3.2175,3.1767,3.149,3.3387,3.1339,3.069,3.0121,2.9659,2.926,2.9123,2.9123,2.8781,2.8614,2.8585,2.8604,2.8578,2.8598,2.894,0.0,0.0,0.0,3.0346,3.0387,3.1424,3.1642,3.1195,3.1699,3.171,3.1213,3.1197,3.0907,3.0404,3.0079,2.97,2.915,0.0,0.0,2.7666,2.722,2.7413,2.8223,2.8263,2.8437,2.8784,2.8854,2.8717,2.8396,2.8404,2.7999,2.7152,2.6798,2.6414,2.5933,2.5143,2.455,0.0,0.0,0.0,0.0,0.0,0.0,0.0,0.0,0.0,0.0,0.0,2.1214,0.0,0.0,0.0,0.0,2.4524,2.496,2.6015,2.7024,0.0,0.0,0.0,0.0,0.0,0.0,0.0,3.1484,3.162,3.2087,3.3371,3.2792,3.2393,3.2801,3.255,3.2614,3.3391,0.0,3.1871,3.3202,3.2519,3.2481,3.4194,3.4531,3.5003,3.6281,3.6904,3.7279,3.7385,3.7819,3.7826,3.7146,3.7149,3.7113,3.6283,3.5555,3.4885,3.4279,3.3749,3.3291,3.2952,3.2407,3.2094,3.6795,3.5244,3.3731,3.2944,3.2623,3.184,3.1541,3.1538,3.0739,3.0362,3.0299,3.0299,3.0315,3.0354,3.1138,0.0,0.0,3.2332,3.2657,3.2718,3.2772,3.2776,3.2718,3.2776,3.2776,3.268,3.268,3.268,3.2638,3.1935,3.1599,3.1541,2.9265,2.8023,2.7912,2.7816,2.8218,2.9066,2.9095,2.9493,3.0285,3.0367,3.0022,2.9223,2.9281,2.8886,2.8029,2.7298,2.6857,2.6781,2.6089,2.5318,2.4563,0.0,0.0,0.0,0.0,0.0,0.0,0.0,0.0,0.0,0.0,0.0,0.0,0.0,0.0,0.0,2.7014,0.0,2.7197,2.7255,0.0,0.0,0.0,3.0028,3.0807,3.154,3.2335,3.3208,0.0,0.0,0.0,0.0,3.2982,3.2921,3.2194,3.1952,3.2592,3.2119,3.1909,3.2973,3.2954,3.3515,3.52,3.552,3.6082,3.7547,3.8035,3.8099,3.8178,3.833,3.7967,3.7263,3.7665,3.7935,3.7048,3.7437,3.7617,3.6027,3.5789,3.552,3.4848,3.4627,3.4361,3.7468,3.7086,3.668,3.5033,3.2699,3.2485,3.2409,3.2394,3.2183,3.2084,3.208,3.208,3.2092,3.21,3.2283,3.2386,3.2413,3.26,3.268,3.2753,3.3394,3.3352,3.2734,3.3391,3.3352,3.2714,3.268,3.268,3.268,3.2508,3.2413,3.2371,3.1824,3.0869,2.9612,2.8962,2.9042,2.9893,2.992,3.0027,3.0288,3.0313,3.0251,3.0096,3.0105,2.9732,2.8917,2.8712,2.8311,2.7735,2.7505,2.7292,2.7122,2.7101,0.0,0.0,0.0,0.0,0.0,0.0,0.0,0.0,0.0,2.5041,2.6138,0.0,2.7367,0.0,2.8414,2.9078,2.9742,3.0399,0.0,0.0,3.2264,3.2431,3.259,3.2776,3.321,3.4095,3.4129,3.4385,3.5184,3.3956,3.3184,3.3691,3.3053,3.2556,3.2688,3.3049,3.3783,3.5119,3.5437,3.5893,3.684,3.7173,3.738,3.7843,3.843,3.8865,3.8999,3.9538,3.9668,3.8963,3.8919,3.8726,3.797,3.7934,3.7926,3.7534,3.7465,3.7456,3.7241,3.7108,3.6836,3.8625,3.8285,3.8285,3.6967,3.4938,3.4919,3.4724,3.4395,3.4395,3.417,3.3811,3.3826,3.3826,3.3807,3.3826,3.3811,3.3826,3.3807,3.383,3.3845,3.4308,3.4273,3.3826,3.4288,3.4273,3.3826,3.3807,3.3807,3.3792,3.3448,3.328,3.3276,3.289,3.2241,3.1331,3.0487,3.0296,3.0762,3.0388,3.0215,3.0235,3.027,3.0313,3.0367,3.039,3.0221,2.9785,2.9431,2.9031,2.8606,2.8204,2.7991,2.7991,2.7991,2.7778,0.0,0.0,0.0,0.0,0.0,0.0,0.0,0.0,0.0,0.0,0.0,2.9849,0.0,3.0281,0.0,3.1215,3.1698,3.2336,3.3163,3.359,3.3813,3.3768,3.4087,3.4502,3.4972,3.5005,3.5148,3.5513,3.4422,3.3873,3.4613,3.4258,3.391,3.3922,3.4512,3.548,3.6733,3.6991,3.7273,3.812,3.8601,3.8909,3.8984,3.9351,3.9683,3.9787,4.0145,4.0311,3.9942,3.9854,3.9704,3.9215,3.9108,3.9066,3.9073,3.9092,3.8696,3.7661,3.7401,3.7122,3.9866,3.9179,3.9164,3.8725,3.8022,3.8037,3.7517,3.6653,3.6638,3.6214,3.5511,3.5515,3.5515,3.5511,3.5515,3.553,3.553,3.553,3.5534,3.5511,3.5515,3.553,3.5511,3.553,3.5477,3.5381,3.5358,3.532,3.5163,3.4503,3.4144,3.4105,3.3391,3.3024,3.2986,3.2206,3.1713,3.1484,3.0748,3.0303,3.0211,3.0257,3.0279,3.0307,3.0358,3.0422,3.0477,2.9825,2.9443,2.9433,2.8743,2.8339,2.8339,2.8434,2.8474,0.0,2.8644,0.0,0.0,0.0,0.0,0.0,0.0,0.0,0.0,3.172,3.217,3.217,3.2166,3.2202,3.2316,3.2334,3.2656,3.3432,3.421,3.4645,3.4691,3.5272,3.5705,3.568,3.5695,3.5668,3.5556,3.4815,3.4593,3.5435,3.5512,3.5527,3.5836,3.6381,3.7092,3.7789,3.7954,3.8361,3.8966,3.9657,4.0125,4.0209,4.0189,4.0302,4.0336,4.0364,4.0364,4.0373,4.0362,4.0358,4.0407,4.0354,4.0373,4.0273,4.0253,3.9625,3.79,3.7393,3.6787,4.0191,4.0053,4.0038,3.9962,3.9809,3.9809,3.8916,3.7468,3.7464,3.7368,3.7234,3.722,3.7215,3.7234,3.7215,3.7215,3.7215,3.7215,3.7234,3.722,3.7234,3.7215,3.7239,3.7215,3.6891,3.629,3.6252,3.5893,3.5205,3.5037,3.498,3.498,3.4804,3.4728,3.469,0.0,0.0,0.0,3.1319,3.091,3.0226,3.0205,3.0241,3.0307,3.03,0.0,3.0403,3.032,3.0271,3.0272,3.018,0.0,0.0,0.0,0.0,0.0,0.0,0.0,0.0,0.0,0.0,0.0,3.3126,3.3218,3.285,3.2947,3.3052,3.3063,3.3048,3.3324,3.3951,3.4024,3.4346,3.5117,3.5386,3.5473,3.5485,3.5613,3.5692,3.5623,3.5615,3.5589,3.5483,3.4767,3.4828,3.621,3.6396,3.6918,3.8175,3.8391,3.8572,3.8777,3.919,3.9681,3.9846,4.0007,4.0147,4.0186,4.023,4.0244,4.0317,4.0316,4.0353,4.0394,4.0407,4.0402,4.0402,4.0407,4.0389,4.0325,4.0316,4.0195,3.9766,3.961,3.9363,4.032,0.0,4.032,4.032,0.0,4.032,3.979,3.8949,3.8534,3.8099,3.7697,3.7697,3.7697,3.7697,3.7697,3.7697,3.7697,3.7697,3.7697,3.7697,3.7697,3.7697,3.7697,3.7697,3.7483,3.7096,3.7096,3.6676,3.5874,3.5832,3.5641,3.5186,3.5186,3.5186,3.5186,3.4808,3.3757,3.205,3.2069,3.187,3.1445,3.1045,3.0873,3.0925,0.0,0.0,0.0,0.0,0.0,0.0,0.0,0.0,0.0,0.0,0.0,3.2428,3.2849,3.3113,3.3105,3.3172,3.3389,3.3841,3.467,3.5016,3.4567,3.454,3.4521,3.4529,3.4532,3.4708,3.5088,3.5115,3.5252,3.5655,3.5679,3.5658,3.5654,3.5657,3.5656,3.5608,3.5619,3.5562,3.5499,3.5563,3.5957,3.709,3.7629,3.8271,3.9399,3.9668,3.9623,3.9567,3.9809,4.0068,4.0062,4.0052,4.0072,4.0123,4.0152,4.0186,4.0239,4.0253,4.0267,4.0327,4.0355,4.036,4.036,4.0355,4.0346,4.0309,4.0272,4.0262,4.0304,4.0272,4.0162,4.032,4.032,4.032,4.032,4.032,4.032,4.032,4.0248,0.0,0.0,0.0,3.8151,3.8151,3.8156,3.8156,3.8171,3.8171,3.8171,3.8175,3.8171,3.8151,3.8151,3.8171,3.8175,3.8079,3.7927,3.7941,3.7521,3.6734,3.6695,3.6351,3.5706,3.5515,3.5339,3.5205,3.5186,3.4537,3.3215,3.3005,3.2852,3.2699,3.2045,3.1743,3.1816,3.1124,3.0767,3.0826,3.0857,3.1196,3.1887,3.1987,3.235,3.3045,3.3241,3.3314,3.332,3.3475,3.3565,3.3568,3.3611,3.3946,3.4652,3.5366,3.5795,3.5797,3.5805,3.5793,3.5791,3.5929,3.5952,3.5809,3.5885,3.5844,3.5716,3.5635,3.561,3.562,3.5613,3.5601,3.5588,3.5588,3.5631,3.5743,3.6311,3.713,3.7978,3.8583,3.9389,4.0088,4.0229,4.0163,4.006,4.0024,3.9996,3.998,3.998,4.002,4.0086,4.0077,4.0117,4.0166,4.0186,4.0201,4.023,4.0277,4.0277,4.0258,4.0258,4.0258,4.0258,4.0206,4.0186,4.0186,4.0157,4.0152,4.032,4.032,4.032,4.032,4.032,4.032,4.032,4.0282,4.0167,4.0057,3.9924,3.9943,3.9943,3.9943,3.9943,3.9924,3.9943,3.9943,3.9924,0.0,3.9943,3.9943,3.9919,3.9943,3.9542,3.8858,3.882,3.8381,3.7617,3.7525,3.7464,3.7273,3.6653,3.5946,3.5259,3.5186,3.5072,3.4842,3.4159,3.3452,3.2718,3.2588,3.2568,3.2624,3.2497,3.248,3.2548,3.2598,3.2693,3.2814,3.2816,3.2918,3.3117,3.3768,3.4152,3.4251,3.4916,3.5325,3.5325,3.5329,3.5396,3.5517,3.5636,3.5715,3.5795,3.5799,3.5808,3.5827,3.6418,3.6518,3.588,3.641,3.6524,3.5797,3.5631,3.5617,3.5703,3.5694,3.5675,3.5669,3.5518,3.5852,3.6444,3.6698,3.7375,3.8549,3.9074,3.9433,4.0071,4.0258,4.0186,4.0103,4.0027,3.9975,3.9933,3.9911,3.9943,4.0015,4.0007,4.0041,4.0111,4.0122,4.0108,4.0132,4.0142,4.0137,4.0137,4.0132,4.0137,4.0142,4.0132,4.0122,4.0103,4.0053,4.0057,4.0258,4.0301,4.032,4.032,4.032,4.032,4.032,4.032,4.032,4.032,4.032,4.032,4.0291,4.023,4.0249,4.021,4.02,4.02,4.02,4.0181,4.02,4.02,4.02,4.02,3.9991,3.9657,3.9657,3.9232,3.8472,3.8419,3.8171,3.7693,3.7311,3.6944,3.6547,3.6122,3.5893,3.5874,3.5076,3.4441,3.4074,3.3643,3.3433,3.3513,3.3069,3.2831,3.2888,3.2926,3.3169,3.3631,3.3656,3.3892,3.4389,3.4775,3.5013,3.5046,3.5466,3.5706,3.5706,3.5711,3.5904,3.6359,3.6413,3.6624,3.7116,3.6726,3.6449,3.6476,3.7179,3.7502,3.7099,3.7409,3.746,3.7025,3.6926,3.69,3.6912,3.6862,3.6834,3.6821,3.6817,3.6956,3.7322,3.774,3.8184,3.904,3.9428,3.988,4.0196,4.0186,4.0123,4.0087,4.0001,3.9943,3.99,3.9895,3.9897,3.9943,3.9924,3.997,4.0017,4.0046,4.0057,4.0101,4.0106,4.0106,4.0106,4.0106,4.0106,4.0106,4.0067,4.0052,4.0022,3.9986,3.9959,4.0215,4.0272,4.0282,4.032,4.032,4.032,4.032,4.032,4.032,4.0277,4.0287,4.0272,4.0244,4.0181,4.0176,4.0157,4.0092,4.0106,4.0106,4.0106,4.0106,4.0106,4.0106,4.0106,4.0132,4.0176,4.0191,3.9877,3.9337,3.9289,3.8839,3.8079,3.8003,3.7908,3.7697,3.7077,3.6772,3.6714,3.5931,3.5396,3.5186,3.4598,3.4313,3.4315,3.3721,3.3411,3.3478,3.3487,3.3795,3.4433,3.4514,3.4806,3.5454,3.5556,3.5586,3.5595,3.5643,3.5778,3.5958,3.6151,3.6546,3.7204,3.7262,3.7566,3.8111,3.7856,3.7485,3.7389,3.8026,3.8407,3.8194,3.8347,3.837,3.813,3.8045,3.7914,3.7947,3.7924,3.7912,3.7904,3.79,3.7915,3.8233,3.8712,3.9127,3.9415,3.9909,4.0234,4.0205,4.0127,4.0096,4.0057,3.9984,3.9905,3.9895,3.9895,3.9881,3.9895,3.99,3.9927,3.9965,3.9975,3.9986,4.0036,4.0041,4.0041,4.0046,4.0065,4.006,4.0036,4.0015,3.9994,3.997,3.9938,3.99,4.022,4.0229,4.0287,4.032,4.032,4.032,4.032,4.0301,4.032,4.0263,4.0206,4.0225,4.0171,4.0103,4.0098,4.0111,4.0101,4.0106,4.0101,4.0101,4.0106,4.0106,4.0101,4.0106,4.0092,4.0122,4.0171,4.0139,4.002,4.011,3.9713,3.8968,3.8877,3.8495,3.7812,3.7655,3.7578,3.7578,3.6791,3.6003,3.5244,3.5129,3.5116,3.5189,3.5097,3.5134,3.515,3.5269,3.5288,3.5369,3.5353,3.5408,3.5502,3.5538,3.555,3.5639,3.565,3.5946,3.6742,3.7541,3.7947,3.8083,3.8088,3.8147,3.8321,3.8885,3.8904,3.845,3.8892,3.9022,3.8283,3.8832,3.8975,3.8337,3.8184,3.7962,3.8024,3.7908,3.79,3.79,3.8079,3.8171,3.8876,3.9131,3.9406,3.9924,4.0077,4.0181,4.0127,4.0062,4.0007,3.9996,3.9943,3.99,3.9895,3.9895,3.9895,3.9895,3.9895,3.9905,3.9916,3.9916,3.9897,3.9938,3.9927,3.9933,3.9927,3.9911,3.9922,3.9938,3.9927,3.9911,3.9911,3.9905,3.9895,4.0866,4.0868,4.0473,4.032,4.032,4.032,4.032,4.0282,4.0258,4.0215,4.0142,4.0098,4.0048,4.0027,4.0027,4.0026,3.9989,3.9989,3.9989,3.997,3.997,3.997,3.9989,3.997,4.001,4.0041,4.0053,4.0142,4.0196,4.0282,4.0115,3.9809,3.9771,3.958,3.9217,3.872,3.8232,3.7674,3.6905,3.6328,3.5946,3.5454,3.5227,3.5297,3.5308,3.5364,3.547,3.5503,3.5503,3.5503,3.5503,3.5722,3.6181,3.624,3.6511,3.6948,3.7054,3.7231,3.7591,3.798,3.8401,3.8884,3.8941,3.914,3.9638,4.0005,4.0031,3.9759,3.9956,4.0011,3.9653,3.9879,3.9877,3.9538,3.9445,3.9382,3.9323,3.9319,3.9306,3.9318,3.9324,3.9391,3.9671,3.971,3.981,4.0094,4.0128,4.0127,4.0052,4.0012,3.9986,3.9943,3.9911,3.99,3.9895,3.9895,3.9895,3.9895,3.9895,3.9895,3.9895,3.9895,3.9881,3.9895,3.9895,3.9895,3.99,3.9895,3.9895,3.9895,3.9895,3.9895,3.9895,3.9895,3.9895,4.1663,4.1649,4.1194,4.084,4.063,4.0616,4.0473,4.0258,4.0196,4.0142,4.0086,4.0012,3.9986,3.997,3.997,3.9943,3.99,3.9895,3.9895,3.9895,3.9895,3.9895,3.9895,3.9895,3.9927,3.997,3.9991,4.0072,4.0191,4.0249,4.0272,4.0301,4.032,4.032,4.0248,3.9656,3.9049,3.8419,3.7612,3.7192,3.7077,3.6332,3.5796,3.5634,3.5419,3.5361,3.546,3.5497,3.5503,3.5503,3.5692,3.6096,3.6657,3.6971,3.7392,3.7965,3.8271,3.8446,3.8456,3.8701,3.9103,3.9663,3.9767,4.004,4.0539,4.0683,4.0656,4.0568,4.0631,4.0586,4.0585,4.0531,4.0491,4.0458,4.0392,4.0334,4.0256,4.0271,4.0205,4.0253,4.0067,4.0229,4.0176,4.0104,4.0073,4.0072,4.0067,4.0052,3.9986,3.997,3.9954,3.9924,3.9895,3.9895,3.9895,3.9895,3.9895,3.9895,3.9895,3.9895,3.9895,3.9895,3.9895,3.9895,3.9895,3.9895,3.9895,3.9895,3.9895,3.9895,3.9895,3.9895,3.9895,3.9895,3.9895,4.2485,4.2541,4.2653,4.2139,4.1457,4.1384,4.094,4.0387,4.0218,4.0119,4.014,4.011,3.9997,4.0025,4.0081,3.9943,3.9914,4.0008,4.0046,4.0052,4.0014,3.9938,3.9895,3.9895,3.9962,4.0125,4.0116,4.0124,4.0186,4.0201,4.0225,4.0282,4.032,4.032,4.0301,4.0205,4.0186,3.9823,3.9102,3.882,3.8701,3.798,3.7126,3.6521,3.5753,3.5461,3.5482,3.5521,3.5538,3.5519,3.6266,3.6689,3.6808,3.7546,3.8064,3.8166,3.8812,3.9269,3.9413,3.9948,4.0402,4.0479,4.0447,4.054,4.0575,4.0614,4.0593,4.0588,4.0539,4.0527,4.0499,4.0482,4.0426,4.0334,4.0311,4.0285,4.022,4.021,4.0176,4.0137,4.0127,4.0122,4.0098,4.0106,4.0057,4.0026,3.9996,3.998,3.9933,3.9911,3.9905,3.99,3.9895,3.9895,3.9895,3.9895,3.9895,3.9895,3.9895,3.9895,3.9895,3.9895,3.9895,3.9895,3.9895,3.9895,3.9895,3.9895,3.9895,3.9895,3.9895,3.9895,3.9895,3.9895,3.9895,4.3049,4.2604,4.2666,4.2472,4.2219,4.2179,4.1997,4.1755,4.1664,4.1627,4.1586,4.1567,4.1514,4.1478,4.1491,4.1232,4.0815,4.1245,4.151,4.1497,4.1491,4.151,4.151,4.1491,4.1497,4.1421,4.0989,4.0523,4.0151,4.0181,4.0225,4.0296,4.032,4.032,4.032,4.032,4.0057,3.9503,3.914,3.9011,3.8954,3.8132,3.7802,3.804,3.7317,3.6917,3.6999,3.7034,3.7038,3.7018,3.7306,3.7694,3.8254,3.9088,3.9607,3.9623,3.99,4.0077,4.013,4.0403,4.0591,4.0594,4.06,4.0596,4.0598,4.0587,4.0584,4.0546,4.0519,4.0459,4.0377,4.0375,4.0329,4.0266,4.0248,4.0206,4.0147,4.0142,4.0132,4.0087,4.0067,4.0041,4.0031,3.9986,3.9959,3.9962,3.9951,3.9922,3.9905,3.9895,3.9895,3.9895,3.9895,3.9895,3.9895,3.9895,3.9895,3.9895,3.9895,3.9895,3.9895,3.9895,3.9895,3.9895,3.9895,3.9895,3.9895,3.9895,3.9895,3.9895,3.9895,3.9895,3.9895,3.9895,3.9895,4.3869,4.3408,4.3387,4.3227,4.2998,4.3001,4.2819,4.2585,4.2498,4.2469,4.2445,4.2405,4.2388,4.2445,4.2685,4.2539,4.2047,4.2293,4.2388,4.2388,4.2388,4.2388,4.2388,4.2388,4.2388,4.2312,4.1857,4.1212,4.0553,4.0533,4.0468,4.0315,4.032,4.032,4.032,4.032,3.9976,3.9503,3.9427,3.9427,3.935,3.8835,3.8801,3.924,3.8885,3.8346,3.7914,3.7892,3.79,3.7919,3.813,3.8667,3.9495,4.0115,4.0458,4.0466,4.0452,4.0472,4.0472,4.0511,4.0523,4.0527,4.0531,4.0539,4.0546,4.0523,4.0495,4.047,4.0445,4.0388,4.0283,4.0266,4.0243,4.0201,4.0177,4.0147,4.0077,4.0067,4.0057,4.0031,3.9986,3.997,3.9965,3.9927,3.9905,3.9895,3.9895,3.9895,3.9895,3.9895,3.9895,3.9895,3.9895,3.9895,3.9895,3.9895,3.9895,3.9895,3.9895,3.9895,3.9895,3.9895,3.9895,3.9895,3.9895,3.9895,3.9895,3.9895,3.9895,3.9895,3.9895,3.9895,3.9895,3.9895,3.9895,4.4953,4.4864,4.5061,4.4482,4.3838,4.3798,4.3339,4.2758,4.2606,4.2703,4.2759,4.2558,4.2691,4.2691,4.3392,4.3682,4.3493,4.2956,4.2672,4.2653,4.2615,4.2615,4.2634,4.2691,4.2596,4.2539,4.2445,4.2008,4.1327,4.1215,4.0924,4.0454,4.0344,4.032,4.032,4.0301,4.0301,4.0205,4.0172,4.021,4.0301,4.0134,4.0072,4.0205,4.0134,3.9435,3.8025,3.8001,3.8137,3.8156,3.8716,3.951,4.0149,4.0383,4.0411,4.0407,4.0411,4.0411,4.0415,4.04,4.0432,4.0432,4.04,4.0379,4.0264,4.0279,4.0247,4.0081,4.0065,4.0093,3.9986,3.9939,4.0024,4.0191,4.0123,4.0072,4.0026,4.0015,3.9989,3.9927,3.9911,3.99,3.99,3.99,3.9895,3.9895,3.9895,3.9895,3.9895,3.9895,3.9895,3.9895,3.9895,3.9895,3.9895,3.9895,3.9895,3.9895,3.9895,3.9895,3.9895,3.9895,3.9895,3.9895,3.9895,3.9895,3.9895,3.9895,3.9895,3.9895,3.9895,3.9895,3.9895,3.9895,3.9895,4.4944,4.4944,4.4949,4.4823,4.457,4.4552,4.4369,4.4161,4.4124,4.4131,4.4118,4.4131,4.4131,4.415,4.4421,4.451,4.4497,4.4232,4.4118,4.4074,4.408,4.4061,4.4074,4.4099,4.3828,4.3379,4.3303,4.2883,4.2153,4.1588,4.117,4.1007,4.0535,4.032,4.0301,4.032,4.032,4.032,4.032,4.032,4.032,4.032,4.032,4.032,4.0301,4.0005,3.956,3.9559,3.9563,3.9506,3.9774,4.0065,4.028,4.0326,4.0344,4.0348,4.037,4.0407,4.0407,4.0402,4.0398,4.0402,4.0402,4.0062,3.9606,3.9563,3.9316,3.8812,3.8563,3.85,3.8469,3.839,3.8841,3.9939,4.0052,3.9977,3.9943,3.9933,3.9922,3.9905,3.9895,3.9895,3.9895,3.9895,3.9895,3.9895,3.9895,3.9895,3.9895,3.9889,3.9895,3.9895,3.9895,3.9878,3.9867,3.9862,3.9854,3.9884,3.9889,3.9895,3.9895,3.9895,3.9895,3.9895,3.9895,3.9895,3.9895,3.9895,3.9895,3.9895,3.9895,3.9895,3.9895,3.9895,3.9895,4.4858,4.4815,4.4815,4.4821,4.484,4.4821,4.4821,4.4821,4.4815,4.4821,4.4815,4.4815,4.4815,4.4821,4.484,4.4815,4.4821,4.4846,4.4877,4.4883,4.4889,4.4895,4.4895,4.4895,4.4687,4.4251,4.4156,4.3737,4.2997,4.2479,4.1952,4.1376,4.0916,4.0545,4.0301,4.0296,4.032,4.032,4.032,4.032,4.032,4.032,4.032,4.032,4.032,4.032,4.032,4.032,4.032,4.032,4.032,4.032,4.0306,4.03,4.029,4.0281,4.0294,4.0304,4.029,4.0267,4.0281,4.0281,4.0281,4.009,3.9597,3.9487,3.9178,3.8768,3.8402,3.8098,3.8066,3.7685,3.8024,3.8831,3.929,3.9597,3.9751,3.9845,3.9834,3.9828,3.9832,3.9843,3.9854,3.9889,3.9895,3.9895,3.9895,3.9884,3.9878,3.9867,3.9862,3.9845,3.9817,3.9811,3.9823,3.9828,3.982,3.9862,3.9884,3.9889,3.9895,3.9895,3.9895,3.9895,3.9895,3.9895,3.9895,3.9895,3.9895,3.9895,3.9884,3.9895,3.9895,3.9895,3.9895,4.477,4.4712,4.4712,4.4718,4.4718,4.4718,4.4725,4.4712,4.4718,4.4699,4.4699,4.4731,4.4718,4.4718,4.4731,4.4731,4.4725,4.4776,4.4815,4.4815,4.4852,4.4883,4.4895,4.4895,4.4838,4.48,4.48,4.447,4.3859,4.361,4.3019,4.1756,4.1433,4.1025,4.0482,4.033,4.0287,4.0291,4.0296,4.0296,4.0301,4.032,4.032,4.032,4.032,4.032,4.032,4.032,4.032,4.032,4.032,4.0301,4.0282,4.0301,4.0244,4.0206,4.0196,4.0157,4.0132,4.0142,4.0118,4.0142,4.0123,4.0049,3.9856,3.9714,3.9608,3.9379,3.888,3.8517,3.8317,3.7859,3.7566,3.7616,3.8469,3.9053,3.9671,3.9741,3.9743,3.9718,3.9758,3.9798,3.9798,3.985,3.9867,3.9854,3.9848,3.9826,3.9809,3.9806,3.9802,3.9879,4.0062,4.0339,4.0546,4.0697,4.069,4.0656,4.0464,4.0119,3.9946,3.9895,3.9884,3.9865,3.9878,3.9884,3.9873,3.9856,3.9832,3.9826,3.9837,3.9884,3.9859,3.9848,3.9854,4.4706,4.4705,4.4705,4.4705,4.4705,4.4705,4.4705,4.4705,4.4705,4.4699,4.4705,4.4705,4.4699,4.4705,4.4705,4.4705,4.4705,4.4706,4.4751,4.4789,4.4808,4.4871,4.4883,4.4895,4.4895,4.4895,4.4895,4.4787,4.4565,4.4075,4.3553,4.3114,4.1947,4.1269,4.0988,4.0451,4.0214,4.021,4.0215,4.0253,4.0282,4.0301,4.032,4.032,4.032,4.032,4.032,4.032,4.032,4.032,4.032,4.0287,4.0244,4.022,4.0196,4.0147,4.0132,4.0127,4.0111,4.0082,4.0101,4.0106,4.0072,3.984,3.9193,3.9155,3.885,3.8354,3.7863,3.7818,3.7693,3.7551,3.7834,3.8818,3.8867,3.901,3.9635,3.9712,3.9714,3.9714,3.9807,3.9856,3.99,3.9892,3.9904,3.9909,3.9928,3.9923,4.0075,4.0045,4.0178,4.0548,4.0806,4.1121,4.1379,4.1549,4.163,4.1611,4.1224,4.0526,4.0213,3.9895,3.9854,3.9832,3.9815,3.9809,3.977,3.9735,3.9747,3.9775,3.9764,3.9775,3.9775,3.977,3.9804,4.4646,4.4612,4.4612,4.4612,4.4612,4.4619,4.4612,4.4619,4.46,4.4612,4.46,4.4619,4.4619,4.4612,4.4612,4.4631,4.4612,4.4627,4.4667,4.4725,4.4783,4.4833,4.4883,4.4895,4.4895,4.4895,4.4895,4.4895,4.4825,4.4438,4.4134,4.3633,4.2824,4.2034,4.1241,4.0876,4.0426,4.0214,4.0162,4.0205,4.0253,4.0258,4.0268,4.0296,4.032,4.032,4.032,4.032,4.032,4.032,4.0301,4.0263,4.0206,4.0196,4.0162,4.0053,4.0057,4.0052,4.0026,4.0015,4.0015,4.0015,4.0015,3.9758,3.9382,3.923,3.8914,3.8637,3.8118,3.8042,3.8252,3.8271,3.8871,3.977,3.9695,3.9794,4.0596,4.0759,4.0691,4.0672,4.069,4.0715,4.0715,4.0695,4.0707,4.0789,4.0914,4.0877,4.0853,4.0715,4.0765,4.1217,4.145,4.1695,4.187,4.2021,4.2077,4.2115,4.2008,4.1262,4.0526,4.0081,3.9869,3.9836,3.9794,3.9741,3.9725,3.9702,3.9706,3.9718,3.9714,3.9695,3.9706,3.9737,3.9766,4.4563,4.4501,4.4494,4.4494,4.4487,4.4461,4.448,4.4487,4.4468,4.4487,4.4468,4.4461,4.4487,4.4487,4.4468,4.4475,4.4501,4.4544,4.4585,4.4646,4.4725,4.4821,4.4846,4.4883,4.4889,4.4895,4.4895,4.4895,4.4876,4.4863,4.4516,4.4003,4.3766,4.2986,4.2004,4.1524,4.098,4.0458,4.0368,4.0284,4.0233,4.0186,4.021,4.0268,4.0301,4.0301,4.032,4.0301,4.0282,4.0277,4.0277,4.0249,4.0191,4.0181,4.0103,3.9996,3.9946,3.9949,3.9895,3.9878,3.9878,3.9878,3.9878,3.9843,3.972,3.9658,3.9592,3.9435,3.9078,3.9251,3.9775,3.9927,4.0359,4.102,4.1043,4.1533,4.2031,4.2137,4.1985,4.1991,4.2,4.2045,4.2096,4.214,4.2096,4.145,4.155,4.15,4.1481,4.1456,4.1663,4.2076,4.2213,4.2231,4.2337,4.2449,4.2446,4.2472,4.2536,4.2008,4.1009,4.0465,4.0076,3.9858,3.9775,3.9721,3.9697,3.9697,3.976,3.9678,3.9674,3.9672,3.9671,3.9696,3.9738,4.4494,4.4411,4.4437,4.4401,4.4344,4.4344,4.4344,4.4351,4.4351,4.4358,4.4344,4.4344,4.4351,4.4332,4.4358,4.4361,4.4411,4.4447,4.4489,4.4605,4.4685,4.4731,4.4776,4.4846,4.4889,4.4883,4.4889,4.4889,4.4889,4.4877,4.4832,4.4586,4.4017,4.3567,4.3131,4.2392,4.1786,4.1184,4.1038,4.0741,4.035,4.0284,4.0309,4.0363,4.0377,4.0358,4.032,4.032,4.0287,4.0239,4.0282,4.0372,4.0156,4.0077,3.9986,3.9887,3.9843,3.9815,3.9758,3.9766,3.9754,3.9766,3.9772,3.9735,3.9724,3.978,3.9733,3.9798,4.0101,4.0572,4.1259,4.2026,4.2253,4.2497,4.2943,4.3394,4.3528,4.2667,4.212,4.203,4.2057,4.1997,4.2074,4.2225,4.2201,4.2088,4.2107,4.2063,4.215,4.2263,4.255,4.2968,4.3006,4.3062,4.3269,4.3306,4.3195,4.3141,4.3118,4.283,4.1813,4.117,4.0895,4.0324,3.9723,3.9787,4.0145,3.992,4.0058,3.9845,3.9789,3.9964,4.0095,3.9963,4.0012,4.4376,4.4365,4.434,4.4336,4.4318,4.4318,4.4318,4.4318,4.4318,4.4318,4.4318,4.4318,4.4318,4.4318,4.4318,4.4322,4.4358,4.4401,4.4447,4.4544,4.4619,4.4652,4.4679,4.4757,4.4815,4.4815,4.4796,4.4802,4.4802,4.4802,4.4789,4.4815,4.4342,4.3957,4.3642,4.3151,4.2519,4.1903,4.1749,4.1561,4.1296,4.1235,4.1257,4.1313,4.1383,4.1432,4.1465,4.1446,4.1417,4.1368,4.1294,4.0854,4.0166,4.0005,3.9911,3.982,3.9764,3.9741,3.9706,3.9714,3.972,3.9714,3.9714,3.9696,3.9835,3.9999,4.0245,4.0378,4.0929,4.1698,4.2449,4.3205,4.3586,4.3669,4.3953,4.4207,4.4035,4.3419,4.2973,4.3016,4.3135,4.3159,4.3093,4.2888,4.3079,4.3306,4.3376,4.3351,4.3432,4.3526,4.3557,4.3794,4.3832,4.3963,4.4207,4.4245,4.4083,4.3984,4.3892,4.3498,4.2742,4.2253,4.1858,4.1205,4.0572,4.0816,4.1042,4.0722,4.0597,4.0866,4.0948,4.0785,4.0754,4.0936,4.103,4.4292,4.4278,4.4278,4.4289,4.4244,4.4255,4.4248,4.4255,4.4255,4.424,4.4237,4.4263,4.424,4.4255,4.4248,4.4255,4.43,4.4358,4.443,4.4494,4.453,4.4546,4.4592,4.4639,4.4672,4.4672,4.4712,4.4718,4.4725,4.4712,4.4738,4.4712,4.4693,4.4373,4.3825,4.3655,4.329,4.2616,4.2515,4.2367,4.2276,4.228,4.2289,4.236,4.2413,4.2444,4.2425,4.2458,4.2548,4.2663,4.2572,4.1743,4.0789,4.0282,4.0127,4.007,4.0039,3.9885,3.9697,3.9678,3.9684,3.9696,3.9873,3.9893,4.0064,4.0591,4.0954,4.1261,4.1716,4.2508,4.3283,4.3791,4.4117,4.4143,4.4139,4.4112,4.4055,4.4147,4.4046,4.4091,4.3874,4.3803,4.3984,4.3964,4.4269,4.4473,4.4487,4.4501,4.4501,4.447,4.4301,4.4245,4.4226,4.4207,4.4433,4.4489,4.4421,4.4402,4.4364,4.4033,4.3552,4.334,4.2871,4.2145,4.175,4.1849,4.1779,4.1523,4.1579,4.1967,4.1854,4.1467,4.1598,4.1948,4.1936,4.4255,4.4214,4.4214,4.415,4.4051,4.4051,4.4059,4.4044,4.4059,4.4062,4.407,4.4051,4.4085,4.4078,4.407,4.4127,4.4211,4.4304,4.4358,4.4397,4.4433,4.4454,4.4496,4.4517,4.4524,4.4558,4.4619,4.4672,4.4692,4.4705,4.4679,4.4699,4.4692,4.4522,4.4466,4.4441,4.4013,4.341,4.3284,4.3064,4.2728,4.2631,4.2678,4.2769,4.2892,4.2857,4.2762,4.2686,4.2593,4.255,4.2514,4.2314,4.2031,4.1914,4.1527,4.0932,4.0733,4.0478,4.0014,3.9758,3.9676,3.9764,4.0165,4.0497,4.0704,4.1223,4.1498,4.1879,4.2376,4.3189,4.4004,4.3987,4.4064,4.4051,4.4039,4.4016,4.3968,4.4,4.4104,4.415,4.4199,4.4244,4.4296,4.4329,4.4358,4.4383,4.4418,4.4447,4.4487,4.4475,4.4451,4.4433,4.4451,4.4451,4.4489,4.4489,4.447,4.447,4.4451,4.4451,4.4158,4.4264,4.3876,4.3045,4.2481,4.233,4.2248,4.2267,4.2323,4.2586,4.2342,4.2079,4.238,4.268,4.2436,4.4124,4.4104,4.4104,4.4062,4.4005,4.3997,4.3997,4.3997,4.3997,4.3997,4.3997,4.3997,4.3997,4.3997,4.3997,4.407,4.4165,4.4229,4.4278,4.4318,4.4358,4.4365,4.4401,4.4409,4.4401,4.4416,4.4461,4.4544,4.4585,4.4592,4.4592,4.4592,4.4592,4.4599,4.4599,4.4554,4.4412,4.4067,4.4012,4.3887,4.3561,4.3536,4.3615,4.3712,4.3776,4.3829,4.3829,4.3853,4.3842,4.3827,4.3731,4.3646,4.356,4.3353,4.2907,4.1877,4.1512,4.133,4.091,4.081,4.0722,4.0315,4.0647,4.0534,4.0497,4.0816,4.1679,4.2007,4.2115,4.2569,4.283,4.3327,4.3401,4.3474,4.3706,4.3918,4.3905,4.3897,4.3892,4.3929,4.3954,4.4015,4.4229,4.4255,4.4285,4.431,4.4361,4.4404,4.4451,4.4461,4.4475,4.4451,4.4433,4.432,4.4245,4.4151,4.4095,4.4132,4.4188,4.4188,4.4264,4.4144,4.4125,4.3776,4.3356,4.2868,4.3318,4.3531,4.3381,4.3231,4.3287,4.3325,4.3337,4.3318,4.3112,4.3997,4.3997,4.3997,4.3997,4.3997,4.3997,4.3997,4.3997,4.3997,4.3997,4.3997,4.3997,4.3997,4.3997,4.4013,4.4062,4.4161,4.415,4.4195,4.4281,4.4296,4.4296,4.43,4.4318,4.4314,4.4329,4.4329,4.4358,4.4444,4.4466,4.4466,4.4466,4.4466,4.4466,4.4466,4.4475,4.4522,4.4537,4.4572,4.4631,4.4685,4.4751,4.4815,4.4889,4.4937,4.4878,4.4778,4.4764,4.4764,4.4748,4.4738,4.4733,4.4732,4.4666,4.3971,4.2823,4.2413,4.2217,4.1948,4.1892,4.1523,4.1091,4.1248,4.0973,4.0947,4.1585,4.2028,4.2248,4.2445,4.2505,4.2809,4.2839,4.3073,4.3228,4.3619,4.3862,4.3775,4.3658,4.3404,4.346,4.3569,4.3769,4.3969,4.4158,4.4162,4.424,4.43,4.4318,4.438,4.4426,4.4435,4.4407,4.432,4.4151,4.3944,4.3625,4.3487,4.3337,4.3375,4.3375,4.3562,4.3719,4.3675,4.36,4.3794,4.3494,4.4132,4.4489,4.4113,4.4001,4.4339,4.4357,4.4038,4.4001,4.3944,4.3997,4.3997,4.3997,4.3997,4.3997,4.3997,4.3997,4.3997,4.3997,4.3997,4.3997,4.3997,4.3997,4.3997,4.3997,4.4013,4.402,4.4036,4.4112,4.418,4.4214,4.4244,4.4278,4.4318,4.427,4.4263,4.4278,4.4318,4.4322,4.4329,4.4336,4.4362,4.4351,4.4329,4.4358,4.4383,4.4411,4.4433,4.4482,4.4563,4.4638,4.4738,4.4777,4.4821,4.4877,4.4901,4.492,4.4907,4.4907,4.4901,4.484,4.4764,4.4699,4.4627,4.4527,4.4073,4.3557,4.2837,4.2323,4.2286,4.2192,4.2067,4.2386,4.2813,4.253,4.2808,4.3355,4.4041,4.3799,4.3442,4.3238,4.3669,4.3816,4.3732,4.3722,4.3846,4.379,4.3556,4.3275,4.3019,4.3166,4.3434,4.3683,4.3881,4.4062,4.415,4.4211,4.4143,4.4045,4.3905,4.3887,4.3732,4.357,4.3408,4.3315,4.3033,4.2928,4.2672,4.2829,4.2854,4.3154,4.3361,4.2924,4.2943,4.3381,4.3933,4.4301,4.4489,4.4489,4.4489,4.4489,4.4489,4.4451,4.4489,4.4489,4.3997,4.3997,4.3997,4.3997,4.3997,4.3997,4.3997,4.3997,4.3997,4.3997,4.3997,4.3997,4.3997,4.3997,4.3997,4.4005,4.3997,4.3997,4.4039,4.4078,4.4093,4.4119,4.4124,4.4139,4.4139,4.4128,4.4113,4.4124,4.4154,4.4248,4.4318,4.4292,4.4318,4.4307,4.4285,4.4329,4.4361,4.4404,4.448,4.4524,4.4592,4.4659,4.4712,4.4732,4.4783,4.4802,4.4833,4.4833,4.4858,4.4864,4.4846,4.4783,4.4712,4.4639,4.4565,4.4477,4.4188,4.3813,4.3506,4.3375,4.3119,4.2837,4.3043,4.2943,4.2759,4.2868,4.306,4.2833,4.2812,4.2865,4.3022,4.3125,4.3251,4.3387,4.3751,4.382,4.3757,4.3498,4.3254,4.2979,4.276,4.2982,4.3073,4.2884,4.2999,4.3172,4.3088,4.2928,4.2804,4.2637,4.266,4.2726,4.2602,4.2452,4.2377,4.2246,4.2321,4.229,4.2887,4.2931,4.3064,4.3033,4.2735,4.3086,4.3907,4.432,4.447,4.4489,4.4489,4.4489,4.4489,4.4489,4.4489,4.4489,4.4489,4.3997,4.3997,4.3997,4.3997,4.3997,4.3997,4.3997,4.3997,4.3997,4.3997,4.3997,4.3997,4.3997,4.3997,4.3997,4.3997,4.3997,4.3997,4.3997,4.3997,4.3997,4.4005,4.402,4.4013,4.4013,4.3997,4.4028,4.4047,4.4078,4.4131,4.4199,4.4233,4.4211,4.4226,4.4214,4.4263,4.4307,4.4397,4.4451,4.4515,4.4577,4.4585,4.4632,4.4672,4.4686,4.4738,4.4802,4.4796,4.4827,4.487,4.4846,4.4789,4.4738,4.4652,4.4585,4.453,4.4397,4.4376,4.4282,4.4226,4.4132,4.3832,4.3555,4.3434,4.2898,4.2489,4.2483,4.2772,4.2664,4.2515,4.2374,4.2927,4.3206,4.3483,4.3643,4.373,4.374,4.3381,4.2993,4.2655,4.2445,4.2416,4.2325,4.1868,4.1864,4.2122,4.2028,4.1842,4.1825,4.1868,4.2209,4.2499,4.2494,4.2408,4.2289,4.2121,4.1983,4.1971,4.2567,4.2794,4.277,4.2905,4.2865,4.3478,4.4212,4.4113,4.3914,4.4207,4.4489,4.4489,4.4489,4.4489,4.4489,4.4489,4.4489,4.3997,4.3997,4.3997,4.3997,4.3997,4.3997,4.3997,4.3997,4.3997,4.3997,4.3997,4.3997,4.3997,4.3997,4.3997,4.3997,4.3997,4.3997,4.3997,4.3997,4.3997,4.3997,4.3997,4.3997,4.3997,4.3997,4.3997,4.3997,4.4005,4.4047,4.4044,4.402,4.4085,4.4036,4.4067,4.4188,4.4285,4.4361,4.443,4.4466,4.4522,4.4551,4.4592,4.4612,4.4672,4.4738,4.4783,4.4802,4.4821,4.4883,4.484,4.4796,4.4757,4.466,4.4605,4.459,4.4535,4.4515,4.4489,4.4489,4.4463,4.4393,4.4278,4.4104,4.3774,4.3927,4.399,4.3718,4.3427,4.3537,4.3652,4.3912,4.3931,4.3783,4.3823,4.3872,4.3689,4.3083,4.2704,4.2321,4.2294,4.2485,4.2456,4.2188,4.1836,4.2094,4.198,4.1816,4.1828,4.1898,4.2347,4.2644,4.2722,4.2692,4.2699,4.2423,4.1877,4.1861,4.227,4.2298,4.22,4.2443,4.321,4.3207,4.3708,4.3537,4.3576,4.4095,4.447,4.4489,4.4489,4.4489,4.4489,4.4489,4.4489,4.3997,4.3997,4.3997,4.3997,4.3997,4.3997,4.3997,4.3997,4.3997,4.3997,4.3997,4.3997,4.3997,4.3997,4.3997,4.3997,4.3997,4.3997,4.3997,4.3997,4.3997,4.3997,4.3997,4.3997,4.3997,4.3997,4.3997,4.3997,4.3997,4.3997,4.3997,4.4005,4.3997,4.4005,4.4062,4.4147,4.4259,4.4344,4.4404,4.448,4.4501,4.4503,4.4524,4.4537,4.4563,4.4639,4.4706,4.4744,4.4815,4.4858,4.4858,4.4833,4.4796,4.4693,4.4646,4.4618,4.4549,4.4515,4.4489,4.4482,4.4468,4.4426,4.4404,4.438,4.4307,4.4222,4.4142,4.4048,4.4084,4.4135,4.4061,4.4432,4.4658,4.4297,4.4169,4.4208,4.3914,4.3408,4.3109,4.3029,4.2955,4.3001,4.2899,4.2769,4.2394,4.2101,4.1942,4.179,4.1782,4.1865,4.2262,4.2545,4.2608,4.2556,4.2519,4.2099,4.1679,4.192,4.2187,4.2321,4.2529,4.3276,4.3839,4.362,4.3505,4.3795,4.4067,4.4306,4.4444,4.4482,4.4489,4.4489,4.4489,4.4489,4.4489,4.3997,4.3997,4.3997,4.3997,4.3997,4.3997,4.3997,4.3997,4.3997,4.3997,4.3997,4.3997,4.3997,4.3997,4.3997,4.3997,4.3997,4.3997,4.3997,4.3997,4.3997,4.3997,4.3997,4.3997,4.3997,4.3997,4.3997,4.3997,4.3997,4.3997,4.3997,4.3997,4.3997,4.3997,4.4055,4.418,4.4278,4.4322,4.4401,4.4487,4.4482,4.4489,4.4489,4.4503,4.4524,4.4618,4.4692,4.4744,4.4789,4.4858,4.4883,4.4864,4.4815,4.4745,4.4692,4.4638,4.457,4.4508,4.4489,4.4482,4.4461,4.4411,4.4361,4.4307,4.4237,4.4187,4.4152,4.4493,4.4451,4.4451,4.4591,4.5281,4.5453,4.5165,4.5176,4.5156,4.4746,4.4292,4.4036,4.3855,4.3653,4.3304,4.3249,4.3101,4.2739,4.2402,4.2193,4.1907,4.1574,4.1716,4.2031,4.2279,4.2419,4.2321,4.2179,4.2398,4.2645,4.2764,4.297,4.3061,4.3393,4.4013,4.4255,4.4012,4.4019,4.4327,4.4404,4.4393,4.4447,4.4501,4.4494,4.4487,4.4489,4.4489,4.4489,4.3997,4.3997,4.3997,4.3997,4.3997,4.3997,4.3997,4.3997,4.3997,4.3997,4.3997,4.3997,4.3997,4.3997,4.3997,4.3997,4.3997,4.3997,4.3997,4.3997,4.3997,4.3997,4.3997,4.3997,4.3997,4.3997,4.3997,4.3997,4.3997,4.3997,4.3997,4.3997,4.3997,4.4005,4.4005,4.4135,4.4226,4.43,4.438,4.444,4.4475,4.4489,4.4489,4.4496,4.4544,4.4619,4.4692,4.4764,4.4808,4.4877,4.4895,4.4883,4.487,4.4751,4.4705,4.4685,4.4577,4.4515,4.4489,4.4489,4.4447,4.4383,4.4336,4.433,4.4247,4.4261,4.4541,4.5119,4.5249,4.5584,4.5986,4.6316,4.62,4.5978,4.5948,4.586,4.543,4.5092,4.4809,4.436,4.3873,4.3506,4.3488,4.3368,4.3044,4.2747,4.2496,4.2169,4.1794,4.1923,4.2357,4.2505,4.2718,4.281,4.2902,4.3347,4.3591,4.3675,4.3642,4.3585,4.3622,4.3896,4.4085,4.4173,4.4255,4.4322,4.4344,4.4351,4.4394,4.443,4.4458,4.4473,4.4494,4.4482,4.4475,4.3997,4.3997,4.3997,4.3997,4.3997,4.3997,4.3997,4.3997,4.3997,4.3997,4.3997,4.3997,4.3997,4.3997,4.3997,4.3997,4.3997,4.3997,4.3997,4.3997,4.3997,4.3997,4.3997,4.3997,4.3997,4.3997,4.3997,4.3997,4.3997,4.3997,4.3997,4.3997,4.3997,4.3997,4.4062,4.4154,4.4278,4.4314,4.4401,4.4468,4.4489,4.4489,4.4489,4.4489,4.4558,4.4613,4.4686,4.4776,4.4852,4.4883,4.4895,4.4895,4.487,4.4783,4.4712,4.4679,4.4572,4.4508,4.4475,4.4454,4.4397,4.4381,4.4382,4.4523,4.4822,4.4891,4.5332,4.5862,4.6059,4.6283,4.6273,4.6923,4.6909,4.6363,4.6229,4.6277,4.6029,4.5736,4.5397,4.4837,4.4305,4.3965,4.3836,4.3781,4.3505,4.3275,4.3071,4.3016,4.2737,4.2839,4.3125,4.3143,4.328,4.3436,4.36,4.3651,4.3676,4.3639,4.3681,4.3736,4.3822,4.3881,4.3961,4.4055,4.4165,4.4259,4.4263,4.4285,4.4314,4.4351,4.447,4.4476,4.4437,4.4433,4.4447,4.3997,4.3997,4.3997,4.3997,4.3997,4.3997,4.3997,4.3997,4.3997,4.3997,4.3997,4.3997,4.3997,4.3997,4.3997,4.3997,4.3997,4.3997,4.3997,4.3997,4.3997,4.3997,4.3997,4.3997,4.3997,4.3997,4.3997,4.3997,4.3997,4.3997,4.3997,4.3997,4.3997,4.3997,4.407,4.4169,4.43,4.4336,4.4416,4.4482,4.4489,4.4489,4.4489,4.4535,4.4597,4.464,4.4718,4.4789,4.4865,4.4883,4.4914,4.4914,4.4871,4.4821,4.4737,4.4666,4.4578,4.4803,4.5244,4.4933,4.5024,4.5271,4.4852,4.4991,4.5534,4.5703,4.6168,4.6624,4.6849,4.7003,4.7137,4.7759,4.746,4.692,4.6829,4.6884,4.6783,4.6517,4.6049,4.5471,4.4865,4.4525,4.4222,4.4121,4.4002,4.3818,4.3671,4.3598,4.3488,4.3488,4.3488,4.3496,4.3478,4.3513,4.3549,4.3548,4.3583,4.3583,4.3652,4.3711,4.3736,4.3732,4.3857,4.3945,4.4016,4.4104,4.418,4.4218,4.4326,4.4442,4.4595,4.4543,4.4414,4.4507,4.4633,4.3997,4.3997,4.3997,4.3997,4.3997,4.3997,4.3997,4.3997,4.3997,4.3997,4.3997,4.3997,4.3997,4.3997,4.3997,4.3997,4.3997,4.3997,4.3997,4.3997,4.3997,4.3997,4.3997,4.3997,4.3997,4.3997,4.3997,4.3997,4.3997,4.3997,4.3997,4.3997,4.3997,4.3997,4.4059,4.4177,4.4285,4.4336,4.4423,4.4494,4.4489,4.4489,4.4489,4.4542,4.4599,4.4647,4.4731,4.4808,4.4877,4.4927,4.4965,4.4984,4.4947,4.4858,4.4832,4.481,4.4807,4.5629,4.6228,4.5806,4.6011,4.6263,4.594,4.6055,4.6267,4.6568,4.6977,4.7416,4.7725,4.8044,4.837,4.8208,4.8043,4.7804,4.7683,4.7655,4.76,4.7269,4.6773,4.6205,4.5553,4.5121,4.4773,4.4626,4.4103,4.3928,4.3708,4.3579,4.3488,4.3488,4.3488,4.3488,4.3488,4.3488,4.3496,4.3505,4.3513,4.3549,4.354,4.3583,4.36,4.3661,4.3716,4.3798,4.3873,4.4019,4.4355,4.4439,4.4414,4.4622,4.5135,4.4929,4.4905,4.4957,4.5006,4.3997,4.3997,4.3997,4.3997,4.3997,4.3997,4.3997,4.3997,4.3997,4.3997,4.3997,4.3997,4.3997,4.3997,4.3997,4.3997,4.3997,4.3997,4.3997,4.3997,4.3997,4.3997,4.3997,4.3997,4.3997,4.3997,4.3997,4.4042,4.4053,4.4053,4.4108,4.3997,4.4246,4.4191,4.4171,4.4211,4.43,4.4348,4.4449,4.4487,4.4489,4.4489,4.4489,4.4524,4.4679,4.4747,4.4813,4.4959,4.5029,4.5015,4.5552,4.5773,4.576,4.6161,4.6465,4.6363,4.6354,4.6532,4.6746,4.6562,4.6682,4.729,4.7142,4.7148,4.7301,4.7441,4.772,4.8084,4.8275,4.8463,4.8281,4.8071,4.7841,4.761,4.7425,4.7232,4.714,4.6893,4.6425,4.5966,4.5351,4.5121,4.4864,4.4442,4.3956,4.3836,4.3708,4.3561,4.3488,4.3488,4.3488,4.3488,4.3488,4.3488,4.3488,4.3496,4.3488,4.3488,4.3515,4.357,4.3687,4.373,4.3671,4.3875,4.4262,4.4531,4.4781,4.4848,4.4987,4.5589,4.6062,4.5682,4.5421,4.5539,4.5529,4.3997,4.3997,4.3997,4.3997,4.3997,4.3997,4.3997,4.3997,4.3997,4.3997,4.3997,4.3997,4.3997,4.3997,4.3997,4.3997,4.3997,4.3997,4.3997,4.3997,4.3997,4.3997,4.3997,4.3997,4.3997,4.3997,4.4079,4.4209,4.4413,4.4878,4.5045,4.5082,4.4989,4.4748,4.4694,4.4687,4.4524,4.4438,4.4394,4.448,4.4519,4.4519,4.4508,4.4646,4.484,4.5071,4.52,4.5412,4.5729,4.5836,4.6512,4.6626,4.6585,4.6952,4.7363,4.7221,4.7012,4.7354,4.7705,4.7451,4.7711,4.804,4.8198,4.8183,4.8147,4.8213,4.8444,4.8687,4.8638,4.854,4.8126,4.7739,4.7371,4.7031,4.6764,4.6489,4.6305,4.614,4.5773,4.5369,4.5039,4.4828,4.4497,4.414,4.3956,4.4048,4.3864,4.3543,4.3488,4.3488,4.3488,4.3488,4.3488,4.3488,4.3488,4.3488,4.3488,4.3488,4.3488,4.3579,4.3753,4.4037,4.4209,4.4516,4.4868,4.5149,4.5456,4.5589,4.5813,4.6405,4.6876,4.675,4.6437,4.6281,4.6216,4.3893,4.3893,4.3968,4.3997,4.3997,4.3997,4.3997,4.3997,4.3997,4.3997,4.3997,4.3997,4.3997,4.3997,4.3997,4.3997,4.3997,4.3997,4.3997,4.3997,4.3997,4.3997,4.3997,4.3997,4.3997,4.3997,4.4116,4.4339,4.5249,4.5714,4.6067,4.6494,4.6327,4.5937,4.5451,4.5483,4.5314,4.5009,4.495,4.4976,4.4728,4.463,4.4644,4.4932,4.5414,4.5909,4.612,4.661,4.7277,4.7292,4.7406,4.7394,4.7571,4.7561,4.7893,4.7961,4.78,4.8088,4.8487,4.8352,4.8412,4.8702,4.897,4.8787,4.8667,4.864,4.8789,4.8827,4.8758,4.841,4.8005,4.7721,4.738,4.693,4.6562,4.6397,4.6269,4.6076,4.5828,4.5507,4.5453,4.5233,4.5114,4.4848,4.4702,4.46,4.4444,4.404,4.3938,4.3938,4.3708,4.369,4.3524,4.3524,4.3488,4.3488,4.3488,4.3488,4.3561,4.359,4.3775,4.4269,4.4846,4.4899,4.4942,4.5764,4.6156,4.6318,4.6581,4.7067,4.7463,4.7703,4.7551,4.7221,4.6975,4.3076,4.315,4.3726,4.3997,4.3997,4.3997,4.3997,4.3997,4.3997,4.3997,4.3997,4.3997,4.3997,4.3997,4.3997,4.3997,4.3997,4.3997,4.3997,4.3997,4.3997,4.3997,4.3997,4.3997,4.3997,4.3997,4.4135,4.4636,4.5547,4.6197,4.6568,4.6568,4.6661,4.6531,4.6242,4.6278,4.6113,4.573,4.5797,4.5675,4.5421,4.5417,4.5499,4.5975,4.6521,4.6662,4.6852,4.7017,4.7231,4.7247,4.7871,4.8391,4.8993,4.8916,4.8995,4.9084,4.8844,4.8962,4.8961,4.8952,4.8926,4.8846,4.8917,4.8909,4.8881,4.889,4.8891,4.8865,4.872,4.8316,4.8005,4.7739,4.7472,4.6976,4.6471,4.6379,4.6287,4.6067,4.5893,4.5865,4.5828,4.5754,4.5661,4.5579,4.5506,4.5452,4.5471,4.5297,4.5214,4.5112,4.4387,4.4204,4.369,4.3598,4.3671,4.3836,4.4038,4.391,4.391,4.3885,4.3923,4.4592,4.5279,4.4903,4.4957,4.6037,4.6854,4.7054,4.7356,4.774,4.7978,4.8182,4.8374,4.8166,4.7877,4.2489,4.2872,4.3652,4.3997,4.3997,4.3997,4.3997,4.3997,4.3997,4.3997,4.3997,4.3997,4.3997,4.3997,4.3997,4.3997,4.3997,4.3997,4.3997,4.3997,4.3997,4.3997,4.3997,4.3997,4.3997,4.4071,4.4934,4.5621,4.6252,4.7125,4.7646,4.7497,4.7497,4.7348,4.7134,4.7045,4.6902,4.653,4.668,4.6584,4.6291,4.6312,4.6235,4.6719,4.712,4.735,4.7691,4.7878,4.8241,4.8315,4.8762,4.8993,4.9382,4.9382,4.943,4.9452,4.9399,4.942,4.9262,4.9162,4.9104,4.8978,4.889,4.889,4.889,4.889,4.889,4.8874,4.8831,4.8492,4.8392,4.8191,4.8062,4.7702,4.7031,4.6627,4.6296,4.5938,4.5847,4.5837,4.5781,4.5678,4.5604,4.5594,4.554,4.5569,4.5688,4.59,4.5947,4.6214,4.5489,4.5011,4.469,4.4562,4.4819,4.4874,4.4864,4.4681,4.4387,4.4894,4.526,4.5478,4.5659,4.5707,4.602,4.6828,4.7481,4.762,4.7914,4.8244,4.8437,4.864,4.8786,4.883,4.8486,4.198,4.2853,4.367,4.3997,4.3997,4.3997,4.3997,4.3997,4.3997,4.3989,4.3974,4.3981,4.3989,4.3997,4.3997,4.3997,4.3997,4.3997,4.3997,4.3997,4.3997,4.3997,4.3997,4.3997,4.4135,4.4711,4.5602,4.655,4.7404,4.8129,4.8574,4.8853,4.876,4.8556,4.8054,4.7794,4.7635,4.7291,4.727,4.7365,4.7285,4.7228,4.7098,4.7303,4.7716,4.8193,4.8545,4.8911,4.9469,4.9484,4.9371,4.9465,4.9506,4.9528,4.9505,4.9509,4.9509,4.9404,4.9254,4.9179,4.9071,4.8969,4.8907,4.889,4.889,4.889,4.889,4.8883,4.884,4.8768,4.8678,4.8559,4.8449,4.8282,4.7564,4.7049,4.6589,4.6204,4.6185,4.6157,4.6062,4.5947,4.589,4.5872,4.5873,4.5866,4.5914,4.6027,4.6258,4.668,4.6608,4.6415,4.6287,4.6195,4.5902,4.5709,4.5562,4.5406,4.5269,4.6011,4.6403,4.593,4.6081,4.706,4.7496,4.7501,4.7826,4.805,4.8365,4.8523,4.8587,4.8624,4.8669,4.8714,4.875,4.1497,4.2872,4.367,4.3997,4.3997,4.3997,4.3997,4.3997,4.3997,4.3974,4.3929,4.3921,4.3945,4.3997,4.3997,4.3989,4.3984,4.3981,4.3997,4.3997,4.3997,4.3997,4.3981,4.3995,4.4443,4.5186,4.6024,4.6857,4.7799,4.8521,4.8881,4.8864,4.8891,4.8799,4.8751,4.8539,4.8391,4.8094,4.8131,4.8298,4.8194,4.8152,4.812,4.8385,4.8791,4.8932,4.9089,4.9206,4.9329,4.9379,4.9456,4.9505,4.9513,4.9498,4.949,4.9467,4.9474,4.938,4.9265,4.9189,4.9081,4.8935,4.889,4.889,4.889,4.889,4.889,4.889,4.8856,4.8849,4.875,4.8632,4.8523,4.843,4.7968,4.7893,4.7653,4.7504,4.7426,4.7366,4.7257,4.7149,4.7057,4.7049,4.7062,4.7074,4.7106,4.7214,4.7234,4.7457,4.7578,4.7561,4.7516,4.6874,4.6177,4.6195,4.6094,4.5993,4.6021,4.6457,4.6404,4.5683,4.6053,4.7195,4.7381,4.7259,4.7678,4.8207,4.8267,4.8344,4.8457,4.8532,4.856,4.8615,4.8651]}]]